<?xml version='1.0' encoding='UTF-8'?><gpx version="1.1" creator="JPX - https://github.com/jenetics/jpx" xmlns="http://www.topografix.com/GPX/1/1"><trk><trkseg><trkpt lat="42.81275595023844" lon="10.427666276308559"><ele>22.0</ele><time>2026-04-21T13:56:25Z</time></trkpt><trkpt lat="42.812729401511895" lon="10.427514726959867"><ele>22.0</ele><time>2026-04-21T13:56:27Z</time></trkpt><trkpt lat="42.812712977420766" lon="10.427423593341649"><ele>22.0</ele><time>2026-04-21T13:56:28Z</time></trkpt><trkpt lat="42.81269104170068" lon="10.427333115946304"><ele>22.0</ele><time>2026-04-21T13:56:29Z</time></trkpt><trkpt lat="42.812665667720275" lon="10.427237333514674"><ele>22.0</ele><time>2026-04-21T13:56:30Z</time></trkpt><trkpt lat="42.812668193137725" lon="10.427131086148723"><ele>22.0</ele><time>2026-04-21T13:56:31Z</time></trkpt><trkpt lat="42.81263274234887" lon="10.427035875804608"><ele>25.200000000000003</ele><time>2026-04-21T13:56:32Z</time></trkpt><trkpt lat="42.81260058531654" lon="10.426949201628917"><ele>28.4</ele><time>2026-04-21T13:56:33Z</time></trkpt><trkpt lat="42.81257020682665" lon="10.426871208617033"><ele>31.599999999999998</ele><time>2026-04-21T13:56:34Z</time></trkpt><trkpt lat="42.81250974606694" lon="10.426726428190213"><ele>34.8</ele><time>2026-04-21T13:56:36Z</time></trkpt><trkpt lat="42.81245805996818" lon="10.426604421587912"><ele>38.0</ele><time>2026-04-21T13:56:38Z</time></trkpt><trkpt lat="42.81241796528811" lon="10.426491198988753"><ele>38.0</ele><time>2026-04-21T13:56:40Z</time></trkpt><trkpt lat="42.81236010564976" lon="10.426322336260021"><ele>38.0</ele><time>2026-04-21T13:56:42Z</time></trkpt><trkpt lat="42.812351456396215" lon="10.426220432763818"><ele>38.0</ele><time>2026-04-21T13:56:43Z</time></trkpt><trkpt lat="42.81235672538743" lon="10.426115760768806"><ele>38.0</ele><time>2026-04-21T13:56:44Z</time></trkpt><trkpt lat="42.81236461576882" lon="10.426007221866806"><ele>38.0</ele><time>2026-04-21T13:56:45Z</time></trkpt><trkpt lat="42.81236212062269" lon="10.42589366376188"><ele>37.83333333333333</ele><time>2026-04-21T13:56:46Z</time></trkpt><trkpt lat="42.81237003649605" lon="10.425793719068785"><ele>37.666666666666664</ele><time>2026-04-21T13:56:47Z</time></trkpt><trkpt lat="42.81237718961757" lon="10.42569417949661"><ele>37.5</ele><time>2026-04-21T13:56:48Z</time></trkpt><trkpt lat="42.81240421269763" lon="10.425607437923817"><ele>37.333333333333336</ele><time>2026-04-21T13:56:49Z</time></trkpt><trkpt lat="42.81244204349971" lon="10.425449100516394"><ele>37.16666666666667</ele><time>2026-04-21T13:56:51Z</time></trkpt><trkpt lat="42.81251407918149" lon="10.425413126336226"><ele>37.0</ele><time>2026-04-21T13:56:52Z</time></trkpt><trkpt lat="42.812580438793034" lon="10.425357370607646"><ele>38.66666666666667</ele><time>2026-04-21T13:56:53Z</time></trkpt><trkpt lat="42.812647880833445" lon="10.425329866728566"><ele>40.333333333333336</ele><time>2026-04-21T13:56:54Z</time></trkpt><trkpt lat="42.81271391654065" lon="10.425288998561895"><ele>42.0</ele><time>2026-04-21T13:56:55Z</time></trkpt><trkpt lat="42.812783821640615" lon="10.42523377642694"><ele>43.666666666666664</ele><time>2026-04-21T13:56:56Z</time></trkpt><trkpt lat="42.812851312719445" lon="10.425191623306825"><ele>45.33333333333333</ele><time>2026-04-21T13:56:57Z</time></trkpt><trkpt lat="42.812907405864365" lon="10.425116685691192"><ele>47.0</ele><time>2026-04-21T13:56:58Z</time></trkpt><trkpt lat="42.812957109101916" lon="10.425024482506858"><ele>43.800000000000004</ele><time>2026-04-21T13:56:59Z</time></trkpt><trkpt lat="42.81298787431542" lon="10.424913589070504"><ele>40.6</ele><time>2026-04-21T13:57:00Z</time></trkpt><trkpt lat="42.813018023831766" lon="10.424814331804237"><ele>37.400000000000006</ele><time>2026-04-21T13:57:01Z</time></trkpt><trkpt lat="42.813053220032664" lon="10.424698459946288"><ele>34.2</ele><time>2026-04-21T13:57:02Z</time></trkpt><trkpt lat="42.81309359721834" lon="10.424579871934812"><ele>31.0</ele><time>2026-04-21T13:57:04Z</time></trkpt><trkpt lat="42.813140697678264" lon="10.42444386539759"><ele>31.000000000000004</ele><time>2026-04-21T13:57:07Z</time></trkpt><trkpt lat="42.81316606755234" lon="10.4243632514293"><ele>31.0</ele><time>2026-04-21T13:57:08Z</time></trkpt><trkpt lat="42.81319159557312" lon="10.424268376981699"><ele>31.0</ele><time>2026-04-21T13:57:09Z</time></trkpt><trkpt lat="42.81322258253532" lon="10.424176018475604"><ele>31.0</ele><time>2026-04-21T13:57:10Z</time></trkpt><trkpt lat="42.813254195510964" lon="10.424083225565449"><ele>31.000000000000004</ele><time>2026-04-21T13:57:11Z</time></trkpt><trkpt lat="42.813295214139174" lon="10.423989968023719"><ele>31.0</ele><time>2026-04-21T13:57:12Z</time></trkpt><trkpt lat="42.81334631502557" lon="10.423891176574012"><ele>31.666666666666668</ele><time>2026-04-21T13:57:13Z</time></trkpt><trkpt lat="42.81339172338533" lon="10.423794774247717"><ele>32.333333333333336</ele><time>2026-04-21T13:57:14Z</time></trkpt><trkpt lat="42.81343751337016" lon="10.423705598227635"><ele>33.0</ele><time>2026-04-21T13:57:15Z</time></trkpt><trkpt lat="42.81347634394714" lon="10.42360570622594"><ele>33.666666666666664</ele><time>2026-04-21T13:57:16Z</time></trkpt><trkpt lat="42.813502119606966" lon="10.42349557335766"><ele>34.33333333333333</ele><time>2026-04-21T13:57:17Z</time></trkpt><trkpt lat="42.81352863300841" lon="10.42337922892117"><ele>35.0</ele><time>2026-04-21T13:57:18Z</time></trkpt><trkpt lat="42.81353655963339" lon="10.423248104233815"><ele>32.0</ele><time>2026-04-21T13:57:19Z</time></trkpt><trkpt lat="42.81354719654103" lon="10.42310105746134"><ele>29.0</ele><time>2026-04-21T13:57:20Z</time></trkpt><trkpt lat="42.81354923075157" lon="10.422956961644516"><ele>26.0</ele><time>2026-04-21T13:57:21Z</time></trkpt><trkpt lat="42.81355403736957" lon="10.422820076057878"><ele>23.0</ele><time>2026-04-21T13:57:22Z</time></trkpt><trkpt lat="42.81355575261218" lon="10.422685729249602"><ele>20.0</ele><time>2026-04-21T13:57:23Z</time></trkpt><trkpt lat="42.81355645689841" lon="10.422556029472643"><ele>20.0</ele><time>2026-04-21T13:57:24Z</time></trkpt><trkpt lat="42.8135546144385" lon="10.422428425498381"><ele>20.0</ele><time>2026-04-21T13:57:25Z</time></trkpt><trkpt lat="42.81356405203756" lon="10.42230824876536"><ele>20.0</ele><time>2026-04-21T13:57:26Z</time></trkpt><trkpt lat="42.81357424931422" lon="10.422206926087936"><ele>20.0</ele><time>2026-04-21T13:57:27Z</time></trkpt><trkpt lat="42.81358853455426" lon="10.422110680188716"><ele>20.0</ele><time>2026-04-21T13:57:28Z</time></trkpt><trkpt lat="42.81361568968145" lon="10.422029927429804"><ele>20.0</ele><time>2026-04-21T13:57:29Z</time></trkpt><trkpt lat="42.81366417294762" lon="10.421966297312096"><ele>20.833333333333336</ele><time>2026-04-21T13:57:30Z</time></trkpt><trkpt lat="42.81375797920448" lon="10.421867156565087"><ele>21.666666666666668</ele><time>2026-04-21T13:57:32Z</time></trkpt><trkpt lat="42.81382353070597" lon="10.421859957068579"><ele>22.5</ele><time>2026-04-21T13:57:33Z</time></trkpt><trkpt lat="42.81389177041604" lon="10.421848091177118"><ele>23.333333333333336</ele><time>2026-04-21T13:57:34Z</time></trkpt><trkpt lat="42.81398845865045" lon="10.421833677561029"><ele>24.166666666666668</ele><time>2026-04-21T13:57:35Z</time></trkpt><trkpt lat="42.81406387584419" lon="10.421824987369424"><ele>25.0</ele><time>2026-04-21T13:57:36Z</time></trkpt><trkpt lat="42.814184957460114" lon="10.42180065451143"><ele>25.0</ele><time>2026-04-21T13:57:38Z</time></trkpt><trkpt lat="42.81427151354641" lon="10.421792945857558"><ele>25.0</ele><time>2026-04-21T13:57:45Z</time></trkpt><trkpt lat="42.81425948897285" lon="10.421957192953023"><ele>25.0</ele><time>2026-04-21T13:57:46Z</time></trkpt><trkpt lat="42.81426961158815" lon="10.42212689315243"><ele>25.0</ele><time>2026-04-21T13:57:48Z</time></trkpt><trkpt lat="42.81427487658896" lon="10.422222789389501"><ele>25.0</ele><time>2026-04-21T13:57:49Z</time></trkpt><trkpt lat="42.8142811703894" lon="10.422337424087155"><ele>24.166666666666668</ele><time>2026-04-21T13:57:50Z</time></trkpt><trkpt lat="42.81428772405603" lon="10.422451591080538"><ele>23.333333333333336</ele><time>2026-04-21T13:57:51Z</time></trkpt><trkpt lat="42.814295176018206" lon="10.422580394609241"><ele>22.5</ele><time>2026-04-21T13:57:52Z</time></trkpt><trkpt lat="42.814304664143734" lon="10.422692349505104"><ele>21.666666666666668</ele><time>2026-04-21T13:57:53Z</time></trkpt><trkpt lat="42.81431964306123" lon="10.422801550910846"><ele>20.833333333333336</ele><time>2026-04-21T13:57:54Z</time></trkpt><trkpt lat="42.81433488222223" lon="10.42290638253144"><ele>20.0</ele><time>2026-04-21T13:57:55Z</time></trkpt><trkpt lat="42.81435565896565" lon="10.42302145754213"><ele>22.0</ele><time>2026-04-21T13:57:56Z</time></trkpt><trkpt lat="42.81437035304914" lon="10.423129623965389"><ele>24.0</ele><time>2026-04-21T13:57:57Z</time></trkpt><trkpt lat="42.81438897562535" lon="10.423252632931618"><ele>26.0</ele><time>2026-04-21T13:57:58Z</time></trkpt><trkpt lat="42.81440921107802" lon="10.423371484245205"><ele>28.0</ele><time>2026-04-21T13:57:59Z</time></trkpt><trkpt lat="42.81443661403357" lon="10.423502057708832"><ele>30.0</ele><time>2026-04-21T13:58:00Z</time></trkpt><trkpt lat="42.81445394168953" lon="10.423624240145166"><ele>30.0</ele><time>2026-04-21T13:58:01Z</time></trkpt><trkpt lat="42.814469409635834" lon="10.42375314738257"><ele>30.0</ele><time>2026-04-21T13:58:02Z</time></trkpt><trkpt lat="42.814486538070796" lon="10.423897373005216"><ele>30.0</ele><time>2026-04-21T13:58:03Z</time></trkpt><trkpt lat="42.81450410851842" lon="10.424015426756744"><ele>30.0</ele><time>2026-04-21T13:58:04Z</time></trkpt><trkpt lat="42.814523266090994" lon="10.424129077034333"><ele>30.0</ele><time>2026-04-21T13:58:05Z</time></trkpt><trkpt lat="42.8145473600552" lon="10.424250215967"><ele>29.5</ele><time>2026-04-21T13:58:06Z</time></trkpt><trkpt lat="42.814565161295974" lon="10.424366810792637"><ele>29.0</ele><time>2026-04-21T13:58:07Z</time></trkpt><trkpt lat="42.81458972899461" lon="10.424487183581602"><ele>28.5</ele><time>2026-04-21T13:58:08Z</time></trkpt><trkpt lat="42.81461240072679" lon="10.424583493972333"><ele>28.0</ele><time>2026-04-21T13:58:09Z</time></trkpt><trkpt lat="42.81462943369887" lon="10.424681236633784"><ele>27.5</ele><time>2026-04-21T13:58:10Z</time></trkpt><trkpt lat="42.81464443401708" lon="10.42476811973064"><ele>27.0</ele><time>2026-04-21T13:58:11Z</time></trkpt><trkpt lat="42.81465812433594" lon="10.424869549464491"><ele>25.8</ele><time>2026-04-21T13:58:12Z</time></trkpt><trkpt lat="42.81467592241901" lon="10.424978289130342"><ele>24.6</ele><time>2026-04-21T13:58:13Z</time></trkpt><trkpt lat="42.81470701468861" lon="10.425099950383657"><ele>23.400000000000002</ele><time>2026-04-21T13:58:14Z</time></trkpt><trkpt lat="42.814726727684075" lon="10.42522910972199"><ele>22.200000000000003</ele><time>2026-04-21T13:58:15Z</time></trkpt><trkpt lat="42.81476077456568" lon="10.425362612902838"><ele>21.0</ele><time>2026-04-21T13:58:16Z</time></trkpt><trkpt lat="42.81479897333493" lon="10.425494454991506"><ele>20.0</ele><time>2026-04-21T13:58:17Z</time></trkpt><trkpt lat="42.81485160400551" lon="10.425622430601804"><ele>19.0</ele><time>2026-04-21T13:58:18Z</time></trkpt><trkpt lat="42.81488271965681" lon="10.425760140061556"><ele>18.0</ele><time>2026-04-21T13:58:19Z</time></trkpt><trkpt lat="42.81494084095008" lon="10.425874907026072"><ele>17.0</ele><time>2026-04-21T13:58:20Z</time></trkpt><trkpt lat="42.814992746549486" lon="10.426009909367343"><ele>16.0</ele><time>2026-04-21T13:58:21Z</time></trkpt><trkpt lat="42.81503566521526" lon="10.426130273421972"><ele>16.0</ele><time>2026-04-21T13:58:22Z</time></trkpt><trkpt lat="42.81505075180774" lon="10.426264333087872"><ele>16.0</ele><time>2026-04-21T13:58:23Z</time></trkpt><trkpt lat="42.815085447799184" lon="10.42634352805622"><ele>16.0</ele><time>2026-04-21T13:58:24Z</time></trkpt><trkpt lat="42.815137290460314" lon="10.426450924340912"><ele>16.0</ele><time>2026-04-21T13:58:26Z</time></trkpt><trkpt lat="42.81518721254335" lon="10.426578759287713"><ele>16.0</ele><time>2026-04-21T13:58:28Z</time></trkpt><trkpt lat="42.81523971757099" lon="10.426700059589107"><ele>15.833333333333332</ele><time>2026-04-21T13:58:30Z</time></trkpt><trkpt lat="42.81528937594666" lon="10.4268124324921"><ele>15.666666666666666</ele><time>2026-04-21T13:58:32Z</time></trkpt><trkpt lat="42.81533061764088" lon="10.426908589449608"><ele>15.5</ele><time>2026-04-21T13:58:34Z</time></trkpt><trkpt lat="42.81537700423306" lon="10.427023599036291"><ele>15.333333333333332</ele><time>2026-04-21T13:58:36Z</time></trkpt><trkpt lat="42.81541427329699" lon="10.427100375877998"><ele>15.166666666666666</ele><time>2026-04-21T13:58:37Z</time></trkpt><trkpt lat="42.81544459610808" lon="10.427185103040385"><ele>15.0</ele><time>2026-04-21T13:58:38Z</time></trkpt><trkpt lat="42.81546740219106" lon="10.427270373818637"><ele>15.0</ele><time>2026-04-21T13:58:39Z</time></trkpt><trkpt lat="42.81548689618984" lon="10.427362430514693"><ele>15.0</ele><time>2026-04-21T13:58:40Z</time></trkpt><trkpt lat="42.81551050682622" lon="10.427449180003123"><ele>15.0</ele><time>2026-04-21T13:58:41Z</time></trkpt><trkpt lat="42.81553259776477" lon="10.427536169719659"><ele>15.0</ele><time>2026-04-21T13:58:42Z</time></trkpt><trkpt lat="42.81555496656289" lon="10.427627767462875"><ele>15.0</ele><time>2026-04-21T13:58:43Z</time></trkpt><trkpt lat="42.81559212253267" lon="10.42776961973805"><ele>15.0</ele><time>2026-04-21T13:58:45Z</time></trkpt><trkpt lat="42.815690650299786" lon="10.427861419975327"><ele>15.0</ele><time>2026-04-21T13:58:47Z</time></trkpt><trkpt lat="42.815810554920056" lon="10.427901201481214"><ele>15.0</ele><time>2026-04-21T13:58:49Z</time></trkpt><trkpt lat="42.81588269676894" lon="10.427968119970837"><ele>15.0</ele><time>2026-04-21T13:58:51Z</time></trkpt><trkpt lat="42.81594076828634" lon="10.428082943229125"><ele>15.0</ele><time>2026-04-21T13:58:53Z</time></trkpt><trkpt lat="42.81599988677477" lon="10.428203058073903"><ele>15.0</ele><time>2026-04-21T13:58:55Z</time></trkpt><trkpt lat="42.81610054040831" lon="10.428300750597662"><ele>13.5</ele><time>2026-04-21T13:58:57Z</time></trkpt><trkpt lat="42.81616513973118" lon="10.428354267255417"><ele>12.0</ele><time>2026-04-21T13:58:58Z</time></trkpt><trkpt lat="42.81622630355672" lon="10.428414892612833"><ele>10.5</ele><time>2026-04-21T13:58:59Z</time></trkpt><trkpt lat="42.816296702981134" lon="10.42847342678332"><ele>9.0</ele><time>2026-04-21T13:59:00Z</time></trkpt><trkpt lat="42.81637023663308" lon="10.42853401902306"><ele>7.5</ele><time>2026-04-21T13:59:01Z</time></trkpt><trkpt lat="42.816444156771375" lon="10.428602522535689"><ele>6.0</ele><time>2026-04-21T13:59:02Z</time></trkpt><trkpt lat="42.81652174727709" lon="10.428658186961128"><ele>6.0</ele><time>2026-04-21T13:59:03Z</time></trkpt><trkpt lat="42.81660761067013" lon="10.428715984601595"><ele>6.0</ele><time>2026-04-21T13:59:04Z</time></trkpt><trkpt lat="42.81669216003753" lon="10.428761860972052"><ele>6.0</ele><time>2026-04-21T13:59:05Z</time></trkpt><trkpt lat="42.81676938294546" lon="10.428795661851778"><ele>6.0</ele><time>2026-04-21T13:59:06Z</time></trkpt><trkpt lat="42.81685291516358" lon="10.428819304630114"><ele>6.0</ele><time>2026-04-21T13:59:07Z</time></trkpt><trkpt lat="42.816933775227554" lon="10.428828797950255"><ele>6.0</ele><time>2026-04-21T13:59:08Z</time></trkpt><trkpt lat="42.81702235999863" lon="10.428822149669061"><ele>5.5</ele><time>2026-04-21T13:59:09Z</time></trkpt><trkpt lat="42.81711224695473" lon="10.428808178657006"><ele>5.0</ele><time>2026-04-21T13:59:10Z</time></trkpt><trkpt lat="42.817194639910554" lon="10.42880738305157"><ele>4.5</ele><time>2026-04-21T13:59:11Z</time></trkpt><trkpt lat="42.81728084824183" lon="10.42880762192513"><ele>4.0</ele><time>2026-04-21T13:59:12Z</time></trkpt><trkpt lat="42.81735704759244" lon="10.428823544695963"><ele>3.5</ele><time>2026-04-21T13:59:13Z</time></trkpt><trkpt lat="42.81743995620152" lon="10.428843610161826"><ele>3.0</ele><time>2026-04-21T13:59:14Z</time></trkpt><trkpt lat="42.81752273965816" lon="10.428873191663067"><ele>2.9999999999999996</ele><time>2026-04-21T13:59:15Z</time></trkpt><trkpt lat="42.81759754982949" lon="10.428901140656022"><ele>3.0</ele><time>2026-04-21T13:59:16Z</time></trkpt><trkpt lat="42.817662855251484" lon="10.428932409077179"><ele>3.0</ele><time>2026-04-21T13:59:17Z</time></trkpt><trkpt lat="42.81772335032391" lon="10.428962049108648"><ele>3.0</ele><time>2026-04-21T13:59:18Z</time></trkpt><trkpt lat="42.81779049666578" lon="10.428998846058768"><ele>3.0</ele><time>2026-04-21T13:59:19Z</time></trkpt><trkpt lat="42.81786699923786" lon="10.429041394769659"><ele>2.9999999999999996</ele><time>2026-04-21T13:59:20Z</time></trkpt><trkpt lat="42.817939040376785" lon="10.42907789149869"><ele>3.0</ele><time>2026-04-21T13:59:21Z</time></trkpt><trkpt lat="42.8180162308845" lon="10.429113973190924"><ele>3.5</ele><time>2026-04-21T13:59:22Z</time></trkpt><trkpt lat="42.81809349797685" lon="10.429152963524501"><ele>4.0</ele><time>2026-04-21T13:59:23Z</time></trkpt><trkpt lat="42.81817960751874" lon="10.429193057267218"><ele>4.5</ele><time>2026-04-21T13:59:24Z</time></trkpt><trkpt lat="42.81826461822728" lon="10.429235348298175"><ele>5.0</ele><time>2026-04-21T13:59:25Z</time></trkpt><trkpt lat="42.81834721931768" lon="10.429280362827265"><ele>5.5</ele><time>2026-04-21T13:59:26Z</time></trkpt><trkpt lat="42.81841308423946" lon="10.429321847296537"><ele>6.0</ele><time>2026-04-21T13:59:27Z</time></trkpt><trkpt lat="42.81847459232803" lon="10.429365868574127"><ele>6.6</ele><time>2026-04-21T13:59:28Z</time></trkpt><trkpt lat="42.81854835824669" lon="10.429424904902536"><ele>7.199999999999999</ele><time>2026-04-21T13:59:30Z</time></trkpt><trkpt lat="42.81868829862182" lon="10.429452121666689"><ele>7.800000000000001</ele><time>2026-04-21T13:59:59Z</time></trkpt><trkpt lat="42.818812243880885" lon="10.429441740210624"><ele>8.4</ele><time>2026-04-21T14:00:01Z</time></trkpt><trkpt lat="42.81887282142123" lon="10.429414100356148"><ele>9.0</ele><time>2026-04-21T14:00:02Z</time></trkpt><trkpt lat="42.81894725115821" lon="10.429423581874639"><ele>9.0</ele><time>2026-04-21T14:00:03Z</time></trkpt><trkpt lat="42.819029038033605" lon="10.429441647603356"><ele>9.0</ele><time>2026-04-21T14:00:04Z</time></trkpt><trkpt lat="42.81911107281343" lon="10.42944991356579"><ele>9.0</ele><time>2026-04-21T14:00:05Z</time></trkpt><trkpt lat="42.819234007069454" lon="10.429471152144043"><ele>9.0</ele><time>2026-04-21T14:00:07Z</time></trkpt><trkpt lat="42.819352628218816" lon="10.429497922811793"><ele>9.0</ele><time>2026-04-21T14:00:09Z</time></trkpt><trkpt lat="42.81944846768716" lon="10.429572876788338"><ele>9.5</ele><time>2026-04-21T14:00:11Z</time></trkpt><trkpt lat="42.819530062205494" lon="10.429613341168228"><ele>10.0</ele><time>2026-04-21T14:00:13Z</time></trkpt><trkpt lat="42.8196027750773" lon="10.429641643246551"><ele>10.5</ele><time>2026-04-21T14:00:16Z</time></trkpt><trkpt lat="42.81966846671628" lon="10.429675069623434"><ele>11.0</ele><time>2026-04-21T14:00:18Z</time></trkpt><trkpt lat="42.81973200349175" lon="10.429721662368959"><ele>11.5</ele><time>2026-04-21T14:00:20Z</time></trkpt><trkpt lat="42.819800150508335" lon="10.429772921706368"><ele>12.0</ele><time>2026-04-21T14:00:22Z</time></trkpt><trkpt lat="42.819877913850334" lon="10.429832571767031"><ele>12.285714285714285</ele><time>2026-04-21T14:00:24Z</time></trkpt><trkpt lat="42.819966985450996" lon="10.42985807219362"><ele>12.571428571428571</ele><time>2026-04-21T14:00:26Z</time></trkpt><trkpt lat="42.82004112770616" lon="10.429898393400316"><ele>12.857142857142858</ele><time>2026-04-21T14:00:28Z</time></trkpt><trkpt lat="42.8201095001161" lon="10.429936787969856"><ele>13.142857142857142</ele><time>2026-04-21T14:00:30Z</time></trkpt><trkpt lat="42.82017116624521" lon="10.429971788578042"><ele>13.428571428571429</ele><time>2026-04-21T14:00:33Z</time></trkpt><trkpt lat="42.82023250343708" lon="10.430006602497482"><ele>13.714285714285714</ele><time>2026-04-21T14:01:04Z</time></trkpt><trkpt lat="42.82029123162942" lon="10.430040144865606"><ele>14.0</ele><time>2026-04-21T14:01:18Z</time></trkpt><trkpt lat="42.82022975927113" lon="10.430298837646577"><ele>14.0</ele><time>2026-04-21T14:01:28Z</time></trkpt></trkseg><trkseg><trkpt lat="42.8282541667233" lon="10.431925505826484"><ele>84.0</ele><time>2026-04-21T14:56:09Z</time></trkpt><trkpt lat="42.82828660845758" lon="10.432017848534267"><ele>84.0</ele><time>2026-04-21T14:56:31Z</time></trkpt><trkpt lat="42.82836500465846" lon="10.432104570765503"><ele>84.0</ele><time>2026-04-21T14:56:38Z</time></trkpt><trkpt lat="42.82845116844042" lon="10.432194789264534"><ele>84.0</ele><time>2026-04-21T14:56:40Z</time></trkpt><trkpt lat="42.82850884460779" lon="10.43223973100231"><ele>84.0</ele><time>2026-04-21T14:56:41Z</time></trkpt><trkpt lat="42.828570427469465" lon="10.432288686972752"><ele>84.0</ele><time>2026-04-21T14:56:42Z</time></trkpt><trkpt lat="42.828633598253425" lon="10.432334344319596"><ele>84.83333333333333</ele><time>2026-04-21T14:56:43Z</time></trkpt><trkpt lat="42.82869531702371" lon="10.432386503617627"><ele>85.66666666666667</ele><time>2026-04-21T14:56:44Z</time></trkpt><trkpt lat="42.82875428303371" lon="10.432437997473109"><ele>86.5</ele><time>2026-04-21T14:56:45Z</time></trkpt><trkpt lat="42.82881432637111" lon="10.432486542402845"><ele>87.33333333333334</ele><time>2026-04-21T14:56:46Z</time></trkpt><trkpt lat="42.82889209773651" lon="10.432567679849601"><ele>88.16666666666667</ele><time>2026-04-21T14:56:48Z</time></trkpt><trkpt lat="42.82894941498848" lon="10.43263387495443"><ele>89.0</ele><time>2026-04-21T14:56:52Z</time></trkpt><trkpt lat="42.82902451484718" lon="10.432661439683192"><ele>89.0</ele><time>2026-04-21T14:57:47Z</time></trkpt><trkpt lat="42.82909899769608" lon="10.432614305721353"><ele>89.0</ele><time>2026-04-21T14:57:50Z</time></trkpt><trkpt lat="42.829166569953394" lon="10.432612779504655"><ele>89.0</ele><time>2026-04-21T14:57:52Z</time></trkpt><trkpt lat="42.829251542907265" lon="10.432642263950303"><ele>89.0</ele><time>2026-04-21T14:57:54Z</time></trkpt><trkpt lat="42.829340621694506" lon="10.432691519431208"><ele>89.0</ele><time>2026-04-21T14:57:56Z</time></trkpt><trkpt lat="42.829430783859785" lon="10.432779141626934"><ele>89.0</ele><time>2026-04-21T14:57:58Z</time></trkpt><trkpt lat="42.82951582135076" lon="10.43291060045006"><ele>86.33333333333334</ele><time>2026-04-21T14:58:00Z</time></trkpt><trkpt lat="42.82955778326894" lon="10.432979265411362"><ele>83.66666666666667</ele><time>2026-04-21T14:58:01Z</time></trkpt><trkpt lat="42.82962240708519" lon="10.433095939630077"><ele>81.0</ele><time>2026-04-21T14:58:03Z</time></trkpt><trkpt lat="42.82967422393262" lon="10.43316027541627"><ele>78.33333333333333</ele><time>2026-04-21T14:58:05Z</time></trkpt><trkpt lat="42.829721441375234" lon="10.433238284988692"><ele>75.66666666666666</ele><time>2026-04-21T14:58:09Z</time></trkpt><trkpt lat="42.82975716966045" lon="10.433321133215498"><ele>73.0</ele><time>2026-04-21T14:58:12Z</time></trkpt><trkpt lat="42.82982480855984" lon="10.433319421788726"><ele>73.0</ele><time>2026-04-21T14:58:42Z</time></trkpt><trkpt lat="42.8297583032235" lon="10.433286298826069"><ele>73.0</ele><time>2026-04-21T15:03:13Z</time></trkpt><trkpt lat="42.82970390749112" lon="10.433233467914897"><ele>73.0</ele><time>2026-04-21T15:03:20Z</time></trkpt><trkpt lat="42.829661635410204" lon="10.433155051503304"><ele>73.0</ele><time>2026-04-21T15:03:27Z</time></trkpt><trkpt lat="42.82961734040316" lon="10.433084999641308"><ele>73.0</ele><time>2026-04-21T15:03:44Z</time></trkpt><trkpt lat="42.82957429453893" lon="10.43300795851567"><ele>73.0</ele><time>2026-04-21T15:03:57Z</time></trkpt><trkpt lat="42.82962535958907" lon="10.43308096656939"><ele>73.0</ele><time>2026-04-21T15:04:16Z</time></trkpt><trkpt lat="42.82968046915297" lon="10.433141082915695"><ele>73.0</ele><time>2026-04-21T15:04:22Z</time></trkpt><trkpt lat="42.82971427581562" lon="10.433213681329473"><ele>73.0</ele><time>2026-04-21T15:04:33Z</time></trkpt><trkpt lat="42.82975451779675" lon="10.43329021160663"><ele>73.0</ele><time>2026-04-21T15:04:40Z</time></trkpt><trkpt lat="42.82978548582019" lon="10.433392430775966"><ele>73.0</ele><time>2026-04-21T15:06:14Z</time></trkpt><trkpt lat="42.82977381445171" lon="10.433290395221723"><ele>73.0</ele><time>2026-04-21T15:07:03Z</time></trkpt><trkpt lat="42.82986480552104" lon="10.433216815057172"><ele>73.0</ele><time>2026-04-21T15:07:28Z</time></trkpt><trkpt lat="42.829954103301105" lon="10.433274377004095"><ele>73.0</ele><time>2026-04-21T15:07:30Z</time></trkpt><trkpt lat="42.830058437241135" lon="10.433295823844228"><ele>73.0</ele><time>2026-04-21T15:07:32Z</time></trkpt><trkpt lat="42.83016946224746" lon="10.433306203059484"><ele>73.0</ele><time>2026-04-21T15:07:34Z</time></trkpt><trkpt lat="42.83026983964937" lon="10.433361504363267"><ele>73.0</ele><time>2026-04-21T15:07:36Z</time></trkpt><trkpt lat="42.830355683711495" lon="10.433418958511417"><ele>73.0</ele><time>2026-04-21T15:07:38Z</time></trkpt><trkpt lat="42.830427068930305" lon="10.433461947826286"><ele>75.8</ele><time>2026-04-21T15:07:40Z</time></trkpt><trkpt lat="42.8305049429769" lon="10.433505688665763"><ele>78.6</ele><time>2026-04-21T15:07:42Z</time></trkpt><trkpt lat="42.83061395628054" lon="10.43353488294051"><ele>81.39999999999999</ele><time>2026-04-21T15:07:44Z</time></trkpt><trkpt lat="42.83074174625928" lon="10.433555540977807"><ele>84.19999999999999</ele><time>2026-04-21T15:07:46Z</time></trkpt><trkpt lat="42.830810399207266" lon="10.433558291636892"><ele>87.0</ele><time>2026-04-21T15:07:47Z</time></trkpt><trkpt lat="42.83088044074471" lon="10.433559568398527"><ele>87.0</ele><time>2026-04-21T15:07:48Z</time></trkpt><trkpt lat="42.830956958731036" lon="10.43356660800993"><ele>87.0</ele><time>2026-04-21T15:07:49Z</time></trkpt><trkpt lat="42.83102940128222" lon="10.4335848502459"><ele>87.0</ele><time>2026-04-21T15:07:50Z</time></trkpt><trkpt lat="42.831098914776966" lon="10.433599643574523"><ele>87.0</ele><time>2026-04-21T15:07:51Z</time></trkpt><trkpt lat="42.83116243687081" lon="10.433620871494409"><ele>87.0</ele><time>2026-04-21T15:07:52Z</time></trkpt><trkpt lat="42.83127944159836" lon="10.433681061187157"><ele>87.0</ele><time>2026-04-21T15:07:54Z</time></trkpt><trkpt lat="42.83134056713433" lon="10.433719261939704"><ele>86.14285714285714</ele><time>2026-04-21T15:07:55Z</time></trkpt><trkpt lat="42.83139749449153" lon="10.433763986396922"><ele>85.28571428571429</ele><time>2026-04-21T15:07:56Z</time></trkpt><trkpt lat="42.831455687798844" lon="10.433806182869692"><ele>84.42857142857143</ele><time>2026-04-21T15:07:57Z</time></trkpt><trkpt lat="42.83151509470611" lon="10.43384272310967"><ele>83.57142857142857</ele><time>2026-04-21T15:07:58Z</time></trkpt><trkpt lat="42.83157675046369" lon="10.433878290888947"><ele>82.71428571428571</ele><time>2026-04-21T15:07:59Z</time></trkpt><trkpt lat="42.83163919313894" lon="10.433897223490483"><ele>81.85714285714286</ele><time>2026-04-21T15:08:00Z</time></trkpt><trkpt lat="42.831703443620334" lon="10.433905807147799"><ele>81.0</ele><time>2026-04-21T15:08:01Z</time></trkpt><trkpt lat="42.83177269343676" lon="10.43391023106161"><ele>77.14285714285714</ele><time>2026-04-21T15:08:02Z</time></trkpt><trkpt lat="42.83184856857005" lon="10.433910214311627"><ele>73.28571428571428</ele><time>2026-04-21T15:08:03Z</time></trkpt><trkpt lat="42.83192036134429" lon="10.433905849626077"><ele>69.42857142857143</ele><time>2026-04-21T15:08:04Z</time></trkpt><trkpt lat="42.831998040904665" lon="10.43390632744106"><ele>65.57142857142857</ele><time>2026-04-21T15:08:05Z</time></trkpt><trkpt lat="42.83207437702741" lon="10.433905594920736"><ele>61.71428571428571</ele><time>2026-04-21T15:08:06Z</time></trkpt><trkpt lat="42.83214631140342" lon="10.433890708410514"><ele>57.857142857142854</ele><time>2026-04-21T15:08:07Z</time></trkpt><trkpt lat="42.83221696949109" lon="10.433862581938303"><ele>54.0</ele><time>2026-04-21T15:08:08Z</time></trkpt><trkpt lat="42.83228375438474" lon="10.433840994560352"><ele>54.0</ele><time>2026-04-21T15:08:09Z</time></trkpt><trkpt lat="42.8323457215842" lon="10.433811016326477"><ele>54.0</ele><time>2026-04-21T15:08:10Z</time></trkpt><trkpt lat="42.83240638769792" lon="10.433777778431388"><ele>54.0</ele><time>2026-04-21T15:08:11Z</time></trkpt><trkpt lat="42.83246793106995" lon="10.433727891105237"><ele>54.0</ele><time>2026-04-21T15:08:12Z</time></trkpt><trkpt lat="42.83253098926229" lon="10.433595481317386"><ele>54.0</ele><time>2026-04-21T15:08:14Z</time></trkpt><trkpt lat="42.83256095653551" lon="10.43351879752943"><ele>54.0</ele><time>2026-04-21T15:08:15Z</time></trkpt><trkpt lat="42.832583214670386" lon="10.433431025695693"><ele>55.42857142857143</ele><time>2026-04-21T15:08:16Z</time></trkpt><trkpt lat="42.832588275023056" lon="10.433337836470534"><ele>56.857142857142854</ele><time>2026-04-21T15:08:17Z</time></trkpt><trkpt lat="42.83258375684881" lon="10.433237219692467"><ele>58.285714285714285</ele><time>2026-04-21T15:08:18Z</time></trkpt><trkpt lat="42.83257133596044" lon="10.433139375244954"><ele>59.71428571428571</ele><time>2026-04-21T15:08:19Z</time></trkpt><trkpt lat="42.83255441764861" lon="10.433036990478342"><ele>61.14285714285714</ele><time>2026-04-21T15:08:20Z</time></trkpt><trkpt lat="42.832553942562534" lon="10.432936550123655"><ele>62.57142857142857</ele><time>2026-04-21T15:08:21Z</time></trkpt><trkpt lat="42.83252499303044" lon="10.432848739664864"><ele>64.0</ele><time>2026-04-21T15:08:22Z</time></trkpt><trkpt lat="42.83251559555149" lon="10.432753336199275"><ele>63.71428571428571</ele><time>2026-04-21T15:08:23Z</time></trkpt><trkpt lat="42.83251187403097" lon="10.432649677651911"><ele>63.42857142857142</ele><time>2026-04-21T15:08:24Z</time></trkpt><trkpt lat="42.83253620536237" lon="10.432536276405212"><ele>63.14285714285714</ele><time>2026-04-21T15:08:25Z</time></trkpt><trkpt lat="42.83257599084767" lon="10.432465620233902"><ele>62.85714285714286</ele><time>2026-04-21T15:08:26Z</time></trkpt><trkpt lat="42.83263213099545" lon="10.432402859856651"><ele>62.57142857142858</ele><time>2026-04-21T15:08:27Z</time></trkpt><trkpt lat="42.832698910479614" lon="10.432371767926641"><ele>62.28571428571429</ele><time>2026-04-21T15:08:28Z</time></trkpt><trkpt lat="42.83277515034381" lon="10.432363934185798"><ele>62.0</ele><time>2026-04-21T15:08:29Z</time></trkpt><trkpt lat="42.83285188709104" lon="10.43235851556215"><ele>62.00000000000001</ele><time>2026-04-21T15:08:30Z</time></trkpt><trkpt lat="42.83292161904544" lon="10.432360066270972"><ele>62.0</ele><time>2026-04-21T15:08:31Z</time></trkpt><trkpt lat="42.832996475544725" lon="10.432366085122021"><ele>62.0</ele><time>2026-04-21T15:08:32Z</time></trkpt><trkpt lat="42.83307409079279" lon="10.432372650103254"><ele>62.0</ele><time>2026-04-21T15:08:33Z</time></trkpt><trkpt lat="42.83315646297899" lon="10.43237071868121"><ele>62.00000000000001</ele><time>2026-04-21T15:08:34Z</time></trkpt><trkpt lat="42.8332339696738" lon="10.432385048584107"><ele>62.0</ele><time>2026-04-21T15:08:35Z</time></trkpt><trkpt lat="42.833304971764285" lon="10.432422955766913"><ele>62.0</ele><time>2026-04-21T15:08:36Z</time></trkpt><trkpt lat="42.83338399045453" lon="10.432493907794615"><ele>62.0</ele><time>2026-04-21T15:08:37Z</time></trkpt><trkpt lat="42.83346250238924" lon="10.43258188945199"><ele>62.0</ele><time>2026-04-21T15:08:38Z</time></trkpt><trkpt lat="42.83354381119938" lon="10.432675313798116"><ele>62.0</ele><time>2026-04-21T15:08:39Z</time></trkpt><trkpt lat="42.83363221292336" lon="10.432765778741437"><ele>62.0</ele><time>2026-04-21T15:08:40Z</time></trkpt><trkpt lat="42.83372346824466" lon="10.432854256489428"><ele>62.6</ele><time>2026-04-21T15:08:41Z</time></trkpt><trkpt lat="42.83381104176743" lon="10.432947027304522"><ele>63.2</ele><time>2026-04-21T15:08:42Z</time></trkpt><trkpt lat="42.83389270030293" lon="10.433043609532584"><ele>63.8</ele><time>2026-04-21T15:08:43Z</time></trkpt><trkpt lat="42.833973803601445" lon="10.433136407698774"><ele>64.4</ele><time>2026-04-21T15:08:44Z</time></trkpt><trkpt lat="42.834055991188" lon="10.433221207867954"><ele>65.0</ele><time>2026-04-21T15:08:45Z</time></trkpt><trkpt lat="42.83413570539064" lon="10.433302045871642"><ele>62.2</ele><time>2026-04-21T15:08:46Z</time></trkpt><trkpt lat="42.83421639001579" lon="10.43338212720331"><ele>59.4</ele><time>2026-04-21T15:08:47Z</time></trkpt><trkpt lat="42.834294871205515" lon="10.43346069298334"><ele>56.599999999999994</ele><time>2026-04-21T15:08:48Z</time></trkpt><trkpt lat="42.834371799038195" lon="10.433537589279085"><ele>53.8</ele><time>2026-04-21T15:08:49Z</time></trkpt><trkpt lat="42.83444814197172" lon="10.433617024068049"><ele>51.0</ele><time>2026-04-21T15:08:50Z</time></trkpt><trkpt lat="42.834526744583805" lon="10.433684564246875"><ele>51.0</ele><time>2026-04-21T15:08:51Z</time></trkpt><trkpt lat="42.83460976144987" lon="10.433732477130569"><ele>51.0</ele><time>2026-04-21T15:08:52Z</time></trkpt><trkpt lat="42.834711824637964" lon="10.43376003902071"><ele>51.0</ele><time>2026-04-21T15:08:53Z</time></trkpt><trkpt lat="42.83480545231674" lon="10.433775179472152"><ele>51.0</ele><time>2026-04-21T15:08:54Z</time></trkpt><trkpt lat="42.83489477438367" lon="10.433772626392642"><ele>51.0</ele><time>2026-04-21T15:08:55Z</time></trkpt><trkpt lat="42.834978270786124" lon="10.433783811294997"><ele>48.833333333333336</ele><time>2026-04-21T15:08:56Z</time></trkpt><trkpt lat="42.83505607131267" lon="10.43380925467395"><ele>46.666666666666664</ele><time>2026-04-21T15:08:57Z</time></trkpt><trkpt lat="42.835136602350744" lon="10.433834409429728"><ele>44.5</ele><time>2026-04-21T15:08:58Z</time></trkpt><trkpt lat="42.83521456061651" lon="10.433840861734257"><ele>42.33333333333333</ele><time>2026-04-21T15:08:59Z</time></trkpt><trkpt lat="42.83528742832113" lon="10.433872872541372"><ele>40.166666666666664</ele><time>2026-04-21T15:09:00Z</time></trkpt><trkpt lat="42.835353976957975" lon="10.433903774918006"><ele>38.0</ele><time>2026-04-21T15:09:01Z</time></trkpt><trkpt lat="42.83542801023369" lon="10.433925794090367"><ele>37.285714285714285</ele><time>2026-04-21T15:09:02Z</time></trkpt><trkpt lat="42.83549904018937" lon="10.433945506980576"><ele>36.57142857142858</ele><time>2026-04-21T15:09:03Z</time></trkpt><trkpt lat="42.83556728735988" lon="10.43396311864427"><ele>35.85714285714286</ele><time>2026-04-21T15:09:04Z</time></trkpt><trkpt lat="42.835634425597945" lon="10.433965998013822"><ele>35.14285714285714</ele><time>2026-04-21T15:09:05Z</time></trkpt><trkpt lat="42.835697919234704" lon="10.433965548685304"><ele>34.42857142857143</ele><time>2026-04-21T15:09:06Z</time></trkpt><trkpt lat="42.83576139602421" lon="10.433958580463564"><ele>33.714285714285715</ele><time>2026-04-21T15:09:07Z</time></trkpt><trkpt lat="42.83582953184028" lon="10.433968207687219"><ele>33.0</ele><time>2026-04-21T15:09:08Z</time></trkpt><trkpt lat="42.835894319374866" lon="10.433970129356908"><ele>33.0</ele><time>2026-04-21T15:09:09Z</time></trkpt><trkpt lat="42.83595788938545" lon="10.433972014915005"><ele>33.0</ele><time>2026-04-21T15:09:10Z</time></trkpt><trkpt lat="42.83602836696767" lon="10.433906015239192"><ele>33.0</ele><time>2026-04-21T15:09:11Z</time></trkpt><trkpt lat="42.836096383058106" lon="10.433884949770354"><ele>33.0</ele><time>2026-04-21T15:09:12Z</time></trkpt><trkpt lat="42.83616421470458" lon="10.433858033894271"><ele>33.0</ele><time>2026-04-21T15:09:13Z</time></trkpt><trkpt lat="42.83623414895641" lon="10.433825115682408"><ele>33.0</ele><time>2026-04-21T15:09:14Z</time></trkpt><trkpt lat="42.83630294016073" lon="10.433779379769703"><ele>33.0</ele><time>2026-04-21T15:09:15Z</time></trkpt><trkpt lat="42.83636583437674" lon="10.433712255635944"><ele>33.0</ele><time>2026-04-21T15:09:16Z</time></trkpt><trkpt lat="42.8364267600145" lon="10.433617221448923"><ele>33.0</ele><time>2026-04-21T15:09:17Z</time></trkpt><trkpt lat="42.83648890245031" lon="10.433529896789917"><ele>33.0</ele><time>2026-04-21T15:09:18Z</time></trkpt><trkpt lat="42.83654780812397" lon="10.433429511966635"><ele>33.0</ele><time>2026-04-21T15:09:19Z</time></trkpt><trkpt lat="42.83660713924071" lon="10.433335275938147"><ele>33.0</ele><time>2026-04-21T15:09:20Z</time></trkpt><trkpt lat="42.83666852123946" lon="10.433245522096591"><ele>33.0</ele><time>2026-04-21T15:09:21Z</time></trkpt><trkpt lat="42.836722677234306" lon="10.433156090814473"><ele>33.0</ele><time>2026-04-21T15:09:22Z</time></trkpt><trkpt lat="42.83675951209574" lon="10.433053539744057"><ele>33.0</ele><time>2026-04-21T15:09:23Z</time></trkpt><trkpt lat="42.836788703913626" lon="10.432948661356187"><ele>33.0</ele><time>2026-04-21T15:09:24Z</time></trkpt><trkpt lat="42.83681119281181" lon="10.432836061038044"><ele>33.0</ele><time>2026-04-21T15:09:25Z</time></trkpt><trkpt lat="42.83682973943528" lon="10.432728262741078"><ele>33.0</ele><time>2026-04-21T15:09:26Z</time></trkpt><trkpt lat="42.8368536633585" lon="10.43262572798465"><ele>33.857142857142854</ele><time>2026-04-21T15:09:27Z</time></trkpt><trkpt lat="42.83687760041282" lon="10.432528945855708"><ele>34.714285714285715</ele><time>2026-04-21T15:09:28Z</time></trkpt><trkpt lat="42.83691944226098" lon="10.432443829919844"><ele>35.57142857142857</ele><time>2026-04-21T15:09:29Z</time></trkpt><trkpt lat="42.83698027532999" lon="10.43239286571847"><ele>36.42857142857143</ele><time>2026-04-21T15:09:30Z</time></trkpt><trkpt lat="42.837044441299085" lon="10.432378598667567"><ele>37.285714285714285</ele><time>2026-04-21T15:09:31Z</time></trkpt><trkpt lat="42.837113878169234" lon="10.432396346155377"><ele>38.142857142857146</ele><time>2026-04-21T15:09:32Z</time></trkpt><trkpt lat="42.83717501311229" lon="10.432450994344624"><ele>39.0</ele><time>2026-04-21T15:09:33Z</time></trkpt><trkpt lat="42.837216866838645" lon="10.43252890575439"><ele>39.0</ele><time>2026-04-21T15:09:34Z</time></trkpt><trkpt lat="42.83723756003377" lon="10.432620899401849"><ele>39.0</ele><time>2026-04-21T15:09:35Z</time></trkpt><trkpt lat="42.83724079858981" lon="10.432719625391211"><ele>39.0</ele><time>2026-04-21T15:09:36Z</time></trkpt><trkpt lat="42.83723965849614" lon="10.432824563810009"><ele>39.0</ele><time>2026-04-21T15:09:37Z</time></trkpt><trkpt lat="42.837242619041625" lon="10.432931349064159"><ele>39.0</ele><time>2026-04-21T15:09:38Z</time></trkpt><trkpt lat="42.83724411015595" lon="10.433042080832962"><ele>39.0</ele><time>2026-04-21T15:09:39Z</time></trkpt><trkpt lat="42.8372459707484" lon="10.43315934492682"><ele>38.0</ele><time>2026-04-21T15:09:40Z</time></trkpt><trkpt lat="42.83725059391277" lon="10.433284090736047"><ele>37.0</ele><time>2026-04-21T15:09:41Z</time></trkpt><trkpt lat="42.83725273501125" lon="10.433412277141699"><ele>36.0</ele><time>2026-04-21T15:09:42Z</time></trkpt><trkpt lat="42.837254079825456" lon="10.43354317623478"><ele>35.0</ele><time>2026-04-21T15:09:43Z</time></trkpt><trkpt lat="42.83725314700532" lon="10.433676328215158"><ele>34.0</ele><time>2026-04-21T15:09:44Z</time></trkpt><trkpt lat="42.83725482897163" lon="10.433803774249837"><ele>33.333333333333336</ele><time>2026-04-21T15:09:45Z</time></trkpt><trkpt lat="42.83725658350003" lon="10.43392767488508"><ele>32.66666666666667</ele><time>2026-04-21T15:09:46Z</time></trkpt><trkpt lat="42.83725441404097" lon="10.434046664047932"><ele>32.0</ele><time>2026-04-21T15:09:47Z</time></trkpt><trkpt lat="42.83725162084059" lon="10.434161377353401"><ele>31.333333333333336</ele><time>2026-04-21T15:09:48Z</time></trkpt><trkpt lat="42.837248482387984" lon="10.43427298593815"><ele>30.666666666666668</ele><time>2026-04-21T15:09:49Z</time></trkpt><trkpt lat="42.83724523039085" lon="10.43438241864226"><ele>30.0</ele><time>2026-04-21T15:09:50Z</time></trkpt><trkpt lat="42.8372432541835" lon="10.434495732225248"><ele>30.0</ele><time>2026-04-21T15:09:51Z</time></trkpt><trkpt lat="42.83723957446661" lon="10.434608446744699"><ele>30.0</ele><time>2026-04-21T15:09:52Z</time></trkpt><trkpt lat="42.837231660470145" lon="10.434719876275492"><ele>30.0</ele><time>2026-04-21T15:09:53Z</time></trkpt><trkpt lat="42.837209974522565" lon="10.43482862225244"><ele>30.0</ele><time>2026-04-21T15:09:54Z</time></trkpt><trkpt lat="42.83717409671658" lon="10.434927184764621"><ele>30.0</ele><time>2026-04-21T15:09:55Z</time></trkpt><trkpt lat="42.83713085383926" lon="10.435014728145626"><ele>30.0</ele><time>2026-04-21T15:09:56Z</time></trkpt><trkpt lat="42.83708529187846" lon="10.435095315281893"><ele>31.333333333333332</ele><time>2026-04-21T15:09:57Z</time></trkpt><trkpt lat="42.83704285232263" lon="10.435171239005172"><ele>32.666666666666664</ele><time>2026-04-21T15:09:58Z</time></trkpt><trkpt lat="42.83699845891313" lon="10.435249930277177"><ele>34.0</ele><time>2026-04-21T15:09:59Z</time></trkpt><trkpt lat="42.83695175817884" lon="10.435333449083595"><ele>35.33333333333333</ele><time>2026-04-21T15:10:00Z</time></trkpt><trkpt lat="42.8369033852559" lon="10.435420132596418"><ele>36.666666666666664</ele><time>2026-04-21T15:10:01Z</time></trkpt><trkpt lat="42.83685455784028" lon="10.435509017336878"><ele>38.0</ele><time>2026-04-21T15:10:02Z</time></trkpt><trkpt lat="42.83680704542318" lon="10.435601927052824"><ele>36.166666666666664</ele><time>2026-04-21T15:10:03Z</time></trkpt><trkpt lat="42.83676253395045" lon="10.435701512671118"><ele>34.33333333333333</ele><time>2026-04-21T15:10:04Z</time></trkpt><trkpt lat="42.83672971076342" lon="10.435807139883039"><ele>32.5</ele><time>2026-04-21T15:10:05Z</time></trkpt><trkpt lat="42.83670164284948" lon="10.43591680998436"><ele>30.666666666666664</ele><time>2026-04-21T15:10:06Z</time></trkpt><trkpt lat="42.836683242955516" lon="10.436029437770541"><ele>28.833333333333332</ele><time>2026-04-21T15:10:07Z</time></trkpt><trkpt lat="42.83667238131935" lon="10.436139016861276"><ele>27.0</ele><time>2026-04-21T15:10:08Z</time></trkpt><trkpt lat="42.836667391703934" lon="10.436246630292871"><ele>27.166666666666668</ele><time>2026-04-21T15:10:09Z</time></trkpt><trkpt lat="42.8366704209126" lon="10.436350976044668"><ele>27.333333333333336</ele><time>2026-04-21T15:10:10Z</time></trkpt><trkpt lat="42.8366799830727" lon="10.436452804698249"><ele>27.5</ele><time>2026-04-21T15:10:11Z</time></trkpt><trkpt lat="42.83669445958331" lon="10.43654610967577"><ele>27.666666666666668</ele><time>2026-04-21T15:10:12Z</time></trkpt><trkpt lat="42.836751626014355" lon="10.436657153942157"><ele>27.833333333333336</ele><time>2026-04-21T15:10:14Z</time></trkpt><trkpt lat="42.836853361963506" lon="10.436678306971004"><ele>28.0</ele><time>2026-04-21T15:10:16Z</time></trkpt><trkpt lat="42.83692237990842" lon="10.436550929483069"><ele>31.42857142857143</ele><time>2026-04-21T15:10:18Z</time></trkpt><trkpt lat="42.8369288250625" lon="10.436453811454742"><ele>34.85714285714286</ele><time>2026-04-21T15:10:19Z</time></trkpt><trkpt lat="42.83693374364506" lon="10.4363545072852"><ele>38.285714285714285</ele><time>2026-04-21T15:10:20Z</time></trkpt><trkpt lat="42.83694734068606" lon="10.436257970658417"><ele>41.714285714285715</ele><time>2026-04-21T15:10:21Z</time></trkpt><trkpt lat="42.83696840961063" lon="10.436161483460745"><ele>45.142857142857146</ele><time>2026-04-21T15:10:22Z</time></trkpt><trkpt lat="42.83699409538663" lon="10.436061706881041"><ele>48.57142857142857</ele><time>2026-04-21T15:10:23Z</time></trkpt><trkpt lat="42.83701998599478" lon="10.435965129835445"><ele>52.0</ele><time>2026-04-21T15:10:24Z</time></trkpt><trkpt lat="42.8370558336422" lon="10.435888588547174"><ele>51.99999999999999</ele><time>2026-04-21T15:10:25Z</time></trkpt><trkpt lat="42.83712777593409" lon="10.4358483495428"><ele>52.0</ele><time>2026-04-21T15:10:27Z</time></trkpt><trkpt lat="42.837196221871004" lon="10.43592357273107"><ele>52.0</ele><time>2026-04-21T15:10:29Z</time></trkpt><trkpt lat="42.83717371703921" lon="10.436081868430703"><ele>52.0</ele><time>2026-04-21T15:10:31Z</time></trkpt><trkpt lat="42.83713555149974" lon="10.436160976559865"><ele>51.99999999999999</ele><time>2026-04-21T15:10:32Z</time></trkpt><trkpt lat="42.837100197911056" lon="10.436250871251682"><ele>52.0</ele><time>2026-04-21T15:10:33Z</time></trkpt><trkpt lat="42.83707194790783" lon="10.436346205627896"><ele>52.42857142857142</ele><time>2026-04-21T15:10:34Z</time></trkpt><trkpt lat="42.83705097182768" lon="10.436429530232122"><ele>52.85714285714286</ele><time>2026-04-21T15:10:35Z</time></trkpt><trkpt lat="42.83703367964331" lon="10.436513979931055"><ele>53.285714285714285</ele><time>2026-04-21T15:10:36Z</time></trkpt><trkpt lat="42.83702744882855" lon="10.436600501565906"><ele>53.71428571428571</ele><time>2026-04-21T15:10:37Z</time></trkpt><trkpt lat="42.837039081608374" lon="10.436694919706918"><ele>54.14285714285714</ele><time>2026-04-21T15:10:38Z</time></trkpt><trkpt lat="42.837069952237734" lon="10.436792002297599"><ele>54.57142857142857</ele><time>2026-04-21T15:10:39Z</time></trkpt><trkpt lat="42.837122338597624" lon="10.436881273574615"><ele>55.0</ele><time>2026-04-21T15:10:40Z</time></trkpt><trkpt lat="42.837191480336465" lon="10.436955769246797"><ele>55.0</ele><time>2026-04-21T15:10:41Z</time></trkpt><trkpt lat="42.83726707801826" lon="10.437029974584307"><ele>55.0</ele><time>2026-04-21T15:10:42Z</time></trkpt><trkpt lat="42.83733547081587" lon="10.437113225432508"><ele>55.0</ele><time>2026-04-21T15:10:43Z</time></trkpt><trkpt lat="42.83739260804617" lon="10.437214435402188"><ele>55.0</ele><time>2026-04-21T15:10:44Z</time></trkpt><trkpt lat="42.83744033116317" lon="10.437327375697913"><ele>55.0</ele><time>2026-04-21T15:10:45Z</time></trkpt><trkpt lat="42.83748526166522" lon="10.437443238891918"><ele>52.666666666666664</ele><time>2026-04-21T15:10:46Z</time></trkpt><trkpt lat="42.837537515168364" lon="10.437552232280984"><ele>50.33333333333333</ele><time>2026-04-21T15:10:47Z</time></trkpt><trkpt lat="42.837598291566785" lon="10.437647078311773"><ele>48.0</ele><time>2026-04-21T15:10:48Z</time></trkpt><trkpt lat="42.8376611817518" lon="10.437720902760567"><ele>45.666666666666664</ele><time>2026-04-21T15:10:49Z</time></trkpt><trkpt lat="42.837723778937516" lon="10.437788159492086"><ele>43.33333333333333</ele><time>2026-04-21T15:10:50Z</time></trkpt><trkpt lat="42.83778683026044" lon="10.437850531196228"><ele>41.0</ele><time>2026-04-21T15:10:51Z</time></trkpt><trkpt lat="42.8378558393614" lon="10.437899649599578"><ele>40.666666666666664</ele><time>2026-04-21T15:10:52Z</time></trkpt><trkpt lat="42.83793034659357" lon="10.43792894907219"><ele>40.33333333333333</ele><time>2026-04-21T15:10:53Z</time></trkpt><trkpt lat="42.83800649521903" lon="10.437947873360354"><ele>40.0</ele><time>2026-04-21T15:10:54Z</time></trkpt><trkpt lat="42.8380798964257" lon="10.43796756577373"><ele>39.666666666666664</ele><time>2026-04-21T15:10:55Z</time></trkpt><trkpt lat="42.83815351447199" lon="10.437990619290966"><ele>39.333333333333336</ele><time>2026-04-21T15:10:56Z</time></trkpt><trkpt lat="42.838220878986064" lon="10.438034051992496"><ele>39.0</ele><time>2026-04-21T15:10:57Z</time></trkpt><trkpt lat="42.838281004938445" lon="10.438095908613823"><ele>39.0</ele><time>2026-04-21T15:10:58Z</time></trkpt><trkpt lat="42.83833835850479" lon="10.43816442530318"><ele>39.0</ele><time>2026-04-21T15:10:59Z</time></trkpt><trkpt lat="42.838390764808544" lon="10.438236922884283"><ele>39.0</ele><time>2026-04-21T15:11:00Z</time></trkpt><trkpt lat="42.83843936266541" lon="10.438311416162623"><ele>39.0</ele><time>2026-04-21T15:11:01Z</time></trkpt><trkpt lat="42.83849291534165" lon="10.438380013626778"><ele>39.0</ele><time>2026-04-21T15:11:02Z</time></trkpt><trkpt lat="42.83855223163007" lon="10.438436561663039"><ele>39.0</ele><time>2026-04-21T15:11:03Z</time></trkpt><trkpt lat="42.83862104335284" lon="10.43848394298938"><ele>39.0</ele><time>2026-04-21T15:11:04Z</time></trkpt><trkpt lat="42.838695595109755" lon="10.438521698213949"><ele>40.666666666666664</ele><time>2026-04-21T15:11:05Z</time></trkpt><trkpt lat="42.8387734606979" lon="10.438551051385527"><ele>42.33333333333333</ele><time>2026-04-21T15:11:06Z</time></trkpt><trkpt lat="42.838853635607926" lon="10.438578563351648"><ele>44.0</ele><time>2026-04-21T15:11:07Z</time></trkpt><trkpt lat="42.83892884243828" lon="10.43860357249337"><ele>45.666666666666664</ele><time>2026-04-21T15:11:08Z</time></trkpt><trkpt lat="42.83899115684727" lon="10.438631489295558"><ele>47.33333333333333</ele><time>2026-04-21T15:11:09Z</time></trkpt><trkpt lat="42.839066527203805" lon="10.438686551375412"><ele>49.0</ele><time>2026-04-21T15:11:11Z</time></trkpt><trkpt lat="42.83912523924884" lon="10.43872712237426"><ele>49.0</ele><time>2026-04-21T15:11:21Z</time></trkpt><trkpt lat="42.839231940185684" lon="10.438690612064411"><ele>49.0</ele><time>2026-04-21T15:13:26Z</time></trkpt><trkpt lat="42.839339153872444" lon="10.43867687828725"><ele>49.0</ele><time>2026-04-21T15:13:28Z</time></trkpt><trkpt lat="42.83945406398737" lon="10.438678202838823"><ele>49.0</ele><time>2026-04-21T15:13:30Z</time></trkpt><trkpt lat="42.83951915891423" lon="10.438681483210551"><ele>49.0</ele><time>2026-04-21T15:13:31Z</time></trkpt><trkpt lat="42.83963108562347" lon="10.43869268657644"><ele>49.2</ele><time>2026-04-21T15:13:33Z</time></trkpt><trkpt lat="42.839729385673984" lon="10.438701268612652"><ele>49.400000000000006</ele><time>2026-04-21T15:13:35Z</time></trkpt><trkpt lat="42.83983173744764" lon="10.438725750242204"><ele>49.6</ele><time>2026-04-21T15:13:37Z</time></trkpt><trkpt lat="42.83993536515651" lon="10.43879965657053"><ele>49.8</ele><time>2026-04-21T15:13:39Z</time></trkpt><trkpt lat="42.84003680670911" lon="10.438893117091897"><ele>50.0</ele><time>2026-04-21T15:13:41Z</time></trkpt><trkpt lat="42.8400965425041" lon="10.438937324684"><ele>46.833333333333336</ele><time>2026-04-21T15:13:42Z</time></trkpt><trkpt lat="42.84016148523769" lon="10.438982102999434"><ele>43.66666666666667</ele><time>2026-04-21T15:13:43Z</time></trkpt><trkpt lat="42.8402323159025" lon="10.439009251122132"><ele>40.5</ele><time>2026-04-21T15:13:44Z</time></trkpt><trkpt lat="42.84030756368151" lon="10.439030539709748"><ele>37.333333333333336</ele><time>2026-04-21T15:13:45Z</time></trkpt><trkpt lat="42.84039180183701" lon="10.439055226858187"><ele>34.16666666666667</ele><time>2026-04-21T15:13:46Z</time></trkpt><trkpt lat="42.84047912268955" lon="10.4390658474741"><ele>31.0</ele><time>2026-04-21T15:13:47Z</time></trkpt><trkpt lat="42.84056786536173" lon="10.439073733370092"><ele>31.0</ele><time>2026-04-21T15:13:48Z</time></trkpt><trkpt lat="42.84066004609345" lon="10.439079739285303"><ele>31.0</ele><time>2026-04-21T15:13:49Z</time></trkpt><trkpt lat="42.84075321776712" lon="10.439083406762958"><ele>31.0</ele><time>2026-04-21T15:13:50Z</time></trkpt><trkpt lat="42.84084685691846" lon="10.43908728749238"><ele>31.0</ele><time>2026-04-21T15:13:51Z</time></trkpt><trkpt lat="42.84094174280773" lon="10.43909448712358"><ele>31.0</ele><time>2026-04-21T15:13:52Z</time></trkpt><trkpt lat="42.84103784061395" lon="10.439103974258456"><ele>31.8</ele><time>2026-04-21T15:13:53Z</time></trkpt><trkpt lat="42.84113304516263" lon="10.439110023848315"><ele>32.6</ele><time>2026-04-21T15:13:54Z</time></trkpt><trkpt lat="42.84122683631139" lon="10.439114122308242"><ele>33.4</ele><time>2026-04-21T15:13:55Z</time></trkpt><trkpt lat="42.84132125544547" lon="10.439116822567149"><ele>34.2</ele><time>2026-04-21T15:13:56Z</time></trkpt><trkpt lat="42.84141092739448" lon="10.439119882721963"><ele>35.0</ele><time>2026-04-21T15:13:57Z</time></trkpt><trkpt lat="42.841497168518465" lon="10.439128047365179"><ele>35.0</ele><time>2026-04-21T15:13:58Z</time></trkpt><trkpt lat="42.841579286830424" lon="10.439135218398244"><ele>35.0</ele><time>2026-04-21T15:13:59Z</time></trkpt><trkpt lat="42.8416638051178" lon="10.439141701008262"><ele>35.0</ele><time>2026-04-21T15:14:00Z</time></trkpt><trkpt lat="42.84175049502532" lon="10.439143360449485"><ele>35.0</ele><time>2026-04-21T15:14:01Z</time></trkpt><trkpt lat="42.84183976221027" lon="10.43914193376513"><ele>35.0</ele><time>2026-04-21T15:14:02Z</time></trkpt><trkpt lat="42.84193189002875" lon="10.439143157383707"><ele>35.0</ele><time>2026-04-21T15:14:03Z</time></trkpt><trkpt lat="42.84202268383752" lon="10.439147636597205"><ele>35.6</ele><time>2026-04-21T15:14:04Z</time></trkpt><trkpt lat="42.84211762660624" lon="10.439153614243804"><ele>36.2</ele><time>2026-04-21T15:14:05Z</time></trkpt><trkpt lat="42.84221364328661" lon="10.439158141932314"><ele>36.8</ele><time>2026-04-21T15:14:06Z</time></trkpt><trkpt lat="42.842314942632285" lon="10.439170383201052"><ele>37.4</ele><time>2026-04-21T15:14:07Z</time></trkpt><trkpt lat="42.84241509744312" lon="10.439189031740835"><ele>38.0</ele><time>2026-04-21T15:14:08Z</time></trkpt><trkpt lat="42.84251613446992" lon="10.439211742058713"><ele>38.0</ele><time>2026-04-21T15:14:09Z</time></trkpt><trkpt lat="42.842612318484434" lon="10.439238988618381"><ele>38.0</ele><time>2026-04-21T15:14:10Z</time></trkpt><trkpt lat="42.84270575142212" lon="10.439270622030131"><ele>38.0</ele><time>2026-04-21T15:14:11Z</time></trkpt><trkpt lat="42.842800173822255" lon="10.439294847728384"><ele>38.0</ele><time>2026-04-21T15:14:12Z</time></trkpt><trkpt lat="42.842890206819014" lon="10.439314440569218"><ele>38.0</ele><time>2026-04-21T15:14:13Z</time></trkpt><trkpt lat="42.842986618681074" lon="10.439319011076051"><ele>37.83333333333333</ele><time>2026-04-21T15:14:14Z</time></trkpt><trkpt lat="42.84308215322903" lon="10.439309928341483"><ele>37.666666666666664</ele><time>2026-04-21T15:14:15Z</time></trkpt><trkpt lat="42.84317034181536" lon="10.439303861254771"><ele>37.5</ele><time>2026-04-21T15:14:16Z</time></trkpt><trkpt lat="42.84325130287711" lon="10.439298551883539"><ele>37.333333333333336</ele><time>2026-04-21T15:14:17Z</time></trkpt><trkpt lat="42.84333210652812" lon="10.439291319213304"><ele>37.16666666666667</ele><time>2026-04-21T15:14:18Z</time></trkpt><trkpt lat="42.84340765564438" lon="10.439285304532175"><ele>37.0</ele><time>2026-04-21T15:14:19Z</time></trkpt><trkpt lat="42.84349027462666" lon="10.439298218588664"><ele>36.5</ele><time>2026-04-21T15:14:20Z</time></trkpt><trkpt lat="42.843569417271546" lon="10.439333864064938"><ele>36.0</ele><time>2026-04-21T15:14:21Z</time></trkpt><trkpt lat="42.84364171606595" lon="10.439388739855167"><ele>35.5</ele><time>2026-04-21T15:14:22Z</time></trkpt><trkpt lat="42.843711501319355" lon="10.439455614106157"><ele>35.0</ele><time>2026-04-21T15:14:23Z</time></trkpt><trkpt lat="42.843774687894914" lon="10.439534858343814"><ele>34.5</ele><time>2026-04-21T15:14:24Z</time></trkpt><trkpt lat="42.843833841405406" lon="10.439609447544743"><ele>34.0</ele><time>2026-04-21T15:14:25Z</time></trkpt><trkpt lat="42.843895302739384" lon="10.439676057798673"><ele>34.0</ele><time>2026-04-21T15:14:26Z</time></trkpt><trkpt lat="42.84395958207455" lon="10.439741321902916"><ele>34.0</ele><time>2026-04-21T15:14:27Z</time></trkpt><trkpt lat="42.84402624802606" lon="10.43979938134849"><ele>34.0</ele><time>2026-04-21T15:14:28Z</time></trkpt><trkpt lat="42.84409945921297" lon="10.439840926171533"><ele>34.0</ele><time>2026-04-21T15:14:29Z</time></trkpt><trkpt lat="42.84416744401071" lon="10.439863549169504"><ele>34.0</ele><time>2026-04-21T15:14:30Z</time></trkpt><trkpt lat="42.844274283116256" lon="10.439894960048097"><ele>34.0</ele><time>2026-04-21T15:14:32Z</time></trkpt><trkpt lat="42.84434288363088" lon="10.439926344362851"><ele>34.66666666666667</ele><time>2026-04-21T15:14:35Z</time></trkpt><trkpt lat="42.84441744942217" lon="10.4399725775618"><ele>35.333333333333336</ele><time>2026-04-21T15:14:46Z</time></trkpt><trkpt lat="42.844489627772006" lon="10.440010507648367"><ele>36.0</ele><time>2026-04-21T15:14:48Z</time></trkpt><trkpt lat="42.84455904439191" lon="10.440046863822577"><ele>36.666666666666664</ele><time>2026-04-21T15:14:50Z</time></trkpt><trkpt lat="42.84463063225651" lon="10.440073724016601"><ele>37.33333333333333</ele><time>2026-04-21T15:14:52Z</time></trkpt><trkpt lat="42.84470373356807" lon="10.440138998699826"><ele>38.0</ele><time>2026-04-21T15:14:55Z</time></trkpt><trkpt lat="42.84469714781097" lon="10.44026046063915"><ele>38.0</ele><time>2026-04-21T15:14:58Z</time></trkpt><trkpt lat="42.84461855646555" lon="10.44031122084128"><ele>38.0</ele><time>2026-04-21T15:15:01Z</time></trkpt><trkpt lat="42.84453347588" lon="10.440314916436481"><ele>38.0</ele><time>2026-04-21T15:15:05Z</time></trkpt><trkpt lat="42.84445002311403" lon="10.440308766219704"><ele>38.0</ele><time>2026-04-21T15:15:08Z</time></trkpt><trkpt lat="42.844365697616546" lon="10.440282500875524"><ele>38.0</ele><time>2026-04-21T15:15:11Z</time></trkpt><trkpt lat="42.84429146689432" lon="10.440244923339066"><ele>38.0</ele><time>2026-04-21T15:15:14Z</time></trkpt><trkpt lat="42.84421178527622" lon="10.440212053735314"><ele>37.33333333333333</ele><time>2026-04-21T15:15:18Z</time></trkpt><trkpt lat="42.844136310424055" lon="10.440204522314154"><ele>36.666666666666664</ele><time>2026-04-21T15:15:22Z</time></trkpt><trkpt lat="42.84406586547237" lon="10.440208526908602"><ele>36.0</ele><time>2026-04-21T15:15:26Z</time></trkpt><trkpt lat="42.84398779501089" lon="10.440232785459235"><ele>35.333333333333336</ele><time>2026-04-21T15:15:31Z</time></trkpt><trkpt lat="42.843911651731695" lon="10.440279738872421"><ele>34.66666666666667</ele><time>2026-04-21T15:15:34Z</time></trkpt><trkpt lat="42.84382969344158" lon="10.440317658383712"><ele>34.0</ele><time>2026-04-21T15:15:37Z</time></trkpt><trkpt lat="42.84376312546432" lon="10.440353648815655"><ele>34.0</ele><time>2026-04-21T15:15:40Z</time></trkpt><trkpt lat="42.84368406939204" lon="10.44038901549668"><ele>34.0</ele><time>2026-04-21T15:15:43Z</time></trkpt><trkpt lat="42.84361715744005" lon="10.440421881867564"><ele>34.0</ele><time>2026-04-21T15:15:46Z</time></trkpt><trkpt lat="42.84355262258801" lon="10.440435433285325"><ele>34.0</ele><time>2026-04-21T15:15:49Z</time></trkpt><trkpt lat="42.84348381455482" lon="10.440432274984943"><ele>34.0</ele><time>2026-04-21T15:15:52Z</time></trkpt><trkpt lat="42.84339094351367" lon="10.440421181630315"><ele>34.0</ele><time>2026-04-21T15:15:55Z</time></trkpt><trkpt lat="42.84332160382101" lon="10.440408607830877"><ele>33.285714285714285</ele><time>2026-04-21T15:15:57Z</time></trkpt><trkpt lat="42.84325528732066" lon="10.440376206279316"><ele>32.57142857142857</ele><time>2026-04-21T15:15:59Z</time></trkpt><trkpt lat="42.84318787091233" lon="10.440330163200354"><ele>31.857142857142858</ele><time>2026-04-21T15:16:01Z</time></trkpt><trkpt lat="42.843126532498225" lon="10.440291828265192"><ele>31.142857142857142</ele><time>2026-04-21T15:16:03Z</time></trkpt><trkpt lat="42.84305231520114" lon="10.440250748553712"><ele>30.42857142857143</ele><time>2026-04-21T15:16:06Z</time></trkpt><trkpt lat="42.842970365787124" lon="10.440206040908066"><ele>29.71428571428572</ele><time>2026-04-21T15:16:09Z</time></trkpt><trkpt lat="42.84290744989767" lon="10.440191604178064"><ele>29.000000000000004</ele><time>2026-04-21T15:16:11Z</time></trkpt><trkpt lat="42.84284137599065" lon="10.440176851800626"><ele>28.999999999999996</ele><time>2026-04-21T15:16:13Z</time></trkpt><trkpt lat="42.84276316059709" lon="10.440157502941933"><ele>29.0</ele><time>2026-04-21T15:16:15Z</time></trkpt><trkpt lat="42.8426876016541" lon="10.440134979368754"><ele>29.0</ele><time>2026-04-21T15:16:17Z</time></trkpt><trkpt lat="42.842611772526304" lon="10.440104982006407"><ele>29.0</ele><time>2026-04-21T15:16:19Z</time></trkpt><trkpt lat="42.84252901212587" lon="10.440080233943466"><ele>28.999999999999996</ele><time>2026-04-21T15:16:21Z</time></trkpt><trkpt lat="42.84245946202867" lon="10.440068437918365"><ele>29.0</ele><time>2026-04-21T15:16:23Z</time></trkpt><trkpt lat="42.84238819257926" lon="10.440058422009415"><ele>27.999999999999996</ele><time>2026-04-21T15:16:25Z</time></trkpt><trkpt lat="42.842300503207184" lon="10.44006059476985"><ele>27.0</ele><time>2026-04-21T15:16:28Z</time></trkpt><trkpt lat="42.8422219073279" lon="10.440061772154307"><ele>26.0</ele><time>2026-04-21T15:16:31Z</time></trkpt><trkpt lat="42.84213422016744" lon="10.440032693974157"><ele>25.0</ele><time>2026-04-21T15:16:34Z</time></trkpt><trkpt lat="42.842053725735575" lon="10.440015814609298"><ele>24.0</ele><time>2026-04-21T15:16:37Z</time></trkpt><trkpt lat="42.841989635033066" lon="10.440090475418371"><ele>23.0</ele><time>2026-04-21T15:16:41Z</time></trkpt><trkpt lat="42.84200066430733" lon="10.440182218675924"><ele>23.0</ele><time>2026-04-21T15:16:46Z</time></trkpt><trkpt lat="42.842062941506" lon="10.44022873720244"><ele>23.0</ele><time>2026-04-21T15:17:21Z</time></trkpt><trkpt lat="42.84212939954249" lon="10.44028240738602"><ele>23.0</ele><time>2026-04-21T15:17:24Z</time></trkpt><trkpt lat="42.842176922790536" lon="10.440340399798242"><ele>23.0</ele><time>2026-04-21T15:17:26Z</time></trkpt><trkpt lat="42.84226694863079" lon="10.440377000548393"><ele>23.0</ele><time>2026-04-21T15:17:29Z</time></trkpt><trkpt lat="42.84233033238564" lon="10.440376552892825"><ele>23.0</ele><time>2026-04-21T15:17:31Z</time></trkpt><trkpt lat="42.84241624401286" lon="10.440396974960601"><ele>23.0</ele><time>2026-04-21T15:17:34Z</time></trkpt><trkpt lat="42.842497647523544" lon="10.44041683001122"><ele>23.0</ele><time>2026-04-21T15:17:37Z</time></trkpt><trkpt lat="42.842578674144676" lon="10.440426422834163"><ele>23.0</ele><time>2026-04-21T15:17:40Z</time></trkpt><trkpt lat="42.84266045927281" lon="10.440445982739309"><ele>23.0</ele><time>2026-04-21T15:17:43Z</time></trkpt><trkpt lat="42.84273698781377" lon="10.440481006549284"><ele>23.0</ele><time>2026-04-21T15:17:46Z</time></trkpt><trkpt lat="42.84280507978972" lon="10.440553996099403"><ele>23.0</ele><time>2026-04-21T15:17:49Z</time></trkpt><trkpt lat="42.842835241601904" lon="10.440657408625748"><ele>23.0</ele><time>2026-04-21T15:17:52Z</time></trkpt><trkpt lat="42.842824827493" lon="10.440755674012038"><ele>23.0</ele><time>2026-04-21T15:17:55Z</time></trkpt><trkpt lat="42.8427941497288" lon="10.440843686538981"><ele>23.0</ele><time>2026-04-21T15:17:58Z</time></trkpt><trkpt lat="42.842735626554514" lon="10.440916760117707"><ele>23.0</ele><time>2026-04-21T15:18:02Z</time></trkpt><trkpt lat="42.842669390487444" lon="10.4409730438103"><ele>23.0</ele><time>2026-04-21T15:18:07Z</time></trkpt><trkpt lat="42.842611785124205" lon="10.441016612464587"><ele>23.0</ele><time>2026-04-21T15:18:11Z</time></trkpt><trkpt lat="42.842542311919296" lon="10.441065573460754"><ele>23.0</ele><time>2026-04-21T15:18:15Z</time></trkpt><trkpt lat="42.84247605819427" lon="10.441088496636615"><ele>21.142857142857142</ele><time>2026-04-21T15:18:19Z</time></trkpt><trkpt lat="42.84241580605386" lon="10.441125162832911"><ele>19.285714285714285</ele><time>2026-04-21T15:18:22Z</time></trkpt><trkpt lat="42.842349716984145" lon="10.441159067708034"><ele>17.428571428571427</ele><time>2026-04-21T15:18:25Z</time></trkpt><trkpt lat="42.842289531055016" lon="10.441112361153934"><ele>15.571428571428573</ele><time>2026-04-21T15:19:10Z</time></trkpt><trkpt lat="42.842238843008595" lon="10.441058543084743"><ele>13.714285714285715</ele><time>2026-04-21T15:19:17Z</time></trkpt><trkpt lat="42.8421997638126" lon="10.440981641338379"><ele>11.857142857142858</ele><time>2026-04-21T15:19:24Z</time></trkpt><trkpt lat="42.842162908958706" lon="10.440900181535223"><ele>10.0</ele><time>2026-04-21T15:19:32Z</time></trkpt><trkpt lat="42.842184684310496" lon="10.440981566776092"><ele>10.0</ele><time>2026-04-21T15:21:02Z</time></trkpt><trkpt lat="42.842229989216875" lon="10.441051508708345"><ele>10.0</ele><time>2026-04-21T15:21:09Z</time></trkpt><trkpt lat="42.84228907510883" lon="10.441093324737258"><ele>10.0</ele><time>2026-04-21T15:21:57Z</time></trkpt><trkpt lat="42.84235671076906" lon="10.441141834923371"><ele>10.0</ele><time>2026-04-21T15:22:04Z</time></trkpt><trkpt lat="42.842415774434016" lon="10.44119217621951"><ele>10.0</ele><time>2026-04-21T15:22:24Z</time></trkpt><trkpt lat="42.84247962507061" lon="10.441217434278094"><ele>10.0</ele><time>2026-04-21T15:22:30Z</time></trkpt><trkpt lat="42.84250541468146" lon="10.441308309509024"><ele>10.0</ele><time>2026-04-21T15:22:37Z</time></trkpt><trkpt lat="42.84248709859804" lon="10.441397216796513"><ele>9.571428571428571</ele><time>2026-04-21T15:22:44Z</time></trkpt><trkpt lat="42.84241568061998" lon="10.441466208477745"><ele>9.142857142857142</ele><time>2026-04-21T15:23:21Z</time></trkpt><trkpt lat="42.842399081081936" lon="10.44155213820014"><ele>8.714285714285715</ele><time>2026-04-21T15:23:29Z</time></trkpt><trkpt lat="42.84236368346345" lon="10.44163375033366"><ele>8.285714285714285</ele><time>2026-04-21T15:23:40Z</time></trkpt><trkpt lat="42.842324940384955" lon="10.441705077084455"><ele>7.857142857142858</ele><time>2026-04-21T15:23:51Z</time></trkpt><trkpt lat="42.84228110120206" lon="10.44176759970599"><ele>7.428571428571429</ele><time>2026-04-21T15:24:02Z</time></trkpt><trkpt lat="42.84223210160215" lon="10.441832000616127"><ele>7.0</ele><time>2026-04-21T15:24:14Z</time></trkpt><trkpt lat="42.84225927737195" lon="10.4419195025942"><ele>7.0</ele><time>2026-04-21T15:30:49Z</time></trkpt><trkpt lat="42.842266643368404" lon="10.442008737676955"><ele>7.0</ele><time>2026-04-21T15:31:11Z</time></trkpt><trkpt lat="42.842277615014936" lon="10.44210282169324"><ele>7.0</ele><time>2026-04-21T15:31:22Z</time></trkpt><trkpt lat="42.84228719915801" lon="10.442191154654301"><ele>7.0</ele><time>2026-04-21T15:32:02Z</time></trkpt><trkpt lat="42.84231731382395" lon="10.4422801585172"><ele>7.0</ele><time>2026-04-21T15:32:12Z</time></trkpt><trkpt lat="42.84233024382851" lon="10.442370783134203"><ele>7.0</ele><time>2026-04-21T15:32:22Z</time></trkpt><trkpt lat="42.842361960184384" lon="10.442449716748952"><ele>7.0</ele><time>2026-04-21T15:32:30Z</time></trkpt><trkpt lat="42.842353405176745" lon="10.442537628645374"><ele>6.428571428571429</ele><time>2026-04-21T15:32:38Z</time></trkpt><trkpt lat="42.84234827329372" lon="10.442631659957886"><ele>5.857142857142857</ele><time>2026-04-21T15:33:00Z</time></trkpt><trkpt lat="42.842365283899944" lon="10.442717423631574"><ele>5.285714285714286</ele><time>2026-04-21T15:33:07Z</time></trkpt><trkpt lat="42.842343410237014" lon="10.442634923020238"><ele>4.714285714285714</ele><time>2026-04-21T15:34:10Z</time></trkpt><trkpt lat="42.84234699677878" lon="10.442546871363053"><ele>4.142857142857142</ele><time>2026-04-21T15:34:17Z</time></trkpt><trkpt lat="42.84235684643957" lon="10.442453608802984"><ele>3.571428571428571</ele><time>2026-04-21T15:34:24Z</time></trkpt><trkpt lat="42.84234506427366" lon="10.442360839666298"><ele>3.0</ele><time>2026-04-21T15:34:32Z</time></trkpt><trkpt lat="42.842323405200304" lon="10.442273411584203"><ele>2.9999999999999996</ele><time>2026-04-21T15:34:39Z</time></trkpt><trkpt lat="42.84229677592125" lon="10.442190675939408"><ele>3.0</ele><time>2026-04-21T15:34:46Z</time></trkpt><trkpt lat="42.84226855430651" lon="10.442105048857908"><ele>3.0</ele><time>2026-04-21T15:34:53Z</time></trkpt><trkpt lat="42.842253371039305" lon="10.44201442815776"><ele>3.0</ele><time>2026-04-21T15:35:00Z</time></trkpt><trkpt lat="42.84223126102434" lon="10.441931622290708"><ele>3.0</ele><time>2026-04-21T15:35:07Z</time></trkpt><trkpt lat="42.842234516766986" lon="10.441835284626876"><ele>2.9999999999999996</ele><time>2026-04-21T15:35:15Z</time></trkpt><trkpt lat="42.84225065534469" lon="10.44174305159017"><ele>3.0</ele><time>2026-04-21T15:45:34Z</time></trkpt><trkpt lat="42.84227774989956" lon="10.441655049903614"><ele>3.571428571428571</ele><time>2026-04-21T15:45:44Z</time></trkpt><trkpt lat="42.84230380752835" lon="10.441567848401846"><ele>4.142857142857142</ele><time>2026-04-21T15:45:52Z</time></trkpt><trkpt lat="42.84234246547288" lon="10.441493375558265"><ele>4.714285714285714</ele><time>2026-04-21T15:45:59Z</time></trkpt><trkpt lat="42.842399856854406" lon="10.441425330720136"><ele>5.285714285714286</ele><time>2026-04-21T15:46:06Z</time></trkpt><trkpt lat="42.84244700066343" lon="10.441364785854123"><ele>5.857142857142857</ele><time>2026-04-21T15:46:12Z</time></trkpt><trkpt lat="42.842487015626176" lon="10.441290186008178"><ele>6.428571428571429</ele><time>2026-04-21T15:46:19Z</time></trkpt><trkpt lat="42.84248198805082" lon="10.441193580958567"><ele>7.0</ele><time>2026-04-21T15:46:26Z</time></trkpt><trkpt lat="42.84242232737229" lon="10.441159622987218"><ele>7.428571428571429</ele><time>2026-04-21T15:46:32Z</time></trkpt><trkpt lat="42.84235384696968" lon="10.441158283247043"><ele>7.857142857142858</ele><time>2026-04-21T15:46:39Z</time></trkpt><trkpt lat="42.842380339644535" lon="10.441078779780744"><ele>8.285714285714285</ele><time>2026-04-21T15:54:03Z</time></trkpt><trkpt lat="42.842448325246174" lon="10.441048399820406"><ele>8.714285714285715</ele><time>2026-04-21T15:54:05Z</time></trkpt><trkpt lat="42.8425247040171" lon="10.441012690542603"><ele>9.142857142857142</ele><time>2026-04-21T15:54:07Z</time></trkpt><trkpt lat="42.84259332256491" lon="10.440971606704931"><ele>9.571428571428571</ele><time>2026-04-21T15:54:09Z</time></trkpt><trkpt lat="42.842669324231295" lon="10.440916230754214"><ele>10.0</ele><time>2026-04-21T15:54:12Z</time></trkpt><trkpt lat="42.84273364781604" lon="10.44088909513406"><ele>12.166666666666668</ele><time>2026-04-21T15:54:14Z</time></trkpt><trkpt lat="42.842787674789086" lon="10.440835464075285"><ele>14.333333333333334</ele><time>2026-04-21T15:54:16Z</time></trkpt><trkpt lat="42.84282764092723" lon="10.440750064816063"><ele>16.5</ele><time>2026-04-21T15:54:18Z</time></trkpt><trkpt lat="42.842841077403534" lon="10.440656490723748"><ele>18.666666666666668</ele><time>2026-04-21T15:54:20Z</time></trkpt><trkpt lat="42.84281465625493" lon="10.440566805776944"><ele>20.833333333333336</ele><time>2026-04-21T15:54:22Z</time></trkpt><trkpt lat="42.84274869615044" lon="10.44049315696883"><ele>23.0</ele><time>2026-04-21T15:54:24Z</time></trkpt><trkpt lat="42.842673286295856" lon="10.440441080635301"><ele>23.0</ele><time>2026-04-21T15:54:26Z</time></trkpt><trkpt lat="42.84258407537865" lon="10.440414527523851"><ele>23.0</ele><time>2026-04-21T15:54:28Z</time></trkpt><trkpt lat="42.84248922939266" lon="10.440400983378566"><ele>23.0</ele><time>2026-04-21T15:54:30Z</time></trkpt><trkpt lat="42.84240882671557" lon="10.440393342571333"><ele>23.0</ele><time>2026-04-21T15:54:32Z</time></trkpt><trkpt lat="42.84232640841682" lon="10.440379421277186"><ele>23.0</ele><time>2026-04-21T15:54:34Z</time></trkpt><trkpt lat="42.842206945486765" lon="10.440320673265575"><ele>23.0</ele><time>2026-04-21T15:54:37Z</time></trkpt><trkpt lat="42.84212190056364" lon="10.440266091155374"><ele>23.0</ele><time>2026-04-21T15:54:39Z</time></trkpt><trkpt lat="42.842058274867135" lon="10.44019591619692"><ele>23.0</ele><time>2026-04-21T15:54:41Z</time></trkpt><trkpt lat="42.84201850845754" lon="10.440128502610019"><ele>23.0</ele><time>2026-04-21T15:54:44Z</time></trkpt><trkpt lat="42.84205864907621" lon="10.440035381349588"><ele>23.0</ele><time>2026-04-21T15:54:47Z</time></trkpt><trkpt lat="42.84212913446348" lon="10.440023424958097"><ele>23.0</ele><time>2026-04-21T15:54:49Z</time></trkpt><trkpt lat="42.842219783816766" lon="10.44005025564367"><ele>23.0</ele><time>2026-04-21T15:54:51Z</time></trkpt><trkpt lat="42.84228788751439" lon="10.440071889374074"><ele>23.0</ele><time>2026-04-21T15:54:53Z</time></trkpt><trkpt lat="42.84235575914157" lon="10.44007853169065"><ele>23.0</ele><time>2026-04-21T15:54:55Z</time></trkpt><trkpt lat="42.84242080408371" lon="10.440063032849356"><ele>23.0</ele><time>2026-04-21T15:54:57Z</time></trkpt><trkpt lat="42.84249951234264" lon="10.440082891149723"><ele>23.0</ele><time>2026-04-21T15:54:59Z</time></trkpt><trkpt lat="42.84259656002536" lon="10.440118727039806"><ele>23.0</ele><time>2026-04-21T15:55:01Z</time></trkpt><trkpt lat="42.84267958171399" lon="10.440134854038176"><ele>24.2</ele><time>2026-04-21T15:55:03Z</time></trkpt><trkpt lat="42.84276809228948" lon="10.440164704606005"><ele>25.4</ele><time>2026-04-21T15:55:05Z</time></trkpt><trkpt lat="42.842882742993744" lon="10.440194634045438"><ele>26.599999999999998</ele><time>2026-04-21T15:55:08Z</time></trkpt><trkpt lat="42.8429546762402" lon="10.440216263767653"><ele>27.799999999999997</ele><time>2026-04-21T15:55:10Z</time></trkpt><trkpt lat="42.84305499689327" lon="10.440256195598835"><ele>29.0</ele><time>2026-04-21T15:55:12Z</time></trkpt><trkpt lat="42.84313261175931" lon="10.44030644648595"><ele>29.0</ele><time>2026-04-21T15:55:14Z</time></trkpt><trkpt lat="42.843216248609366" lon="10.440351806711123"><ele>29.0</ele><time>2026-04-21T15:55:16Z</time></trkpt><trkpt lat="42.84330188728024" lon="10.44039972890675"><ele>29.0</ele><time>2026-04-21T15:55:18Z</time></trkpt><trkpt lat="42.843375490714244" lon="10.440449774441218"><ele>29.0</ele><time>2026-04-21T15:55:20Z</time></trkpt><trkpt lat="42.843471305845725" lon="10.44047346873017"><ele>29.0</ele><time>2026-04-21T15:55:22Z</time></trkpt><trkpt lat="42.843572638418095" lon="10.440461310580073"><ele>30.0</ele><time>2026-04-21T15:55:24Z</time></trkpt><trkpt lat="42.84366834270056" lon="10.44042842036126"><ele>31.0</ele><time>2026-04-21T15:55:26Z</time></trkpt><trkpt lat="42.84375400343869" lon="10.44037684130243"><ele>32.0</ele><time>2026-04-21T15:55:28Z</time></trkpt><trkpt lat="42.84383925431194" lon="10.440327619157355"><ele>33.0</ele><time>2026-04-21T15:55:30Z</time></trkpt><trkpt lat="42.843918063100595" lon="10.44027908746905"><ele>34.0</ele><time>2026-04-21T15:55:32Z</time></trkpt><trkpt lat="42.843996712768444" lon="10.440227498415211"><ele>34.0</ele><time>2026-04-21T15:55:34Z</time></trkpt><trkpt lat="42.84406556202212" lon="10.440191135532073"><ele>34.0</ele><time>2026-04-21T15:55:36Z</time></trkpt><trkpt lat="42.84414216826466" lon="10.44018842877489"><ele>34.0</ele><time>2026-04-21T15:55:38Z</time></trkpt><trkpt lat="42.844239427014315" lon="10.440197536619545"><ele>34.0</ele><time>2026-04-21T15:55:40Z</time></trkpt><trkpt lat="42.84435300997009" lon="10.440238840722227"><ele>34.0</ele><time>2026-04-21T15:55:42Z</time></trkpt><trkpt lat="42.84444464304065" lon="10.440287867838409"><ele>34.8</ele><time>2026-04-21T15:55:44Z</time></trkpt><trkpt lat="42.84453547439096" lon="10.44030386668404"><ele>35.599999999999994</ele><time>2026-04-21T15:55:46Z</time></trkpt><trkpt lat="42.84462418298275" lon="10.440293802579111"><ele>36.4</ele><time>2026-04-21T15:55:48Z</time></trkpt><trkpt lat="42.84469746955352" lon="10.440223939433018"><ele>37.199999999999996</ele><time>2026-04-21T15:55:50Z</time></trkpt><trkpt lat="42.84473628208099" lon="10.440073474390848"><ele>38.0</ele><time>2026-04-21T15:55:52Z</time></trkpt><trkpt lat="42.84478791790665" lon="10.43995683569112"><ele>38.0</ele><time>2026-04-21T15:55:54Z</time></trkpt><trkpt lat="42.84483329706868" lon="10.439849893435722"><ele>38.0</ele><time>2026-04-21T15:56:24Z</time></trkpt><trkpt lat="42.8449310928102" lon="10.439802618650353"><ele>38.0</ele><time>2026-04-21T15:56:26Z</time></trkpt><trkpt lat="42.84499221371069" lon="10.439752070270709"><ele>38.0</ele><time>2026-04-21T15:56:27Z</time></trkpt><trkpt lat="42.84506321441838" lon="10.43968613589962"><ele>38.0</ele><time>2026-04-21T15:56:28Z</time></trkpt><trkpt lat="42.845159141577874" lon="10.439624870126075"><ele>38.666666666666664</ele><time>2026-04-21T15:56:29Z</time></trkpt><trkpt lat="42.84520672162797" lon="10.439509466428863"><ele>39.33333333333333</ele><time>2026-04-21T15:56:30Z</time></trkpt><trkpt lat="42.84527968836122" lon="10.439418277719346"><ele>40.0</ele><time>2026-04-21T15:56:31Z</time></trkpt><trkpt lat="42.84532894394439" lon="10.439330522121658"><ele>40.666666666666664</ele><time>2026-04-21T15:56:32Z</time></trkpt><trkpt lat="42.84538305949988" lon="10.439238111681327"><ele>41.333333333333336</ele><time>2026-04-21T15:56:33Z</time></trkpt><trkpt lat="42.845436217994425" lon="10.439159834362545"><ele>42.0</ele><time>2026-04-21T15:56:34Z</time></trkpt><trkpt lat="42.84549831207144" lon="10.439104644027708"><ele>42.0</ele><time>2026-04-21T15:56:35Z</time></trkpt><trkpt lat="42.84557608343073" lon="10.439071786890585"><ele>42.0</ele><time>2026-04-21T15:56:36Z</time></trkpt><trkpt lat="42.845674381993646" lon="10.439054511217682"><ele>42.0</ele><time>2026-04-21T15:56:37Z</time></trkpt><trkpt lat="42.84576790293687" lon="10.439060530230002"><ele>42.0</ele><time>2026-04-21T15:56:38Z</time></trkpt><trkpt lat="42.84587119881373" lon="10.439040501021436"><ele>42.0</ele><time>2026-04-21T15:56:39Z</time></trkpt><trkpt lat="42.84597658121469" lon="10.439043663727245"><ele>42.400000000000006</ele><time>2026-04-21T15:56:40Z</time></trkpt><trkpt lat="42.84608183096947" lon="10.439005793887635"><ele>42.800000000000004</ele><time>2026-04-21T15:56:41Z</time></trkpt><trkpt lat="42.84618563080696" lon="10.438972690279627"><ele>43.2</ele><time>2026-04-21T15:56:42Z</time></trkpt><trkpt lat="42.84628869694922" lon="10.438942239237527"><ele>43.6</ele><time>2026-04-21T15:56:43Z</time></trkpt><trkpt lat="42.846373934825216" lon="10.438916178863312"><ele>44.0</ele><time>2026-04-21T15:56:44Z</time></trkpt><trkpt lat="42.84645552611412" lon="10.43890030602252"><ele>44.0</ele><time>2026-04-21T15:56:45Z</time></trkpt><trkpt lat="42.846529514622596" lon="10.438954987345085"><ele>44.0</ele><time>2026-04-21T15:56:46Z</time></trkpt><trkpt lat="42.8465974722021" lon="10.439019977426643"><ele>44.0</ele><time>2026-04-21T15:56:47Z</time></trkpt><trkpt lat="42.84663880792604" lon="10.439154206184371"><ele>44.0</ele><time>2026-04-21T15:56:48Z</time></trkpt><trkpt lat="42.84670734062598" lon="10.439255292990115"><ele>44.0</ele><time>2026-04-21T15:56:49Z</time></trkpt><trkpt lat="42.84675982358301" lon="10.439366728080065"><ele>45.2</ele><time>2026-04-21T15:56:50Z</time></trkpt><trkpt lat="42.84682588700948" lon="10.43946259936414"><ele>46.400000000000006</ele><time>2026-04-21T15:56:51Z</time></trkpt><trkpt lat="42.846902116095514" lon="10.439512400069052"><ele>47.6</ele><time>2026-04-21T15:56:52Z</time></trkpt><trkpt lat="42.847004211338884" lon="10.439558505981932"><ele>48.8</ele><time>2026-04-21T15:56:53Z</time></trkpt><trkpt lat="42.84711626976668" lon="10.43957860676116"><ele>50.0</ele><time>2026-04-21T15:56:54Z</time></trkpt><trkpt lat="42.847223330439505" lon="10.439589223224461"><ele>50.00000000000001</ele><time>2026-04-21T15:56:55Z</time></trkpt><trkpt lat="42.847313741517475" lon="10.43959851285567"><ele>50.0</ele><time>2026-04-21T15:56:56Z</time></trkpt><trkpt lat="42.8473941948706" lon="10.43960328071554"><ele>50.0</ele><time>2026-04-21T15:56:57Z</time></trkpt><trkpt lat="42.84748240096909" lon="10.439625819871871"><ele>50.0</ele><time>2026-04-21T15:56:58Z</time></trkpt><trkpt lat="42.84756281297663" lon="10.43965904850973"><ele>50.00000000000001</ele><time>2026-04-21T15:56:59Z</time></trkpt><trkpt lat="42.847639096730916" lon="10.439708806317594"><ele>50.0</ele><time>2026-04-21T15:57:00Z</time></trkpt><trkpt lat="42.84773287981166" lon="10.439766073666934"><ele>48.2</ele><time>2026-04-21T15:57:01Z</time></trkpt><trkpt lat="42.847828190137875" lon="10.43982467056201"><ele>46.4</ele><time>2026-04-21T15:57:02Z</time></trkpt><trkpt lat="42.84792541116866" lon="10.439854610673864"><ele>44.599999999999994</ele><time>2026-04-21T15:57:03Z</time></trkpt><trkpt lat="42.84801854332434" lon="10.439877424650941"><ele>42.8</ele><time>2026-04-21T15:57:04Z</time></trkpt><trkpt lat="42.84811233299236" lon="10.439853037538464"><ele>41.0</ele><time>2026-04-21T15:57:05Z</time></trkpt><trkpt lat="42.84821210952181" lon="10.439802237475233"><ele>41.0</ele><time>2026-04-21T15:57:06Z</time></trkpt><trkpt lat="42.84829931468133" lon="10.439727697372513"><ele>41.0</ele><time>2026-04-21T15:57:07Z</time></trkpt><trkpt lat="42.84837092488474" lon="10.439630102656238"><ele>41.0</ele><time>2026-04-21T15:57:08Z</time></trkpt><trkpt lat="42.8484285694416" lon="10.439492408185924"><ele>41.0</ele><time>2026-04-21T15:57:09Z</time></trkpt><trkpt lat="42.84851192348348" lon="10.439348237597951"><ele>38.4</ele><time>2026-04-21T15:57:10Z</time></trkpt><trkpt lat="42.84857339361351" lon="10.439240509508595"><ele>35.8</ele><time>2026-04-21T15:57:11Z</time></trkpt><trkpt lat="42.84863067091829" lon="10.439135052266"><ele>33.199999999999996</ele><time>2026-04-21T15:57:12Z</time></trkpt><trkpt lat="42.848693274374" lon="10.439032376194843"><ele>30.599999999999998</ele><time>2026-04-21T15:57:13Z</time></trkpt><trkpt lat="42.84874956008998" lon="10.438930921780692"><ele>28.0</ele><time>2026-04-21T15:57:14Z</time></trkpt><trkpt lat="42.84880194439352" lon="10.438820515093617"><ele>32.0</ele><time>2026-04-21T15:57:15Z</time></trkpt><trkpt lat="42.84885984248775" lon="10.438712831359604"><ele>36.0</ele><time>2026-04-21T15:57:16Z</time></trkpt><trkpt lat="42.84894988354636" lon="10.438616582878147"><ele>40.0</ele><time>2026-04-21T15:57:17Z</time></trkpt><trkpt lat="42.84905354325169" lon="10.43853131379611"><ele>44.0</ele><time>2026-04-21T15:57:18Z</time></trkpt><trkpt lat="42.849155003449034" lon="10.438453351600163"><ele>44.0</ele><time>2026-04-21T15:57:19Z</time></trkpt><trkpt lat="42.84923940348695" lon="10.438367563003968"><ele>44.0</ele><time>2026-04-21T15:57:20Z</time></trkpt><trkpt lat="42.849307651229445" lon="10.438257203345726"><ele>44.0</ele><time>2026-04-21T15:57:21Z</time></trkpt><trkpt lat="42.84937114860653" lon="10.438128027141353"><ele>44.0</ele><time>2026-04-21T15:57:22Z</time></trkpt><trkpt lat="42.84941308109456" lon="10.43799434206738"><ele>44.0</ele><time>2026-04-21T15:57:23Z</time></trkpt><trkpt lat="42.84945659475792" lon="10.437856521054698"><ele>42.6</ele><time>2026-04-21T15:57:24Z</time></trkpt><trkpt lat="42.84950961601396" lon="10.437729499432635"><ele>41.2</ele><time>2026-04-21T15:57:25Z</time></trkpt><trkpt lat="42.84958666706002" lon="10.43762785790382"><ele>39.800000000000004</ele><time>2026-04-21T15:57:26Z</time></trkpt><trkpt lat="42.84968032994214" lon="10.437536747911963"><ele>38.400000000000006</ele><time>2026-04-21T15:57:27Z</time></trkpt><trkpt lat="42.849781023513415" lon="10.437458864451044"><ele>37.0</ele><time>2026-04-21T15:57:28Z</time></trkpt><trkpt lat="42.8498655130987" lon="10.437361514142447"><ele>37.0</ele><time>2026-04-21T15:57:29Z</time></trkpt><trkpt lat="42.84993874374029" lon="10.437245428274425"><ele>37.0</ele><time>2026-04-21T15:57:30Z</time></trkpt><trkpt lat="42.850009455146704" lon="10.437120073892123"><ele>37.0</ele><time>2026-04-21T15:57:31Z</time></trkpt><trkpt lat="42.85007667668996" lon="10.436988957271426"><ele>37.0</ele><time>2026-04-21T15:57:32Z</time></trkpt><trkpt lat="42.85013876321671" lon="10.436860578763829"><ele>37.8</ele><time>2026-04-21T15:57:33Z</time></trkpt><trkpt lat="42.850202707528396" lon="10.43674613738136"><ele>38.6</ele><time>2026-04-21T15:57:34Z</time></trkpt><trkpt lat="42.8502590914708" lon="10.436631036156616"><ele>39.4</ele><time>2026-04-21T15:57:35Z</time></trkpt><trkpt lat="42.85031595972198" lon="10.436516103907564"><ele>40.199999999999996</ele><time>2026-04-21T15:57:36Z</time></trkpt><trkpt lat="42.850376226341915" lon="10.436412284213848"><ele>41.0</ele><time>2026-04-21T15:57:37Z</time></trkpt><trkpt lat="42.85043370862169" lon="10.436300951234227"><ele>42.4</ele><time>2026-04-21T15:57:38Z</time></trkpt><trkpt lat="42.850491001374884" lon="10.436189668276118"><ele>43.8</ele><time>2026-04-21T15:57:39Z</time></trkpt><trkpt lat="42.850549339455775" lon="10.4360805677794"><ele>45.199999999999996</ele><time>2026-04-21T15:57:40Z</time></trkpt><trkpt lat="42.85060973862896" lon="10.435974717364736"><ele>46.599999999999994</ele><time>2026-04-21T15:57:41Z</time></trkpt><trkpt lat="42.85067351888835" lon="10.435875256462644"><ele>48.0</ele><time>2026-04-21T15:57:42Z</time></trkpt><trkpt lat="42.85074351930183" lon="10.435777308322624"><ele>48.0</ele><time>2026-04-21T15:57:43Z</time></trkpt><trkpt lat="42.85081185322428" lon="10.435686974207721"><ele>48.0</ele><time>2026-04-21T15:57:44Z</time></trkpt><trkpt lat="42.85087703520166" lon="10.43559413872017"><ele>48.0</ele><time>2026-04-21T15:57:45Z</time></trkpt><trkpt lat="42.85092283276901" lon="10.435500263399051"><ele>48.0</ele><time>2026-04-21T15:57:46Z</time></trkpt><trkpt lat="42.85098641987666" lon="10.435401184078582"><ele>48.0</ele><time>2026-04-21T15:57:47Z</time></trkpt><trkpt lat="42.85105019247844" lon="10.4353086170684"><ele>44.4</ele><time>2026-04-21T15:57:48Z</time></trkpt><trkpt lat="42.85109876473301" lon="10.435211210691094"><ele>40.8</ele><time>2026-04-21T15:57:49Z</time></trkpt><trkpt lat="42.85113661953952" lon="10.43510313721336"><ele>37.2</ele><time>2026-04-21T15:57:50Z</time></trkpt><trkpt lat="42.85116273675092" lon="10.434977644009457"><ele>33.6</ele><time>2026-04-21T15:57:51Z</time></trkpt><trkpt lat="42.85118125035763" lon="10.434843143196723"><ele>30.0</ele><time>2026-04-21T15:57:52Z</time></trkpt><trkpt lat="42.8511886219058" lon="10.434703148589328"><ele>30.0</ele><time>2026-04-21T15:57:53Z</time></trkpt><trkpt lat="42.85119517519848" lon="10.434553491391096"><ele>30.0</ele><time>2026-04-21T15:57:54Z</time></trkpt><trkpt lat="42.85119491449625" lon="10.43441034283009"><ele>30.0</ele><time>2026-04-21T15:57:55Z</time></trkpt><trkpt lat="42.851229420642944" lon="10.434290944776546"><ele>30.0</ele><time>2026-04-21T15:57:56Z</time></trkpt><trkpt lat="42.85123131116237" lon="10.434156548543433"><ele>30.0</ele><time>2026-04-21T15:57:57Z</time></trkpt><trkpt lat="42.85122819667086" lon="10.4340321806176"><ele>30.0</ele><time>2026-04-21T15:57:58Z</time></trkpt><trkpt lat="42.85122427777108" lon="10.433907081573436"><ele>30.0</ele><time>2026-04-21T15:57:59Z</time></trkpt><trkpt lat="42.85121746897432" lon="10.433783431922198"><ele>30.0</ele><time>2026-04-21T15:58:00Z</time></trkpt><trkpt lat="42.85121793448643" lon="10.433659677411029"><ele>30.0</ele><time>2026-04-21T15:58:01Z</time></trkpt><trkpt lat="42.851219751250255" lon="10.43354289576854"><ele>30.0</ele><time>2026-04-21T15:58:02Z</time></trkpt><trkpt lat="42.85121897558642" lon="10.433423162124768"><ele>30.0</ele><time>2026-04-21T15:58:03Z</time></trkpt><trkpt lat="42.85122469353605" lon="10.433307286303059"><ele>30.166666666666668</ele><time>2026-04-21T15:58:04Z</time></trkpt><trkpt lat="42.85123951370183" lon="10.433186344018475"><ele>30.333333333333336</ele><time>2026-04-21T15:58:05Z</time></trkpt><trkpt lat="42.85125888917792" lon="10.433067159235808"><ele>30.5</ele><time>2026-04-21T15:58:06Z</time></trkpt><trkpt lat="42.85127440977356" lon="10.432946639671174"><ele>30.666666666666668</ele><time>2026-04-21T15:58:07Z</time></trkpt><trkpt lat="42.851288374312766" lon="10.432837898312838"><ele>30.833333333333336</ele><time>2026-04-21T15:58:08Z</time></trkpt><trkpt lat="42.85129740946326" lon="10.432748893403692"><ele>31.0</ele><time>2026-04-21T15:58:09Z</time></trkpt><trkpt lat="42.851315297186105" lon="10.432663695158272"><ele>33.0</ele><time>2026-04-21T15:58:10Z</time></trkpt><trkpt lat="42.85135030304701" lon="10.432579897518952"><ele>35.0</ele><time>2026-04-21T15:58:11Z</time></trkpt><trkpt lat="42.851401664399916" lon="10.432522661612047"><ele>37.0</ele><time>2026-04-21T15:58:12Z</time></trkpt><trkpt lat="42.851462718845674" lon="10.432495300843303"><ele>39.0</ele><time>2026-04-21T15:58:13Z</time></trkpt><trkpt lat="42.851530705183855" lon="10.432487134368946"><ele>41.0</ele><time>2026-04-21T15:58:14Z</time></trkpt><trkpt lat="42.85159860336623" lon="10.4325067024283"><ele>43.0</ele><time>2026-04-21T15:58:15Z</time></trkpt><trkpt lat="42.85166891862977" lon="10.432558267893535"><ele>45.0</ele><time>2026-04-21T15:58:16Z</time></trkpt><trkpt lat="42.85173072787729" lon="10.432637597826119"><ele>43.0</ele><time>2026-04-21T15:58:17Z</time></trkpt><trkpt lat="42.85181273168577" lon="10.43272173229686"><ele>41.0</ele><time>2026-04-21T15:58:18Z</time></trkpt><trkpt lat="42.85191543376888" lon="10.432815181401518"><ele>39.0</ele><time>2026-04-21T15:58:19Z</time></trkpt><trkpt lat="42.85200005571828" lon="10.432886559530058"><ele>37.0</ele><time>2026-04-21T15:58:20Z</time></trkpt><trkpt lat="42.85208015397309" lon="10.432958298136304"><ele>35.0</ele><time>2026-04-21T15:58:21Z</time></trkpt><trkpt lat="42.85215689287839" lon="10.433028031984314"><ele>35.0</ele><time>2026-04-21T15:58:22Z</time></trkpt><trkpt lat="42.8522344083646" lon="10.433096526171264"><ele>35.0</ele><time>2026-04-21T15:58:23Z</time></trkpt><trkpt lat="42.852302355236986" lon="10.433161172587386"><ele>35.0</ele><time>2026-04-21T15:58:24Z</time></trkpt><trkpt lat="42.85237149147583" lon="10.433238757459089"><ele>35.0</ele><time>2026-04-21T15:58:25Z</time></trkpt><trkpt lat="42.85243313811709" lon="10.433323169316326"><ele>35.0</ele><time>2026-04-21T15:58:26Z</time></trkpt><trkpt lat="42.85248350097905" lon="10.43341616911857"><ele>35.0</ele><time>2026-04-21T15:58:27Z</time></trkpt><trkpt lat="42.85253678404195" lon="10.433524657838865"><ele>35.0</ele><time>2026-04-21T15:58:28Z</time></trkpt><trkpt lat="42.852587218786034" lon="10.433633906554403"><ele>35.0</ele><time>2026-04-21T15:58:29Z</time></trkpt><trkpt lat="42.85263773306781" lon="10.433738112439782"><ele>35.0</ele><time>2026-04-21T15:58:30Z</time></trkpt><trkpt lat="42.85268987518306" lon="10.433835015414411"><ele>35.0</ele><time>2026-04-21T15:58:31Z</time></trkpt><trkpt lat="42.85274314855988" lon="10.43391842711712"><ele>35.0</ele><time>2026-04-21T15:58:32Z</time></trkpt><trkpt lat="42.85280278532013" lon="10.433987568156887"><ele>35.0</ele><time>2026-04-21T15:58:33Z</time></trkpt><trkpt lat="42.85286735058051" lon="10.434035450717214"><ele>32.5</ele><time>2026-04-21T15:58:34Z</time></trkpt><trkpt lat="42.85293833053677" lon="10.434060527972415"><ele>30.0</ele><time>2026-04-21T15:58:35Z</time></trkpt><trkpt lat="42.85302046297603" lon="10.434067403412378"><ele>27.5</ele><time>2026-04-21T15:58:36Z</time></trkpt><trkpt lat="42.85310274453629" lon="10.434065041325145"><ele>25.0</ele><time>2026-04-21T15:58:37Z</time></trkpt><trkpt lat="42.85319819144822" lon="10.43405246073553"><ele>22.5</ele><time>2026-04-21T15:58:38Z</time></trkpt><trkpt lat="42.85329421508386" lon="10.434037388025397"><ele>20.0</ele><time>2026-04-21T15:58:39Z</time></trkpt><trkpt lat="42.85339336964959" lon="10.434021402282216"><ele>19.2</ele><time>2026-04-21T15:58:40Z</time></trkpt><trkpt lat="42.85349612455764" lon="10.433997758028225"><ele>18.4</ele><time>2026-04-21T15:58:41Z</time></trkpt><trkpt lat="42.8535968484491" lon="10.433970068127053"><ele>17.6</ele><time>2026-04-21T15:58:42Z</time></trkpt><trkpt lat="42.85370263005626" lon="10.433960091254633"><ele>16.8</ele><time>2026-04-21T15:58:43Z</time></trkpt><trkpt lat="42.85380573624437" lon="10.43396138441997"><ele>16.0</ele><time>2026-04-21T15:58:44Z</time></trkpt><trkpt lat="42.85390200035167" lon="10.433959490776727"><ele>16.0</ele><time>2026-04-21T15:58:45Z</time></trkpt><trkpt lat="42.85398955394006" lon="10.433947422827595"><ele>16.0</ele><time>2026-04-21T15:58:46Z</time></trkpt><trkpt lat="42.85407968249314" lon="10.433908981633698"><ele>16.0</ele><time>2026-04-21T15:58:47Z</time></trkpt><trkpt lat="42.85416911380797" lon="10.433845221823137"><ele>16.0</ele><time>2026-04-21T15:58:48Z</time></trkpt><trkpt lat="42.85425505974789" lon="10.433772858912963"><ele>16.0</ele><time>2026-04-21T15:58:49Z</time></trkpt><trkpt lat="42.8543389676391" lon="10.433692994239333"><ele>21.0</ele><time>2026-04-21T15:58:50Z</time></trkpt><trkpt lat="42.85441218685048" lon="10.433630420366725"><ele>26.0</ele><time>2026-04-21T15:58:51Z</time></trkpt><trkpt lat="42.85448790033738" lon="10.433601280658475"><ele>31.0</ele><time>2026-04-21T15:58:52Z</time></trkpt><trkpt lat="42.85456707588436" lon="10.43360770239869"><ele>36.0</ele><time>2026-04-21T15:58:53Z</time></trkpt><trkpt lat="42.85464471133367" lon="10.43364393475565"><ele>41.0</ele><time>2026-04-21T15:58:54Z</time></trkpt><trkpt lat="42.85471570515842" lon="10.433713071710018"><ele>46.0</ele><time>2026-04-21T15:58:55Z</time></trkpt><trkpt lat="42.85478973868254" lon="10.433790001573298"><ele>41.599999999999994</ele><time>2026-04-21T15:58:56Z</time></trkpt><trkpt lat="42.85486400109923" lon="10.433874667698959"><ele>37.199999999999996</ele><time>2026-04-21T15:58:57Z</time></trkpt><trkpt lat="42.85494642681348" lon="10.433964877849226"><ele>32.8</ele><time>2026-04-21T15:58:58Z</time></trkpt><trkpt lat="42.85501058030514" lon="10.434061091454437"><ele>28.4</ele><time>2026-04-21T15:58:59Z</time></trkpt><trkpt lat="42.855085813196446" lon="10.434156973690875"><ele>24.0</ele><time>2026-04-21T15:59:00Z</time></trkpt><trkpt lat="42.85514861594091" lon="10.434236570580596"><ele>23.0</ele><time>2026-04-21T15:59:01Z</time></trkpt><trkpt lat="42.855207588818885" lon="10.434287419782253"><ele>22.0</ele><time>2026-04-21T15:59:02Z</time></trkpt><trkpt lat="42.855279632586566" lon="10.43432013130214"><ele>21.0</ele><time>2026-04-21T15:59:03Z</time></trkpt><trkpt lat="42.85537052306309" lon="10.434302040719745"><ele>20.0</ele><time>2026-04-21T15:59:04Z</time></trkpt><trkpt lat="42.85546443237342" lon="10.43425837546052"><ele>19.0</ele><time>2026-04-21T15:59:05Z</time></trkpt><trkpt lat="42.85554550948804" lon="10.434179642482682"><ele>18.0</ele><time>2026-04-21T15:59:06Z</time></trkpt><trkpt lat="42.85561465970794" lon="10.434085596624024"><ele>18.0</ele><time>2026-04-21T15:59:07Z</time></trkpt><trkpt lat="42.855689283138986" lon="10.433998159766618"><ele>18.0</ele><time>2026-04-21T15:59:08Z</time></trkpt><trkpt lat="42.85577853835735" lon="10.43391246020548"><ele>18.0</ele><time>2026-04-21T15:59:09Z</time></trkpt><trkpt lat="42.85585481771029" lon="10.433829050385238"><ele>18.0</ele><time>2026-04-21T15:59:10Z</time></trkpt><trkpt lat="42.85592691275619" lon="10.433753333582965"><ele>18.0</ele><time>2026-04-21T15:59:11Z</time></trkpt><trkpt lat="42.85600996342808" lon="10.433689812805053"><ele>15.4</ele><time>2026-04-21T15:59:12Z</time></trkpt><trkpt lat="42.85607807070896" lon="10.433585002648778"><ele>12.8</ele><time>2026-04-21T15:59:13Z</time></trkpt><trkpt lat="42.85612517703651" lon="10.433455610850599"><ele>10.2</ele><time>2026-04-21T15:59:14Z</time></trkpt><trkpt lat="42.85615952923297" lon="10.433318806480605"><ele>7.6</ele><time>2026-04-21T15:59:15Z</time></trkpt><trkpt lat="42.85618864351991" lon="10.433170692432842"><ele>5.0</ele><time>2026-04-21T15:59:16Z</time></trkpt><trkpt lat="42.85619562396642" lon="10.433013405107559"><ele>5.8</ele><time>2026-04-21T15:59:17Z</time></trkpt><trkpt lat="42.85623234019139" lon="10.432865990370335"><ele>6.6</ele><time>2026-04-21T15:59:18Z</time></trkpt><trkpt lat="42.85625083459566" lon="10.432719303311014"><ele>7.4</ele><time>2026-04-21T15:59:19Z</time></trkpt><trkpt lat="42.856272981472806" lon="10.432571999153701"><ele>8.2</ele><time>2026-04-21T15:59:20Z</time></trkpt><trkpt lat="42.856296091213885" lon="10.43242041780159"><ele>9.0</ele><time>2026-04-21T15:59:21Z</time></trkpt><trkpt lat="42.85632251697231" lon="10.432262673347307"><ele>9.6</ele><time>2026-04-21T15:59:22Z</time></trkpt><trkpt lat="42.856352764860894" lon="10.432117652944354"><ele>10.2</ele><time>2026-04-21T15:59:23Z</time></trkpt><trkpt lat="42.85637871091002" lon="10.431968748140067"><ele>10.799999999999999</ele><time>2026-04-21T15:59:24Z</time></trkpt><trkpt lat="42.856395163469365" lon="10.431818978268323"><ele>11.4</ele><time>2026-04-21T15:59:25Z</time></trkpt><trkpt lat="42.85639959366315" lon="10.431663525979669"><ele>12.0</ele><time>2026-04-21T15:59:26Z</time></trkpt><trkpt lat="42.85639613152657" lon="10.431510268793438"><ele>12.0</ele><time>2026-04-21T15:59:27Z</time></trkpt><trkpt lat="42.85639022545291" lon="10.431363954665809"><ele>12.0</ele><time>2026-04-21T15:59:28Z</time></trkpt><trkpt lat="42.85638752735443" lon="10.431217174862253"><ele>12.0</ele><time>2026-04-21T15:59:29Z</time></trkpt><trkpt lat="42.85639382385738" lon="10.431083043708659"><ele>12.0</ele><time>2026-04-21T15:59:30Z</time></trkpt><trkpt lat="42.85640388098244" lon="10.430947444561093"><ele>12.0</ele><time>2026-04-21T15:59:31Z</time></trkpt><trkpt lat="42.85641457920143" lon="10.43081453087854"><ele>12.166666666666666</ele><time>2026-04-21T15:59:32Z</time></trkpt><trkpt lat="42.856432226004415" lon="10.430692063286662"><ele>12.333333333333332</ele><time>2026-04-21T15:59:33Z</time></trkpt><trkpt lat="42.85645044634906" lon="10.430572106070908"><ele>12.5</ele><time>2026-04-21T15:59:34Z</time></trkpt><trkpt lat="42.85646306045155" lon="10.430457024198025"><ele>12.666666666666666</ele><time>2026-04-21T15:59:35Z</time></trkpt><trkpt lat="42.85645726782074" lon="10.4303429733104"><ele>12.833333333333332</ele><time>2026-04-21T15:59:36Z</time></trkpt><trkpt lat="42.856439449204025" lon="10.430238004019778"><ele>13.0</ele><time>2026-04-21T15:59:37Z</time></trkpt><trkpt lat="42.85641068418621" lon="10.430139052418717"><ele>12.0</ele><time>2026-04-21T15:59:38Z</time></trkpt><trkpt lat="42.85636736807024" lon="10.430035389809712"><ele>11.0</ele><time>2026-04-21T15:59:39Z</time></trkpt><trkpt lat="42.85634207713479" lon="10.429912357474416"><ele>10.0</ele><time>2026-04-21T15:59:40Z</time></trkpt><trkpt lat="42.85628218907531" lon="10.429796228157983"><ele>9.0</ele><time>2026-04-21T15:59:41Z</time></trkpt><trkpt lat="42.856256899386445" lon="10.4296825080672"><ele>8.0</ele><time>2026-04-21T15:59:42Z</time></trkpt><trkpt lat="42.856221532638266" lon="10.429581692229894"><ele>7.428571428571428</ele><time>2026-04-21T15:59:43Z</time></trkpt><trkpt lat="42.856188789589034" lon="10.429484428550714"><ele>6.857142857142856</ele><time>2026-04-21T15:59:44Z</time></trkpt><trkpt lat="42.85615657921403" lon="10.42939289298286"><ele>6.285714285714286</ele><time>2026-04-21T15:59:45Z</time></trkpt><trkpt lat="42.856124802197876" lon="10.429299296427542"><ele>5.7142857142857135</ele><time>2026-04-21T15:59:46Z</time></trkpt><trkpt lat="42.85609529872815" lon="10.429209485894873"><ele>5.142857142857142</ele><time>2026-04-21T15:59:47Z</time></trkpt><trkpt lat="42.856072600889846" lon="10.429114415749451"><ele>4.571428571428571</ele><time>2026-04-21T15:59:48Z</time></trkpt><trkpt lat="42.85606339059457" lon="10.429020659227568"><ele>4.0</ele><time>2026-04-21T15:59:49Z</time></trkpt><trkpt lat="42.85606527107765" lon="10.428916356942823"><ele>3.9999999999999996</ele><time>2026-04-21T15:59:50Z</time></trkpt><trkpt lat="42.85608598293111" lon="10.428814476185256"><ele>4.0</ele><time>2026-04-21T15:59:51Z</time></trkpt><trkpt lat="42.85612502118676" lon="10.428714226405923"><ele>4.0</ele><time>2026-04-21T15:59:52Z</time></trkpt><trkpt lat="42.85618136951012" lon="10.428623358195834"><ele>4.0</ele><time>2026-04-21T15:59:53Z</time></trkpt><trkpt lat="42.856241113318355" lon="10.428528593187938"><ele>3.9999999999999996</ele><time>2026-04-21T15:59:54Z</time></trkpt><trkpt lat="42.856301982755795" lon="10.42843792073773"><ele>4.0</ele><time>2026-04-21T15:59:55Z</time></trkpt><trkpt lat="42.856362772826586" lon="10.428361461935776"><ele>4.5</ele><time>2026-04-21T15:59:56Z</time></trkpt><trkpt lat="42.85642582258915" lon="10.428281347200805"><ele>5.0</ele><time>2026-04-21T15:59:57Z</time></trkpt><trkpt lat="42.856488012477165" lon="10.428201372100169"><ele>5.5</ele><time>2026-04-21T15:59:58Z</time></trkpt><trkpt lat="42.85654968537301" lon="10.428118624704942"><ele>6.0</ele><time>2026-04-21T15:59:59Z</time></trkpt><trkpt lat="42.85661068980944" lon="10.428037914546268"><ele>6.500000000000001</ele><time>2026-04-21T16:00:00Z</time></trkpt><trkpt lat="42.8566777173105" lon="10.427956565056391"><ele>7.0</ele><time>2026-04-21T16:00:01Z</time></trkpt><trkpt lat="42.85673286629316" lon="10.427873976568677"><ele>7.500000000000001</ele><time>2026-04-21T16:00:02Z</time></trkpt><trkpt lat="42.85678220606053" lon="10.427787374845739"><ele>8.0</ele><time>2026-04-21T16:00:03Z</time></trkpt><trkpt lat="42.85680642076836" lon="10.427689313944903"><ele>8.5</ele><time>2026-04-21T16:00:04Z</time></trkpt><trkpt lat="42.85682130810774" lon="10.427592165084237"><ele>9.0</ele><time>2026-04-21T16:00:05Z</time></trkpt><trkpt lat="42.856829777987606" lon="10.427475868203251"><ele>9.5</ele><time>2026-04-21T16:00:06Z</time></trkpt><trkpt lat="42.85681967875124" lon="10.427364502095159"><ele>10.0</ele><time>2026-04-21T16:00:07Z</time></trkpt><trkpt lat="42.856803484281826" lon="10.427256444488972"><ele>9.166666666666668</ele><time>2026-04-21T16:00:08Z</time></trkpt><trkpt lat="42.85678975928623" lon="10.427166845301151"><ele>8.333333333333334</ele><time>2026-04-21T16:00:09Z</time></trkpt><trkpt lat="42.856776061991006" lon="10.42707135367901"><ele>7.5</ele><time>2026-04-21T16:00:10Z</time></trkpt><trkpt lat="42.856750779658746" lon="10.426976872056594"><ele>6.666666666666667</ele><time>2026-04-21T16:00:11Z</time></trkpt><trkpt lat="42.856721706206926" lon="10.426878790840362"><ele>5.833333333333334</ele><time>2026-04-21T16:00:12Z</time></trkpt><trkpt lat="42.85669020494638" lon="10.42678007323684"><ele>5.0</ele><time>2026-04-21T16:00:13Z</time></trkpt><trkpt lat="42.85665723657588" lon="10.426677765510478"><ele>5.0</ele><time>2026-04-21T16:00:14Z</time></trkpt><trkpt lat="42.85661071559072" lon="10.42657095119882"><ele>5.0</ele><time>2026-04-21T16:00:15Z</time></trkpt><trkpt lat="42.856557380351425" lon="10.426464322822524"><ele>5.0</ele><time>2026-04-21T16:00:16Z</time></trkpt><trkpt lat="42.85649715949345" lon="10.426360241393947"><ele>5.0</ele><time>2026-04-21T16:00:17Z</time></trkpt><trkpt lat="42.856433972653996" lon="10.426269582600966"><ele>5.0</ele><time>2026-04-21T16:00:18Z</time></trkpt><trkpt lat="42.85637550224509" lon="10.426187562956343"><ele>4.5</ele><time>2026-04-21T16:00:19Z</time></trkpt><trkpt lat="42.85631772314645" lon="10.426127867144103"><ele>4.0</ele><time>2026-04-21T16:00:20Z</time></trkpt><trkpt lat="42.856273335636764" lon="10.426057166421876"><ele>3.5</ele><time>2026-04-21T16:00:21Z</time></trkpt><trkpt lat="42.856248468617146" lon="10.425930114207867"><ele>3.0</ele><time>2026-04-21T16:00:23Z</time></trkpt><trkpt lat="42.85628451991365" lon="10.425789471679769"><ele>2.5</ele><time>2026-04-21T16:00:25Z</time></trkpt><trkpt lat="42.856333116634765" lon="10.425732533399403"><ele>2.0</ele><time>2026-04-21T16:00:26Z</time></trkpt><trkpt lat="42.856393486957714" lon="10.425676881050794"><ele>1.9999999999999998</ele><time>2026-04-21T16:00:27Z</time></trkpt><trkpt lat="42.85646283473433" lon="10.425638657285996"><ele>2.0</ele><time>2026-04-21T16:00:28Z</time></trkpt><trkpt lat="42.856536380618124" lon="10.425588814060019"><ele>2.0</ele><time>2026-04-21T16:00:29Z</time></trkpt><trkpt lat="42.85661088880917" lon="10.425532385965225"><ele>2.0</ele><time>2026-04-21T16:00:30Z</time></trkpt><trkpt lat="42.85668989664914" lon="10.425480556761432"><ele>1.9999999999999998</ele><time>2026-04-21T16:00:31Z</time></trkpt><trkpt lat="42.8567731768969" lon="10.425426023353676"><ele>2.0</ele><time>2026-04-21T16:00:32Z</time></trkpt><trkpt lat="42.85685904415436" lon="10.425371393072867"><ele>2.2</ele><time>2026-04-21T16:00:33Z</time></trkpt><trkpt lat="42.856941734177326" lon="10.425311902778912"><ele>2.4000000000000004</ele><time>2026-04-21T16:00:34Z</time></trkpt><trkpt lat="42.857019269955586" lon="10.425262124598593"><ele>2.5999999999999996</ele><time>2026-04-21T16:00:35Z</time></trkpt><trkpt lat="42.857093169480706" lon="10.425218177429132"><ele>2.8</ele><time>2026-04-21T16:00:36Z</time></trkpt><trkpt lat="42.85715913408451" lon="10.425182223626"><ele>3.0</ele><time>2026-04-21T16:00:37Z</time></trkpt><trkpt lat="42.85727124318419" lon="10.425121934591608"><ele>3.0</ele><time>2026-04-21T16:00:39Z</time></trkpt><trkpt lat="42.85734488163663" lon="10.425015559011161"><ele>3.0</ele><time>2026-04-21T16:00:41Z</time></trkpt><trkpt lat="42.85741219826103" lon="10.424879544037973"><ele>3.0</ele><time>2026-04-21T16:00:43Z</time></trkpt><trkpt lat="42.85745513705558" lon="10.42481179499402"><ele>3.0</ele><time>2026-04-21T16:00:44Z</time></trkpt><trkpt lat="42.857499885185106" lon="10.424737183279884"><ele>3.0</ele><time>2026-04-21T16:00:45Z</time></trkpt><trkpt lat="42.85753487109629" lon="10.424658511390424"><ele>3.0</ele><time>2026-04-21T16:00:46Z</time></trkpt><trkpt lat="42.857576318589444" lon="10.424573401247628"><ele>2.6</ele><time>2026-04-21T16:00:47Z</time></trkpt><trkpt lat="42.857620296703075" lon="10.42449826149054"><ele>2.1999999999999997</ele><time>2026-04-21T16:00:48Z</time></trkpt><trkpt lat="42.85769931545004" lon="10.424375964069123"><ele>1.8</ele><time>2026-04-21T16:00:50Z</time></trkpt><trkpt lat="42.85778232282301" lon="10.424265057908329"><ele>1.4</ele><time>2026-04-21T16:00:52Z</time></trkpt><trkpt lat="42.85785136952413" lon="10.424165537821452"><ele>1.0</ele><time>2026-04-21T16:00:54Z</time></trkpt><trkpt lat="42.85791009207263" lon="10.424091400098549"><ele>1.0</ele><time>2026-04-21T16:00:57Z</time></trkpt><trkpt lat="42.85783963253896" lon="10.424087653804348"><ele>1.0</ele><time>2026-04-21T16:01:06Z</time></trkpt><trkpt lat="42.85779866677908" lon="10.42417209737041"><ele>1.0</ele><time>2026-04-21T16:01:08Z</time></trkpt><trkpt lat="42.85773350518244" lon="10.424284897245744"><ele>1.0</ele><time>2026-04-21T16:01:10Z</time></trkpt><trkpt lat="42.857655258955525" lon="10.424406377881311"><ele>1.0</ele><time>2026-04-21T16:01:12Z</time></trkpt><trkpt lat="42.85760061689669" lon="10.424496480409116"><ele>1.4</ele><time>2026-04-21T16:01:14Z</time></trkpt><trkpt lat="42.857555781239185" lon="10.424571355028311"><ele>1.8</ele><time>2026-04-21T16:02:28Z</time></trkpt><trkpt lat="42.857498773039374" lon="10.424669524504658"><ele>2.1999999999999997</ele><time>2026-04-21T16:02:40Z</time></trkpt><trkpt lat="42.85745084403432" lon="10.42476835396068"><ele>2.6</ele><time>2026-04-21T16:02:42Z</time></trkpt><trkpt lat="42.857378186762595" lon="10.424852053012074"><ele>3.0</ele><time>2026-04-21T16:02:44Z</time></trkpt><trkpt lat="42.85747823774595" lon="10.424792682583947"><ele>3.0</ele><time>2026-04-21T16:03:07Z</time></trkpt><trkpt lat="42.85753833963009" lon="10.424697333706625"><ele>3.0</ele><time>2026-04-21T16:03:09Z</time></trkpt><trkpt lat="42.857579881311345" lon="10.424625055495978"><ele>3.0</ele><time>2026-04-21T16:03:20Z</time></trkpt><trkpt lat="42.85761960728874" lon="10.424531461061727"><ele>3.0</ele><time>2026-04-21T16:03:22Z</time></trkpt><trkpt lat="42.8576774998717" lon="10.424426253821201"><ele>3.0</ele><time>2026-04-21T16:03:24Z</time></trkpt><trkpt lat="42.85774191645637" lon="10.424321926993795"><ele>3.0</ele><time>2026-04-21T16:03:26Z</time></trkpt><trkpt lat="42.85782228018498" lon="10.424197783142002"><ele>2.714285714285714</ele><time>2026-04-21T16:03:28Z</time></trkpt><trkpt lat="42.85786098896132" lon="10.42412810329096"><ele>2.4285714285714284</ele><time>2026-04-21T16:03:29Z</time></trkpt><trkpt lat="42.85791792868614" lon="10.42405641395175"><ele>2.142857142857143</ele><time>2026-04-21T16:03:30Z</time></trkpt><trkpt lat="42.85797292878932" lon="10.423986596583102"><ele>1.857142857142857</ele><time>2026-04-21T16:03:31Z</time></trkpt><trkpt lat="42.858030021428455" lon="10.423918262720948"><ele>1.5714285714285712</ele><time>2026-04-21T16:03:32Z</time></trkpt><trkpt lat="42.858085258804124" lon="10.423846941659262"><ele>1.2857142857142856</ele><time>2026-04-21T16:03:33Z</time></trkpt><trkpt lat="42.858143612561776" lon="10.42377370595043"><ele>1.0</ele><time>2026-04-21T16:03:34Z</time></trkpt><trkpt lat="42.858195602764994" lon="10.423685390716397"><ele>0.8333333333333333</ele><time>2026-04-21T16:03:35Z</time></trkpt><trkpt lat="42.85825867909924" lon="10.42360996328763"><ele>0.6666666666666666</ele><time>2026-04-21T16:03:36Z</time></trkpt><trkpt lat="42.85832140869177" lon="10.423533778871688"><ele>0.5</ele><time>2026-04-21T16:03:37Z</time></trkpt><trkpt lat="42.858381282631484" lon="10.423450865817651"><ele>0.3333333333333333</ele><time>2026-04-21T16:03:38Z</time></trkpt><trkpt lat="42.85845612932754" lon="10.423385969415245"><ele>0.16666666666666666</ele><time>2026-04-21T16:03:39Z</time></trkpt><trkpt lat="42.858522671982485" lon="10.423316956399916"><ele>0.0</ele><time>2026-04-21T16:03:40Z</time></trkpt><trkpt lat="42.85859083461168" lon="10.423245429839872"><ele>0.0</ele><time>2026-04-21T16:03:41Z</time></trkpt><trkpt lat="42.858656662697584" lon="10.423180517613787"><ele>0.0</ele><time>2026-04-21T16:03:42Z</time></trkpt><trkpt lat="42.85870939332649" lon="10.423123035438"><ele>0.0</ele><time>2026-04-21T16:03:43Z</time></trkpt><trkpt lat="42.85878378046139" lon="10.423020533795482"><ele>0.0</ele><time>2026-04-21T16:03:45Z</time></trkpt><trkpt lat="42.85883788920864" lon="10.422915992018705"><ele>0.0</ele><time>2026-04-21T16:03:48Z</time></trkpt><trkpt lat="42.8588968589796" lon="10.422949945572046"><ele>0.0</ele><time>2026-04-21T16:04:21Z</time></trkpt><trkpt lat="42.85885439515564" lon="10.423013408948533"><ele>0.0</ele><time>2026-04-21T16:04:25Z</time></trkpt></trkseg><trkseg><trkpt lat="42.85876846921011" lon="10.423069670780592"><ele>0.0</ele><time>2026-04-21T16:34:21Z</time></trkpt><trkpt lat="42.85870235800781" lon="10.423063535370138"><ele>0.0</ele><time>2026-04-21T16:34:26Z</time></trkpt><trkpt lat="42.85862904665938" lon="10.423159019118833"><ele>0.0</ele><time>2026-04-21T16:34:28Z</time></trkpt><trkpt lat="42.858535458988" lon="10.423260257243149"><ele>0.0</ele><time>2026-04-21T16:34:30Z</time></trkpt><trkpt lat="42.85848431324586" lon="10.423312648980948"><ele>0.0</ele><time>2026-04-21T16:34:31Z</time></trkpt><trkpt lat="42.85842721100136" lon="10.423370124897005"><ele>0.0</ele><time>2026-04-21T16:34:32Z</time></trkpt><trkpt lat="42.85837316903326" lon="10.423434820660916"><ele>0.16666666666666666</ele><time>2026-04-21T16:34:33Z</time></trkpt><trkpt lat="42.85831977993024" lon="10.42349848523761"><ele>0.3333333333333333</ele><time>2026-04-21T16:34:34Z</time></trkpt><trkpt lat="42.85826199296503" lon="10.423570448233718"><ele>0.5</ele><time>2026-04-21T16:34:35Z</time></trkpt><trkpt lat="42.858205109817945" lon="10.42364347811925"><ele>0.6666666666666666</ele><time>2026-04-21T16:34:36Z</time></trkpt><trkpt lat="42.85814446832963" lon="10.423699814305007"><ele>0.8333333333333333</ele><time>2026-04-21T16:34:37Z</time></trkpt><trkpt lat="42.858083820132535" lon="10.423779705113096"><ele>1.0</ele><time>2026-04-21T16:34:38Z</time></trkpt><trkpt lat="42.85802365622545" lon="10.423858648732855"><ele>0.9999999999999999</ele><time>2026-04-21T16:34:39Z</time></trkpt><trkpt lat="42.85796078792394" lon="10.42393994503148"><ele>1.0</ele><time>2026-04-21T16:34:40Z</time></trkpt><trkpt lat="42.85789609445853" lon="10.424024496773793"><ele>1.0</ele><time>2026-04-21T16:34:41Z</time></trkpt><trkpt lat="42.85783170114114" lon="10.424110831659593"><ele>1.0</ele><time>2026-04-21T16:34:42Z</time></trkpt><trkpt lat="42.857770994658004" lon="10.424196883343894"><ele>0.9999999999999999</ele><time>2026-04-21T16:34:43Z</time></trkpt><trkpt lat="42.85771135885147" lon="10.424282501173872"><ele>1.0</ele><time>2026-04-21T16:34:44Z</time></trkpt><trkpt lat="42.85765254104661" lon="10.424375225905095"><ele>1.3333333333333333</ele><time>2026-04-21T16:34:45Z</time></trkpt><trkpt lat="42.85760197520553" lon="10.42447085940138"><ele>1.6666666666666665</ele><time>2026-04-21T16:34:46Z</time></trkpt><trkpt lat="42.85755199264804" lon="10.424563444004828"><ele>2.0</ele><time>2026-04-21T16:34:47Z</time></trkpt><trkpt lat="42.85749980131014" lon="10.424656123039583"><ele>2.3333333333333335</ele><time>2026-04-21T16:34:48Z</time></trkpt><trkpt lat="42.85745518257" lon="10.424741548020611"><ele>2.6666666666666665</ele><time>2026-04-21T16:34:49Z</time></trkpt><trkpt lat="42.85741596800813" lon="10.424818861931628"><ele>3.0</ele><time>2026-04-21T16:34:50Z</time></trkpt><trkpt lat="42.85734593254586" lon="10.424953859136197"><ele>3.0</ele><time>2026-04-21T16:34:52Z</time></trkpt><trkpt lat="42.85727113321434" lon="10.425095575384555"><ele>3.0</ele><time>2026-04-21T16:34:54Z</time></trkpt><trkpt lat="42.85717569853077" lon="10.425162020580931"><ele>3.0</ele><time>2026-04-21T16:34:56Z</time></trkpt><trkpt lat="42.85707482745534" lon="10.425198880152722"><ele>3.0</ele><time>2026-04-21T16:34:58Z</time></trkpt><trkpt lat="42.8570111415619" lon="10.4252543598062"><ele>3.0</ele><time>2026-04-21T16:34:59Z</time></trkpt><trkpt lat="42.85693304016098" lon="10.425274662141996"><ele>3.0</ele><time>2026-04-21T16:35:00Z</time></trkpt><trkpt lat="42.85686053057821" lon="10.425322478074317"><ele>3.0</ele><time>2026-04-21T16:35:01Z</time></trkpt><trkpt lat="42.85678927147486" lon="10.42537082190418"><ele>3.0</ele><time>2026-04-21T16:35:02Z</time></trkpt><trkpt lat="42.85670795945739" lon="10.425432182621703"><ele>3.0</ele><time>2026-04-21T16:35:03Z</time></trkpt><trkpt lat="42.85664743421866" lon="10.425472252638189"><ele>3.0</ele><time>2026-04-21T16:35:04Z</time></trkpt><trkpt lat="42.856588707233044" lon="10.425509742833258"><ele>3.0</ele><time>2026-04-21T16:35:05Z</time></trkpt><trkpt lat="42.85652923527543" lon="10.425543676900181"><ele>2.75</ele><time>2026-04-21T16:35:06Z</time></trkpt><trkpt lat="42.856414561261985" lon="10.425611019021929"><ele>2.5</ele><time>2026-04-21T16:35:08Z</time></trkpt><trkpt lat="42.85630173785281" lon="10.425689728804501"><ele>2.25</ele><time>2026-04-21T16:35:10Z</time></trkpt><trkpt lat="42.856228059412516" lon="10.425812456069139"><ele>2.0</ele><time>2026-04-21T16:35:12Z</time></trkpt><trkpt lat="42.85621452420046" lon="10.425977070378218"><ele>1.9999999999999998</ele><time>2026-04-21T16:35:14Z</time></trkpt><trkpt lat="42.856212978217236" lon="10.426068553111685"><ele>2.0</ele><time>2026-04-21T16:35:15Z</time></trkpt><trkpt lat="42.856263323627914" lon="10.426140178852984"><ele>2.0</ele><time>2026-04-21T16:35:16Z</time></trkpt><trkpt lat="42.856314843197296" lon="10.426219404736806"><ele>2.0</ele><time>2026-04-21T16:35:17Z</time></trkpt><trkpt lat="42.85638007030593" lon="10.426293315191517"><ele>1.9999999999999998</ele><time>2026-04-21T16:35:18Z</time></trkpt><trkpt lat="42.85643463382633" lon="10.426374396436994"><ele>2.0</ele><time>2026-04-21T16:35:19Z</time></trkpt><trkpt lat="42.85650123037568" lon="10.426456695891972"><ele>2.5</ele><time>2026-04-21T16:35:20Z</time></trkpt><trkpt lat="42.85655910438097" lon="10.426545971289805"><ele>3.0</ele><time>2026-04-21T16:35:21Z</time></trkpt><trkpt lat="42.856606596670346" lon="10.426643177491243"><ele>3.5</ele><time>2026-04-21T16:35:22Z</time></trkpt><trkpt lat="42.85663799098868" lon="10.426742736274036"><ele>4.0</ele><time>2026-04-21T16:35:23Z</time></trkpt><trkpt lat="42.85667560677666" lon="10.42684440390879"><ele>4.5</ele><time>2026-04-21T16:35:24Z</time></trkpt><trkpt lat="42.8566968329268" lon="10.426954472951863"><ele>5.0</ele><time>2026-04-21T16:35:25Z</time></trkpt><trkpt lat="42.85672104584346" lon="10.427060106514753"><ele>5.833333333333334</ele><time>2026-04-21T16:35:26Z</time></trkpt><trkpt lat="42.8567448932838" lon="10.427160524955951"><ele>6.666666666666667</ele><time>2026-04-21T16:35:27Z</time></trkpt><trkpt lat="42.856768592431614" lon="10.427268312965946"><ele>7.5</ele><time>2026-04-21T16:35:28Z</time></trkpt><trkpt lat="42.85677752014657" lon="10.427388400032823"><ele>8.333333333333334</ele><time>2026-04-21T16:35:29Z</time></trkpt><trkpt lat="42.85678548043456" lon="10.427512562074645"><ele>9.166666666666668</ele><time>2026-04-21T16:35:30Z</time></trkpt><trkpt lat="42.85677268650696" lon="10.427634126850688"><ele>10.0</ele><time>2026-04-21T16:35:31Z</time></trkpt><trkpt lat="42.856744029880936" lon="10.42774939767637"><ele>10.0</ele><time>2026-04-21T16:35:32Z</time></trkpt><trkpt lat="42.856687676581345" lon="10.427856480970545"><ele>10.0</ele><time>2026-04-21T16:35:33Z</time></trkpt><trkpt lat="42.85661652479904" lon="10.427951885973885"><ele>10.0</ele><time>2026-04-21T16:35:34Z</time></trkpt><trkpt lat="42.85654751449893" lon="10.428056545705177"><ele>10.0</ele><time>2026-04-21T16:35:35Z</time></trkpt><trkpt lat="42.85646726006034" lon="10.428145955946755"><ele>10.0</ele><time>2026-04-21T16:35:36Z</time></trkpt><trkpt lat="42.856393620743404" lon="10.428243649639613"><ele>9.4</ele><time>2026-04-21T16:35:37Z</time></trkpt><trkpt lat="42.856319392246476" lon="10.428338820059645"><ele>8.8</ele><time>2026-04-21T16:35:38Z</time></trkpt><trkpt lat="42.85624543325229" lon="10.428447328632005"><ele>8.2</ele><time>2026-04-21T16:35:39Z</time></trkpt><trkpt lat="42.85616827286601" lon="10.428541339908712"><ele>7.6</ele><time>2026-04-21T16:35:40Z</time></trkpt><trkpt lat="42.856100121921465" lon="10.428641310376817"><ele>7.0</ele><time>2026-04-21T16:35:41Z</time></trkpt><trkpt lat="42.856047677624744" lon="10.428745648162755"><ele>6.3999999999999995</ele><time>2026-04-21T16:35:42Z</time></trkpt><trkpt lat="42.85601805795275" lon="10.42886537865852"><ele>5.799999999999999</ele><time>2026-04-21T16:35:43Z</time></trkpt><trkpt lat="42.8560132256354" lon="10.428999590171163"><ele>5.2</ele><time>2026-04-21T16:35:44Z</time></trkpt><trkpt lat="42.85603106266677" lon="10.429129046179241"><ele>4.6</ele><time>2026-04-21T16:35:45Z</time></trkpt><trkpt lat="42.85606715992798" lon="10.429267763676657"><ele>4.0</ele><time>2026-04-21T16:35:46Z</time></trkpt><trkpt lat="42.85611613866746" lon="10.429402552419276"><ele>4.0</ele><time>2026-04-21T16:35:47Z</time></trkpt><trkpt lat="42.8561612079686" lon="10.42953820797335"><ele>4.0</ele><time>2026-04-21T16:35:48Z</time></trkpt><trkpt lat="42.8562064012727" lon="10.429669138795632"><ele>4.0</ele><time>2026-04-21T16:35:49Z</time></trkpt><trkpt lat="42.85624384387542" lon="10.429795462207457"><ele>4.0</ele><time>2026-04-21T16:35:50Z</time></trkpt><trkpt lat="42.856287070520445" lon="10.429920458177689"><ele>4.0</ele><time>2026-04-21T16:35:51Z</time></trkpt><trkpt lat="42.856331645402356" lon="10.430042252925748"><ele>4.800000000000001</ele><time>2026-04-21T16:35:52Z</time></trkpt><trkpt lat="42.85636006250181" lon="10.430171320021913"><ele>5.6000000000000005</ele><time>2026-04-21T16:35:53Z</time></trkpt><trkpt lat="42.856388270628635" lon="10.43029779875236"><ele>6.4</ele><time>2026-04-21T16:35:54Z</time></trkpt><trkpt lat="42.856397967604224" lon="10.430431187910068"><ele>7.2</ele><time>2026-04-21T16:35:55Z</time></trkpt><trkpt lat="42.85639191083445" lon="10.430569808649883"><ele>8.0</ele><time>2026-04-21T16:35:56Z</time></trkpt><trkpt lat="42.8563627294841" lon="10.430710060071705"><ele>8.8</ele><time>2026-04-21T16:35:57Z</time></trkpt><trkpt lat="42.856350725788666" lon="10.430850507721138"><ele>9.600000000000001</ele><time>2026-04-21T16:35:58Z</time></trkpt><trkpt lat="42.85633993779584" lon="10.43099435854823"><ele>10.399999999999999</ele><time>2026-04-21T16:35:59Z</time></trkpt><trkpt lat="42.85632852089165" lon="10.431131037543773"><ele>11.2</ele><time>2026-04-21T16:36:00Z</time></trkpt><trkpt lat="42.856324335449884" lon="10.431274209342591"><ele>12.0</ele><time>2026-04-21T16:36:01Z</time></trkpt><trkpt lat="42.85632349972061" lon="10.431409912750452"><ele>12.0</ele><time>2026-04-21T16:36:02Z</time></trkpt><trkpt lat="42.8563292375879" lon="10.431545912088593"><ele>12.0</ele><time>2026-04-21T16:36:03Z</time></trkpt><trkpt lat="42.856342410742904" lon="10.431686747487058"><ele>12.0</ele><time>2026-04-21T16:36:04Z</time></trkpt><trkpt lat="42.85634043955176" lon="10.431829665408516"><ele>12.0</ele><time>2026-04-21T16:36:05Z</time></trkpt><trkpt lat="42.85632190621504" lon="10.431964258873219"><ele>12.0</ele><time>2026-04-21T16:36:06Z</time></trkpt><trkpt lat="42.8563036721361" lon="10.432097338696503"><ele>11.4</ele><time>2026-04-21T16:36:07Z</time></trkpt><trkpt lat="42.85628050686193" lon="10.43222462388165"><ele>10.799999999999999</ele><time>2026-04-21T16:36:08Z</time></trkpt><trkpt lat="42.85625555317778" lon="10.432355380043049"><ele>10.2</ele><time>2026-04-21T16:36:09Z</time></trkpt><trkpt lat="42.85624130585986" lon="10.432480950638316"><ele>9.6</ele><time>2026-04-21T16:36:10Z</time></trkpt><trkpt lat="42.85622302443111" lon="10.432618689007459"><ele>9.0</ele><time>2026-04-21T16:36:11Z</time></trkpt><trkpt lat="42.85621090657065" lon="10.432747803163124"><ele>9.0</ele><time>2026-04-21T16:36:12Z</time></trkpt><trkpt lat="42.856184812552065" lon="10.432869390532378"><ele>9.0</ele><time>2026-04-21T16:36:13Z</time></trkpt><trkpt lat="42.856166647088294" lon="10.432995586002207"><ele>9.0</ele><time>2026-04-21T16:36:14Z</time></trkpt><trkpt lat="42.856149305287666" lon="10.433128840091998"><ele>9.0</ele><time>2026-04-21T16:36:15Z</time></trkpt><trkpt lat="42.85611591422757" lon="10.433265254670486"><ele>9.0</ele><time>2026-04-21T16:36:16Z</time></trkpt><trkpt lat="42.85608201694823" lon="10.43340226441976"><ele>8.333333333333334</ele><time>2026-04-21T16:36:17Z</time></trkpt><trkpt lat="42.85604387203732" lon="10.433513980204415"><ele>7.666666666666667</ele><time>2026-04-21T16:36:18Z</time></trkpt><trkpt lat="42.85600397870059" lon="10.43359903797745"><ele>7.0</ele><time>2026-04-21T16:36:19Z</time></trkpt><trkpt lat="42.85595381700951" lon="10.43367330018016"><ele>6.333333333333334</ele><time>2026-04-21T16:36:20Z</time></trkpt><trkpt lat="42.85588990146758" lon="10.433733171338135"><ele>5.666666666666667</ele><time>2026-04-21T16:36:21Z</time></trkpt><trkpt lat="42.85582200692622" lon="10.433801114148567"><ele>5.0</ele><time>2026-04-21T16:36:22Z</time></trkpt><trkpt lat="42.85574973183434" lon="10.433876817189965"><ele>7.6</ele><time>2026-04-21T16:36:23Z</time></trkpt><trkpt lat="42.855675222237544" lon="10.433967173415704"><ele>10.2</ele><time>2026-04-21T16:36:24Z</time></trkpt><trkpt lat="42.855595013777176" lon="10.43405380613322"><ele>12.8</ele><time>2026-04-21T16:36:25Z</time></trkpt><trkpt lat="42.8555217724103" lon="10.434121638409058"><ele>15.4</ele><time>2026-04-21T16:36:26Z</time></trkpt><trkpt lat="42.85545582152261" lon="10.434196781371927"><ele>18.0</ele><time>2026-04-21T16:36:27Z</time></trkpt><trkpt lat="42.85539240202453" lon="10.434248135452572"><ele>18.0</ele><time>2026-04-21T16:36:28Z</time></trkpt><trkpt lat="42.85526591112551" lon="10.434255386611055"><ele>18.0</ele><time>2026-04-21T16:36:30Z</time></trkpt><trkpt lat="42.85519940501998" lon="10.434213504433743"><ele>18.0</ele><time>2026-04-21T16:36:31Z</time></trkpt><trkpt lat="42.85513189584932" lon="10.434167097820813"><ele>18.0</ele><time>2026-04-21T16:36:32Z</time></trkpt><trkpt lat="42.855083170459736" lon="10.434090330058503"><ele>18.0</ele><time>2026-04-21T16:36:33Z</time></trkpt><trkpt lat="42.85502859577774" lon="10.434003854141055"><ele>18.0</ele><time>2026-04-21T16:36:34Z</time></trkpt><trkpt lat="42.85497089841145" lon="10.43390860450117"><ele>19.0</ele><time>2026-04-21T16:36:35Z</time></trkpt><trkpt lat="42.85490097939186" lon="10.433824674014012"><ele>20.0</ele><time>2026-04-21T16:36:36Z</time></trkpt><trkpt lat="42.85482777335189" lon="10.433745035555084"><ele>21.0</ele><time>2026-04-21T16:36:37Z</time></trkpt><trkpt lat="42.85474441631639" lon="10.433677150011407"><ele>22.0</ele><time>2026-04-21T16:36:38Z</time></trkpt><trkpt lat="42.85467204439608" lon="10.433615352071596"><ele>23.0</ele><time>2026-04-21T16:36:39Z</time></trkpt><trkpt lat="42.85460399642025" lon="10.433575150616734"><ele>24.0</ele><time>2026-04-21T16:36:40Z</time></trkpt><trkpt lat="42.85453623718151" lon="10.433546887472932"><ele>22.666666666666668</ele><time>2026-04-21T16:36:41Z</time></trkpt><trkpt lat="42.85446654516243" lon="10.433552192969087"><ele>21.333333333333332</ele><time>2026-04-21T16:36:42Z</time></trkpt><trkpt lat="42.85439489143342" lon="10.433575379008541"><ele>20.0</ele><time>2026-04-21T16:36:43Z</time></trkpt><trkpt lat="42.854324562907614" lon="10.43363011962925"><ele>18.666666666666664</ele><time>2026-04-21T16:36:44Z</time></trkpt><trkpt lat="42.85425318615814" lon="10.433698686686718"><ele>17.333333333333332</ele><time>2026-04-21T16:36:45Z</time></trkpt><trkpt lat="42.85418457714254" lon="10.433756992634954"><ele>16.0</ele><time>2026-04-21T16:36:46Z</time></trkpt><trkpt lat="42.854108537692255" lon="10.433844162097705"><ele>16.0</ele><time>2026-04-21T16:36:47Z</time></trkpt><trkpt lat="42.854026487541425" lon="10.433895806109172"><ele>16.0</ele><time>2026-04-21T16:36:48Z</time></trkpt><trkpt lat="42.85393752837835" lon="10.433922604193054"><ele>16.0</ele><time>2026-04-21T16:36:49Z</time></trkpt><trkpt lat="42.85384477010768" lon="10.433905464629717"><ele>16.0</ele><time>2026-04-21T16:36:50Z</time></trkpt><trkpt lat="42.8537460426814" lon="10.43390546462922"><ele>16.0</ele><time>2026-04-21T16:36:51Z</time></trkpt><trkpt lat="42.853654244030366" lon="10.433905464629738"><ele>16.0</ele><time>2026-04-21T16:36:52Z</time></trkpt><trkpt lat="42.853547705262464" lon="10.433912740530332"><ele>16.0</ele><time>2026-04-21T16:36:53Z</time></trkpt><trkpt lat="42.853450408859224" lon="10.433941965090616"><ele>16.0</ele><time>2026-04-21T16:36:54Z</time></trkpt><trkpt lat="42.85336551118367" lon="10.433987569523852"><ele>16.0</ele><time>2026-04-21T16:36:55Z</time></trkpt><trkpt lat="42.853271463650515" lon="10.433991560287634"><ele>16.0</ele><time>2026-04-21T16:36:56Z</time></trkpt><trkpt lat="42.85318429499518" lon="10.434004116684283"><ele>16.666666666666664</ele><time>2026-04-21T16:36:57Z</time></trkpt><trkpt lat="42.85311000529874" lon="10.434009873634253"><ele>17.333333333333332</ele><time>2026-04-21T16:36:58Z</time></trkpt><trkpt lat="42.853037155388144" lon="10.434012764634108"><ele>18.0</ele><time>2026-04-21T16:36:59Z</time></trkpt><trkpt lat="42.852970236863165" lon="10.43400799256865"><ele>18.666666666666668</ele><time>2026-04-21T16:37:00Z</time></trkpt><trkpt lat="42.85290051190897" lon="10.43400507955803"><ele>19.333333333333336</ele><time>2026-04-21T16:37:01Z</time></trkpt><trkpt lat="42.85283091074016" lon="10.43395439047702"><ele>20.0</ele><time>2026-04-21T16:37:02Z</time></trkpt><trkpt lat="42.85276449454487" lon="10.433875198674112"><ele>23.0</ele><time>2026-04-21T16:37:03Z</time></trkpt><trkpt lat="42.85270502612912" lon="10.433778150474454"><ele>26.0</ele><time>2026-04-21T16:37:04Z</time></trkpt><trkpt lat="42.85264874848249" lon="10.433677108711036"><ele>29.0</ele><time>2026-04-21T16:37:05Z</time></trkpt><trkpt lat="42.852596137833835" lon="10.43357285831139"><ele>32.0</ele><time>2026-04-21T16:37:06Z</time></trkpt><trkpt lat="42.85253976849672" lon="10.43347139359627"><ele>35.0</ele><time>2026-04-21T16:37:07Z</time></trkpt><trkpt lat="42.8524826970294" lon="10.433368461573899"><ele>35.0</ele><time>2026-04-21T16:37:08Z</time></trkpt><trkpt lat="42.85242616389093" lon="10.43326688848383"><ele>35.0</ele><time>2026-04-21T16:37:09Z</time></trkpt><trkpt lat="42.852359508182" lon="10.433178559676538"><ele>35.0</ele><time>2026-04-21T16:37:10Z</time></trkpt><trkpt lat="42.85227865844385" lon="10.433101415427467"><ele>35.0</ele><time>2026-04-21T16:37:11Z</time></trkpt><trkpt lat="42.85219708109413" lon="10.43303140495542"><ele>35.0</ele><time>2026-04-21T16:37:12Z</time></trkpt><trkpt lat="42.85211468335126" lon="10.432962191558815"><ele>37.0</ele><time>2026-04-21T16:37:13Z</time></trkpt><trkpt lat="42.85204232553302" lon="10.432878467541087"><ele>39.0</ele><time>2026-04-21T16:37:14Z</time></trkpt><trkpt lat="42.85196046972555" lon="10.43281537436459"><ele>41.0</ele><time>2026-04-21T16:37:15Z</time></trkpt><trkpt lat="42.851881711692066" lon="10.432745477231004"><ele>43.0</ele><time>2026-04-21T16:37:16Z</time></trkpt><trkpt lat="42.85180498290408" lon="10.432661064196699"><ele>45.0</ele><time>2026-04-21T16:37:17Z</time></trkpt><trkpt lat="42.85172996799999" lon="10.432591175754986"><ele>45.0</ele><time>2026-04-21T16:37:18Z</time></trkpt><trkpt lat="42.85166221846768" lon="10.43252093331352"><ele>45.0</ele><time>2026-04-21T16:37:19Z</time></trkpt><trkpt lat="42.8515950211652" lon="10.432478613970115"><ele>45.0</ele><time>2026-04-21T16:37:20Z</time></trkpt><trkpt lat="42.851518011450814" lon="10.432439506059225"><ele>45.0</ele><time>2026-04-21T16:37:21Z</time></trkpt><trkpt lat="42.85143120813046" lon="10.432456587449312"><ele>45.0</ele><time>2026-04-21T16:37:22Z</time></trkpt><trkpt lat="42.851355017291915" lon="10.432521105394203"><ele>45.0</ele><time>2026-04-21T16:37:23Z</time></trkpt><trkpt lat="42.851314745307306" lon="10.432629619862297"><ele>45.0</ele><time>2026-04-21T16:37:24Z</time></trkpt><trkpt lat="42.851274789509276" lon="10.432734277932743"><ele>45.0</ele><time>2026-04-21T16:37:25Z</time></trkpt><trkpt lat="42.851252959887546" lon="10.432856407910622"><ele>45.0</ele><time>2026-04-21T16:37:26Z</time></trkpt><trkpt lat="42.851236067845704" lon="10.432984368082337"><ele>45.0</ele><time>2026-04-21T16:37:27Z</time></trkpt><trkpt lat="42.85121647104625" lon="10.433112297538665"><ele>45.0</ele><time>2026-04-21T16:37:28Z</time></trkpt><trkpt lat="42.851196230278276" lon="10.433244394727357"><ele>42.2</ele><time>2026-04-21T16:37:29Z</time></trkpt><trkpt lat="42.85117674369314" lon="10.433381267289935"><ele>39.4</ele><time>2026-04-21T16:37:30Z</time></trkpt><trkpt lat="42.85116172424887" lon="10.433517019345334"><ele>36.6</ele><time>2026-04-21T16:37:31Z</time></trkpt><trkpt lat="42.85116055918679" lon="10.433658412640986"><ele>33.8</ele><time>2026-04-21T16:37:32Z</time></trkpt><trkpt lat="42.8511637172779" lon="10.433796920269941"><ele>31.0</ele><time>2026-04-21T16:37:33Z</time></trkpt><trkpt lat="42.851166805429145" lon="10.433935633823332"><ele>30.8</ele><time>2026-04-21T16:37:34Z</time></trkpt><trkpt lat="42.851170115256906" lon="10.434076592882217"><ele>30.6</ele><time>2026-04-21T16:37:35Z</time></trkpt><trkpt lat="42.851165043264054" lon="10.434217830237877"><ele>30.4</ele><time>2026-04-21T16:37:36Z</time></trkpt><trkpt lat="42.85116643802181" lon="10.434357105620252"><ele>30.2</ele><time>2026-04-21T16:37:37Z</time></trkpt><trkpt lat="42.85116397562655" lon="10.434496797505982"><ele>30.0</ele><time>2026-04-21T16:37:38Z</time></trkpt><trkpt lat="42.85115395773774" lon="10.434628724033564"><ele>30.0</ele><time>2026-04-21T16:37:39Z</time></trkpt><trkpt lat="42.85114556055462" lon="10.434761046316323"><ele>30.0</ele><time>2026-04-21T16:37:40Z</time></trkpt><trkpt lat="42.85113091489632" lon="10.434888288423744"><ele>30.0</ele><time>2026-04-21T16:37:41Z</time></trkpt><trkpt lat="42.85110596426311" lon="10.435009227452777"><ele>30.0</ele><time>2026-04-21T16:37:42Z</time></trkpt><trkpt lat="42.85107705993637" lon="10.435135309642162"><ele>30.0</ele><time>2026-04-21T16:37:43Z</time></trkpt><trkpt lat="42.851033991475724" lon="10.435253699621732"><ele>30.0</ele><time>2026-04-21T16:37:44Z</time></trkpt><trkpt lat="42.85097385882449" lon="10.435362426447215"><ele>30.0</ele><time>2026-04-21T16:37:45Z</time></trkpt><trkpt lat="42.8509064774773" lon="10.435467572919336"><ele>30.0</ele><time>2026-04-21T16:37:46Z</time></trkpt><trkpt lat="42.85083780777031" lon="10.43557267036786"><ele>30.0</ele><time>2026-04-21T16:37:47Z</time></trkpt><trkpt lat="42.850766698282676" lon="10.435680090698888"><ele>30.0</ele><time>2026-04-21T16:37:48Z</time></trkpt><trkpt lat="42.850694003494944" lon="10.435778560637855"><ele>31.833333333333332</ele><time>2026-04-21T16:37:49Z</time></trkpt><trkpt lat="42.850625942497985" lon="10.435880719375957"><ele>33.666666666666664</ele><time>2026-04-21T16:37:50Z</time></trkpt><trkpt lat="42.85055795945031" lon="10.435963486705054"><ele>35.5</ele><time>2026-04-21T16:37:51Z</time></trkpt><trkpt lat="42.850511226950616" lon="10.436060190786547"><ele>37.33333333333333</ele><time>2026-04-21T16:37:52Z</time></trkpt><trkpt lat="42.850461490559525" lon="10.43615059737442"><ele>39.166666666666664</ele><time>2026-04-21T16:37:53Z</time></trkpt><trkpt lat="42.85041403676455" lon="10.436245363375383"><ele>41.0</ele><time>2026-04-21T16:37:54Z</time></trkpt><trkpt lat="42.85036987392148" lon="10.436351864034314"><ele>41.0</ele><time>2026-04-21T16:37:55Z</time></trkpt><trkpt lat="42.850318958302886" lon="10.43644559160301"><ele>41.0</ele><time>2026-04-21T16:37:56Z</time></trkpt><trkpt lat="42.85026942008339" lon="10.436552467543873"><ele>41.0</ele><time>2026-04-21T16:37:57Z</time></trkpt><trkpt lat="42.85021184105931" lon="10.43666082680109"><ele>41.0</ele><time>2026-04-21T16:37:58Z</time></trkpt><trkpt lat="42.8501579569934" lon="10.436775685683894"><ele>41.0</ele><time>2026-04-21T16:37:59Z</time></trkpt><trkpt lat="42.85010151617906" lon="10.436890472529726"><ele>40.199999999999996</ele><time>2026-04-21T16:38:00Z</time></trkpt><trkpt lat="42.850039460908576" lon="10.437005442235243"><ele>39.4</ele><time>2026-04-21T16:38:01Z</time></trkpt><trkpt lat="42.84997542310202" lon="10.437124141380417"><ele>38.6</ele><time>2026-04-21T16:38:02Z</time></trkpt><trkpt lat="42.8499094789291" lon="10.437241945331582"><ele>37.8</ele><time>2026-04-21T16:38:03Z</time></trkpt><trkpt lat="42.84983181205066" lon="10.437346123713331"><ele>37.0</ele><time>2026-04-21T16:38:04Z</time></trkpt><trkpt lat="42.84975037738708" lon="10.43743612080856"><ele>37.0</ele><time>2026-04-21T16:38:05Z</time></trkpt><trkpt lat="42.849671652815" lon="10.43750747812859"><ele>37.0</ele><time>2026-04-21T16:38:06Z</time></trkpt><trkpt lat="42.84959549287075" lon="10.437577804050512"><ele>37.0</ele><time>2026-04-21T16:38:07Z</time></trkpt><trkpt lat="42.84952940896685" lon="10.43766936686387"><ele>37.0</ele><time>2026-04-21T16:38:08Z</time></trkpt><trkpt lat="42.84947393413438" lon="10.437779532096139"><ele>37.0</ele><time>2026-04-21T16:38:09Z</time></trkpt><trkpt lat="42.849428360989094" lon="10.437891135879"><ele>38.400000000000006</ele><time>2026-04-21T16:38:10Z</time></trkpt><trkpt lat="42.8493862454487" lon="10.438015588055219"><ele>39.800000000000004</ele><time>2026-04-21T16:38:11Z</time></trkpt><trkpt lat="42.84934140120559" lon="10.438131391588133"><ele>41.2</ele><time>2026-04-21T16:38:12Z</time></trkpt><trkpt lat="42.84929081997657" lon="10.438233283768785"><ele>42.6</ele><time>2026-04-21T16:38:13Z</time></trkpt><trkpt lat="42.84923236559193" lon="10.438328205864686"><ele>44.0</ele><time>2026-04-21T16:38:14Z</time></trkpt><trkpt lat="42.84915558844331" lon="10.43840990430056"><ele>44.0</ele><time>2026-04-21T16:38:15Z</time></trkpt><trkpt lat="42.84906981040037" lon="10.438481738741249"><ele>44.0</ele><time>2026-04-21T16:38:16Z</time></trkpt><trkpt lat="42.84898520148365" lon="10.438554131809708"><ele>44.0</ele><time>2026-04-21T16:38:17Z</time></trkpt><trkpt lat="42.84890342695888" lon="10.438628999813934"><ele>44.0</ele><time>2026-04-21T16:38:18Z</time></trkpt><trkpt lat="42.84882842066768" lon="10.438721427561118"><ele>44.0</ele><time>2026-04-21T16:38:19Z</time></trkpt><trkpt lat="42.84876231936071" lon="10.438835052975952"><ele>44.800000000000004</ele><time>2026-04-21T16:38:20Z</time></trkpt><trkpt lat="42.84869788388355" lon="10.438948817007757"><ele>45.6</ele><time>2026-04-21T16:38:21Z</time></trkpt><trkpt lat="42.84863667356629" lon="10.439064058765153"><ele>46.4</ele><time>2026-04-21T16:38:22Z</time></trkpt><trkpt lat="42.848576545538144" lon="10.439178185350485"><ele>47.2</ele><time>2026-04-21T16:38:23Z</time></trkpt><trkpt lat="42.84851157972089" lon="10.439264633975457"><ele>48.0</ele><time>2026-04-21T16:38:24Z</time></trkpt><trkpt lat="42.848455189331865" lon="10.439368326614737"><ele>48.0</ele><time>2026-04-21T16:38:25Z</time></trkpt><trkpt lat="42.84839639843819" lon="10.439474515246916"><ele>48.0</ele><time>2026-04-21T16:38:26Z</time></trkpt><trkpt lat="42.84834809572296" lon="10.43957310442003"><ele>48.0</ele><time>2026-04-21T16:38:27Z</time></trkpt><trkpt lat="42.84829729838304" lon="10.439664123301421"><ele>48.0</ele><time>2026-04-21T16:38:28Z</time></trkpt><trkpt lat="42.84823183635649" lon="10.439722430959568"><ele>48.0</ele><time>2026-04-21T16:38:29Z</time></trkpt><trkpt lat="42.84816037217891" lon="10.439766194666952"><ele>48.0</ele><time>2026-04-21T16:38:30Z</time></trkpt><trkpt lat="42.8480830641551" lon="10.439797539651671"><ele>46.599999999999994</ele><time>2026-04-21T16:38:31Z</time></trkpt><trkpt lat="42.84799600511795" lon="10.43980124868466"><ele>45.199999999999996</ele><time>2026-04-21T16:38:32Z</time></trkpt><trkpt lat="42.84790727065484" lon="10.439783090080919"><ele>43.8</ele><time>2026-04-21T16:38:33Z</time></trkpt><trkpt lat="42.84781746362272" lon="10.43974762518045"><ele>42.4</ele><time>2026-04-21T16:38:34Z</time></trkpt><trkpt lat="42.847729514070956" lon="10.43969751666238"><ele>41.0</ele><time>2026-04-21T16:38:35Z</time></trkpt><trkpt lat="42.84763710421965" lon="10.439648816615929"><ele>42.8</ele><time>2026-04-21T16:38:36Z</time></trkpt><trkpt lat="42.8475389704353" lon="10.439601960382214"><ele>44.599999999999994</ele><time>2026-04-21T16:38:37Z</time></trkpt><trkpt lat="42.84743409822846" lon="10.43956503492987"><ele>46.4</ele><time>2026-04-21T16:38:38Z</time></trkpt><trkpt lat="42.847326347664236" lon="10.43954111748593"><ele>48.2</ele><time>2026-04-21T16:38:39Z</time></trkpt><trkpt lat="42.84722367163975" lon="10.439528909773276"><ele>50.0</ele><time>2026-04-21T16:38:40Z</time></trkpt><trkpt lat="42.84712689454956" lon="10.43951874221986"><ele>50.00000000000001</ele><time>2026-04-21T16:38:41Z</time></trkpt><trkpt lat="42.84703546403028" lon="10.43950316694231"><ele>50.0</ele><time>2026-04-21T16:38:42Z</time></trkpt><trkpt lat="42.846955147852675" lon="10.439469165000665"><ele>50.0</ele><time>2026-04-21T16:38:43Z</time></trkpt><trkpt lat="42.84687983689573" lon="10.439421962869645"><ele>50.0</ele><time>2026-04-21T16:38:44Z</time></trkpt><trkpt lat="42.84681215948194" lon="10.439351671108051"><ele>50.00000000000001</ele><time>2026-04-21T16:38:45Z</time></trkpt><trkpt lat="42.84675128286812" lon="10.4392673368256"><ele>50.0</ele><time>2026-04-21T16:38:46Z</time></trkpt><trkpt lat="42.84669510156318" lon="10.439176847368012"><ele>49.00000000000001</ele><time>2026-04-21T16:38:47Z</time></trkpt><trkpt lat="42.84664292956646" lon="10.439081556216642"><ele>48.0</ele><time>2026-04-21T16:38:48Z</time></trkpt><trkpt lat="42.84659135125787" lon="10.438999609689064"><ele>47.0</ele><time>2026-04-21T16:38:49Z</time></trkpt><trkpt lat="42.8465317110879" lon="10.438942002925682"><ele>46.0</ele><time>2026-04-21T16:38:50Z</time></trkpt><trkpt lat="42.84646899726773" lon="10.438884756315836"><ele>45.0</ele><time>2026-04-21T16:38:51Z</time></trkpt><trkpt lat="42.84638423559392" lon="10.438866345031629"><ele>44.0</ele><time>2026-04-21T16:38:52Z</time></trkpt><trkpt lat="42.84629423267903" lon="10.438904059135155"><ele>44.0</ele><time>2026-04-21T16:38:53Z</time></trkpt><trkpt lat="42.8462067612022" lon="10.43893159436476"><ele>44.0</ele><time>2026-04-21T16:38:54Z</time></trkpt><trkpt lat="42.84611216145911" lon="10.438975357797487"><ele>44.0</ele><time>2026-04-21T16:38:55Z</time></trkpt><trkpt lat="42.8460135146956" lon="10.438994161778266"><ele>44.0</ele><time>2026-04-21T16:38:56Z</time></trkpt><trkpt lat="42.845916498375004" lon="10.439016757139493"><ele>44.0</ele><time>2026-04-21T16:38:57Z</time></trkpt><trkpt lat="42.845818579087315" lon="10.43901620187428"><ele>43.6</ele><time>2026-04-21T16:38:58Z</time></trkpt><trkpt lat="42.845716938671494" lon="10.43901391476148"><ele>43.2</ele><time>2026-04-21T16:38:59Z</time></trkpt><trkpt lat="42.845623751121614" lon="10.439016401200632"><ele>42.800000000000004</ele><time>2026-04-21T16:39:00Z</time></trkpt><trkpt lat="42.845531355621866" lon="10.439039099728264"><ele>42.400000000000006</ele><time>2026-04-21T16:39:01Z</time></trkpt><trkpt lat="42.845438322782215" lon="10.439102353420742"><ele>42.0</ele><time>2026-04-21T16:39:02Z</time></trkpt><trkpt lat="42.84535862148487" lon="10.439191985259889"><ele>42.0</ele><time>2026-04-21T16:39:03Z</time></trkpt><trkpt lat="42.845309982203936" lon="10.43932034191319"><ele>42.0</ele><time>2026-04-21T16:39:04Z</time></trkpt><trkpt lat="42.845250626650596" lon="10.439431887302161"><ele>42.0</ele><time>2026-04-21T16:39:05Z</time></trkpt><trkpt lat="42.845176164973516" lon="10.439524117150222"><ele>42.0</ele><time>2026-04-21T16:39:06Z</time></trkpt><trkpt lat="42.84511749903492" lon="10.439620189999681"><ele>42.0</ele><time>2026-04-21T16:39:07Z</time></trkpt><trkpt lat="42.84505743349856" lon="10.439701800682169"><ele>41.333333333333336</ele><time>2026-04-21T16:39:08Z</time></trkpt><trkpt lat="42.84499412593777" lon="10.439766905606627"><ele>40.666666666666664</ele><time>2026-04-21T16:39:09Z</time></trkpt><trkpt lat="42.84492387407544" lon="10.439816371380502"><ele>40.0</ele><time>2026-04-21T16:39:10Z</time></trkpt><trkpt lat="42.844848121224324" lon="10.439855288464578"><ele>39.33333333333333</ele><time>2026-04-21T16:39:11Z</time></trkpt><trkpt lat="42.844768222328625" lon="10.439886201768283"><ele>38.666666666666664</ele><time>2026-04-21T16:39:12Z</time></trkpt><trkpt lat="42.84468707921526" lon="10.439891630552525"><ele>38.0</ele><time>2026-04-21T16:39:13Z</time></trkpt><trkpt lat="42.84460650745552" lon="10.439882937440036"><ele>38.0</ele><time>2026-04-21T16:39:14Z</time></trkpt><trkpt lat="42.84452513165386" lon="10.43987123533101"><ele>38.0</ele><time>2026-04-21T16:39:15Z</time></trkpt><trkpt lat="42.84443695349174" lon="10.439854579069348"><ele>38.0</ele><time>2026-04-21T16:39:16Z</time></trkpt><trkpt lat="42.84434395563155" lon="10.439837012400181"><ele>38.0</ele><time>2026-04-21T16:39:17Z</time></trkpt><trkpt lat="42.844254254014835" lon="10.439820068387723"><ele>38.0</ele><time>2026-04-21T16:39:18Z</time></trkpt><trkpt lat="42.844173057601054" lon="10.439800502764866"><ele>38.0</ele><time>2026-04-21T16:39:19Z</time></trkpt><trkpt lat="42.84410151582551" lon="10.439774809182982"><ele>37.33333333333333</ele><time>2026-04-21T16:39:20Z</time></trkpt><trkpt lat="42.844027008262856" lon="10.43975520240054"><ele>36.666666666666664</ele><time>2026-04-21T16:39:21Z</time></trkpt><trkpt lat="42.84395961047822" lon="10.43970008010867"><ele>36.0</ele><time>2026-04-21T16:39:22Z</time></trkpt><trkpt lat="42.84389767609849" lon="10.439627446498198"><ele>35.333333333333336</ele><time>2026-04-21T16:39:23Z</time></trkpt><trkpt lat="42.84383793001082" lon="10.439547817151556"><ele>34.66666666666667</ele><time>2026-04-21T16:39:24Z</time></trkpt><trkpt lat="42.84377731416417" lon="10.439468670161576"><ele>34.0</ele><time>2026-04-21T16:39:25Z</time></trkpt><trkpt lat="42.84371309287228" lon="10.43939117752885"><ele>34.6</ele><time>2026-04-21T16:39:26Z</time></trkpt><trkpt lat="42.84363962344263" lon="10.439324509212803"><ele>35.2</ele><time>2026-04-21T16:39:27Z</time></trkpt><trkpt lat="42.843555995937955" lon="10.439282283708526"><ele>35.800000000000004</ele><time>2026-04-21T16:39:28Z</time></trkpt><trkpt lat="42.84346835171298" lon="10.439235605957332"><ele>36.4</ele><time>2026-04-21T16:39:29Z</time></trkpt><trkpt lat="42.84337216598289" lon="10.439246352170361"><ele>37.0</ele><time>2026-04-21T16:39:30Z</time></trkpt><trkpt lat="42.84327431579209" lon="10.439256338567459"><ele>37.0</ele><time>2026-04-21T16:39:31Z</time></trkpt><trkpt lat="42.84317656646999" lon="10.439252849917406"><ele>37.0</ele><time>2026-04-21T16:39:32Z</time></trkpt><trkpt lat="42.843077580018075" lon="10.439265382070777"><ele>37.0</ele><time>2026-04-21T16:39:33Z</time></trkpt><trkpt lat="42.84297805239114" lon="10.439264540134143"><ele>37.0</ele><time>2026-04-21T16:39:34Z</time></trkpt><trkpt lat="42.84287834852211" lon="10.439256266263037"><ele>37.0</ele><time>2026-04-21T16:39:35Z</time></trkpt><trkpt lat="42.84277939422991" lon="10.439234109051213"><ele>37.0</ele><time>2026-04-21T16:39:36Z</time></trkpt><trkpt lat="42.84268219036593" lon="10.439208234112352"><ele>37.0</ele><time>2026-04-21T16:39:37Z</time></trkpt><trkpt lat="42.84258355954586" lon="10.439182720212136"><ele>37.0</ele><time>2026-04-21T16:39:38Z</time></trkpt><trkpt lat="42.842484669702436" lon="10.439156543383714"><ele>37.0</ele><time>2026-04-21T16:39:39Z</time></trkpt><trkpt lat="42.8423820868007" lon="10.439135476966726"><ele>37.0</ele><time>2026-04-21T16:39:40Z</time></trkpt><trkpt lat="42.84227842360799" lon="10.43911947723156"><ele>37.2</ele><time>2026-04-21T16:39:41Z</time></trkpt><trkpt lat="42.84217324438086" lon="10.439111451886841"><ele>37.400000000000006</ele><time>2026-04-21T16:39:42Z</time></trkpt><trkpt lat="42.84207631201057" lon="10.439095227365778"><ele>37.599999999999994</ele><time>2026-04-21T16:39:43Z</time></trkpt><trkpt lat="42.84198024618396" lon="10.439094358752843"><ele>37.8</ele><time>2026-04-21T16:39:44Z</time></trkpt><trkpt lat="42.84188419835924" lon="10.439092799835521"><ele>38.0</ele><time>2026-04-21T16:39:45Z</time></trkpt><trkpt lat="42.84178498232693" lon="10.439091628590825"><ele>37.4</ele><time>2026-04-21T16:39:46Z</time></trkpt><trkpt lat="42.841686860225714" lon="10.43908913072698"><ele>36.8</ele><time>2026-04-21T16:39:47Z</time></trkpt><trkpt lat="42.84158834180284" lon="10.439086261778872"><ele>36.2</ele><time>2026-04-21T16:39:48Z</time></trkpt><trkpt lat="42.841487736706824" lon="10.439081874136148"><ele>35.6</ele><time>2026-04-21T16:39:49Z</time></trkpt><trkpt lat="42.84138919554419" lon="10.439075367041228"><ele>35.0</ele><time>2026-04-21T16:39:50Z</time></trkpt><trkpt lat="42.84128753688171" lon="10.439070731443726"><ele>35.0</ele><time>2026-04-21T16:39:51Z</time></trkpt><trkpt lat="42.8411876091015" lon="10.439066133344273"><ele>35.0</ele><time>2026-04-21T16:39:52Z</time></trkpt><trkpt lat="42.84108587723369" lon="10.439062943234765"><ele>35.0</ele><time>2026-04-21T16:39:53Z</time></trkpt><trkpt lat="42.84098297373197" lon="10.439057689191213"><ele>35.0</ele><time>2026-04-21T16:39:54Z</time></trkpt><trkpt lat="42.840888974265674" lon="10.439051049306139"><ele>35.0</ele><time>2026-04-21T16:39:55Z</time></trkpt><trkpt lat="42.840800966366984" lon="10.439047420702277"><ele>34.33333333333333</ele><time>2026-04-21T16:39:56Z</time></trkpt><trkpt lat="42.84072022578148" lon="10.439042391768803"><ele>33.666666666666664</ele><time>2026-04-21T16:39:57Z</time></trkpt><trkpt lat="42.84064125755407" lon="10.439037088270087"><ele>33.0</ele><time>2026-04-21T16:39:58Z</time></trkpt><trkpt lat="42.8405599018293" lon="10.439033073994212"><ele>32.333333333333336</ele><time>2026-04-21T16:39:59Z</time></trkpt><trkpt lat="42.84047656327489" lon="10.439020446930712"><ele>31.666666666666668</ele><time>2026-04-21T16:40:00Z</time></trkpt><trkpt lat="42.840395183792985" lon="10.439009145241645"><ele>31.0</ele><time>2026-04-21T16:40:01Z</time></trkpt><trkpt lat="42.84032270805654" lon="10.438993771122181"><ele>31.000000000000004</ele><time>2026-04-21T16:40:02Z</time></trkpt><trkpt lat="42.840239739623115" lon="10.43895907377589"><ele>31.0</ele><time>2026-04-21T16:40:03Z</time></trkpt><trkpt lat="42.840159009736894" lon="10.438910361164124"><ele>31.0</ele><time>2026-04-21T16:40:04Z</time></trkpt><trkpt lat="42.84008506993582" lon="10.438857178830414"><ele>31.0</ele><time>2026-04-21T16:40:05Z</time></trkpt><trkpt lat="42.840014581260796" lon="10.438797484888246"><ele>31.000000000000004</ele><time>2026-04-21T16:40:06Z</time></trkpt><trkpt lat="42.839945230401" lon="10.438738625398651"><ele>31.0</ele><time>2026-04-21T16:40:07Z</time></trkpt><trkpt lat="42.83988156273629" lon="10.438690673893946"><ele>33.714285714285715</ele><time>2026-04-21T16:40:08Z</time></trkpt><trkpt lat="42.83981624009779" lon="10.43866477358756"><ele>36.42857142857143</ele><time>2026-04-21T16:40:09Z</time></trkpt><trkpt lat="42.83975216270002" lon="10.438655431805664"><ele>39.142857142857146</ele><time>2026-04-21T16:40:10Z</time></trkpt><trkpt lat="42.83968589318256" lon="10.4386457482827"><ele>41.85714285714286</ele><time>2026-04-21T16:40:11Z</time></trkpt><trkpt lat="42.83961104094183" lon="10.438643872655089"><ele>44.57142857142857</ele><time>2026-04-21T16:40:12Z</time></trkpt><trkpt lat="42.8395311506156" lon="10.43864628260983"><ele>47.28571428571429</ele><time>2026-04-21T16:40:13Z</time></trkpt><trkpt lat="42.83944789399586" lon="10.438646821308598"><ele>50.0</ele><time>2026-04-21T16:40:14Z</time></trkpt><trkpt lat="42.839360699363155" lon="10.438640966669766"><ele>49.833333333333336</ele><time>2026-04-21T16:40:15Z</time></trkpt><trkpt lat="42.839269452404906" lon="10.438647296259955"><ele>49.66666666666667</ele><time>2026-04-21T16:40:16Z</time></trkpt><trkpt lat="42.83918154391593" lon="10.438641662868559"><ele>49.5</ele><time>2026-04-21T16:40:17Z</time></trkpt><trkpt lat="42.839088148535524" lon="10.43862252005048"><ele>49.33333333333333</ele><time>2026-04-21T16:40:18Z</time></trkpt><trkpt lat="42.839000478794695" lon="10.438591212401306"><ele>49.166666666666664</ele><time>2026-04-21T16:40:19Z</time></trkpt><trkpt lat="42.838920054954535" lon="10.438566045577634"><ele>49.0</ele><time>2026-04-21T16:40:20Z</time></trkpt><trkpt lat="42.83884769769155" lon="10.4385397786225"><ele>48.99999999999999</ele><time>2026-04-21T16:40:21Z</time></trkpt><trkpt lat="42.838778230395484" lon="10.438514032289206"><ele>49.0</ele><time>2026-04-21T16:40:22Z</time></trkpt><trkpt lat="42.838710049703565" lon="10.438485508628055"><ele>49.0</ele><time>2026-04-21T16:40:23Z</time></trkpt><trkpt lat="42.83863783453319" lon="10.438450314926087"><ele>49.0</ele><time>2026-04-21T16:40:24Z</time></trkpt><trkpt lat="42.83856220735328" lon="10.438391091280431"><ele>48.99999999999999</ele><time>2026-04-21T16:40:25Z</time></trkpt><trkpt lat="42.83848693433304" lon="10.438310072753985"><ele>49.0</ele><time>2026-04-21T16:40:26Z</time></trkpt><trkpt lat="42.83841420821787" lon="10.438219414653386"><ele>47.0</ele><time>2026-04-21T16:40:27Z</time></trkpt><trkpt lat="42.83834148824586" lon="10.438129926041146"><ele>45.0</ele><time>2026-04-21T16:40:28Z</time></trkpt><trkpt lat="42.83826896098033" lon="10.438039582426983"><ele>43.0</ele><time>2026-04-21T16:40:29Z</time></trkpt><trkpt lat="42.83818323334513" lon="10.4379725125309"><ele>41.0</ele><time>2026-04-21T16:40:30Z</time></trkpt><trkpt lat="42.83808857666644" lon="10.437928666220621"><ele>39.0</ele><time>2026-04-21T16:40:31Z</time></trkpt><trkpt lat="42.83798808034133" lon="10.437898147558062"><ele>39.4</ele><time>2026-04-21T16:40:32Z</time></trkpt><trkpt lat="42.837892151073824" lon="10.43786961514469"><ele>39.8</ele><time>2026-04-21T16:40:33Z</time></trkpt><trkpt lat="42.83780030652266" lon="10.437817489797794"><ele>40.199999999999996</ele><time>2026-04-21T16:40:34Z</time></trkpt><trkpt lat="42.83771679858862" lon="10.437736706526431"><ele>40.599999999999994</ele><time>2026-04-21T16:40:35Z</time></trkpt><trkpt lat="42.8376408437473" lon="10.437639950868304"><ele>41.0</ele><time>2026-04-21T16:40:36Z</time></trkpt><trkpt lat="42.8375699605937" lon="10.437532500276534"><ele>41.0</ele><time>2026-04-21T16:40:37Z</time></trkpt><trkpt lat="42.8375084692891" lon="10.43740442109322"><ele>41.0</ele><time>2026-04-21T16:40:38Z</time></trkpt><trkpt lat="42.83744838332943" lon="10.43727660239401"><ele>41.0</ele><time>2026-04-21T16:40:39Z</time></trkpt><trkpt lat="42.83739147249412" lon="10.437155384158332"><ele>41.0</ele><time>2026-04-21T16:40:40Z</time></trkpt><trkpt lat="42.83732733175306" lon="10.43704655472334"><ele>41.0</ele><time>2026-04-21T16:40:41Z</time></trkpt><trkpt lat="42.83725152544345" lon="10.436951492818764"><ele>43.33333333333333</ele><time>2026-04-21T16:40:42Z</time></trkpt><trkpt lat="42.83717886095135" lon="10.436869479087736"><ele>45.666666666666664</ele><time>2026-04-21T16:40:43Z</time></trkpt><trkpt lat="42.83712102352708" lon="10.436798433204094"><ele>48.0</ele><time>2026-04-21T16:40:44Z</time></trkpt><trkpt lat="42.83707988248099" lon="10.436713924771157"><ele>50.33333333333333</ele><time>2026-04-21T16:40:45Z</time></trkpt><trkpt lat="42.83705945252354" lon="10.436610711528372"><ele>52.666666666666664</ele><time>2026-04-21T16:40:46Z</time></trkpt><trkpt lat="42.83706924277675" lon="10.43649125669442"><ele>55.0</ele><time>2026-04-21T16:40:47Z</time></trkpt><trkpt lat="42.83709525353396" lon="10.436372404188768"><ele>54.49999999999999</ele><time>2026-04-21T16:40:48Z</time></trkpt><trkpt lat="42.837136517160964" lon="10.436260697243338"><ele>54.0</ele><time>2026-04-21T16:40:49Z</time></trkpt><trkpt lat="42.83717552905143" lon="10.43615686152875"><ele>53.5</ele><time>2026-04-21T16:40:50Z</time></trkpt><trkpt lat="42.837201424670155" lon="10.43606279355893"><ele>53.0</ele><time>2026-04-21T16:40:51Z</time></trkpt><trkpt lat="42.83721805397654" lon="10.435922798802054"><ele>52.49999999999999</ele><time>2026-04-21T16:40:53Z</time></trkpt><trkpt lat="42.837177944339885" lon="10.435824686027825"><ele>52.0</ele><time>2026-04-21T16:40:55Z</time></trkpt><trkpt lat="42.837073346656425" lon="10.43580856018054"><ele>51.99999999999999</ele><time>2026-04-21T16:40:57Z</time></trkpt><trkpt lat="42.83701921260243" lon="10.43585521807146"><ele>52.0</ele><time>2026-04-21T16:40:59Z</time></trkpt><trkpt lat="42.83699325266924" lon="10.435937263277564"><ele>52.0</ele><time>2026-04-21T16:41:02Z</time></trkpt><trkpt lat="42.83696243644437" lon="10.436050618505098"><ele>52.0</ele><time>2026-04-21T16:41:04Z</time></trkpt><trkpt lat="42.83693724991883" lon="10.436204336719468"><ele>51.99999999999999</ele><time>2026-04-21T16:41:06Z</time></trkpt><trkpt lat="42.83692529648717" lon="10.436299076736882"><ele>52.0</ele><time>2026-04-21T16:41:07Z</time></trkpt><trkpt lat="42.83691080176065" lon="10.436396411360082"><ele>52.49999999999999</ele><time>2026-04-21T16:41:08Z</time></trkpt><trkpt lat="42.83689877394858" lon="10.43648250464472"><ele>53.0</ele><time>2026-04-21T16:41:09Z</time></trkpt><trkpt lat="42.83687139233144" lon="10.436588575217195"><ele>53.5</ele><time>2026-04-21T16:41:11Z</time></trkpt><trkpt lat="42.83679690210797" lon="10.43663674540912"><ele>54.0</ele><time>2026-04-21T16:41:13Z</time></trkpt><trkpt lat="42.83671730922444" lon="10.436522387790708"><ele>54.49999999999999</ele><time>2026-04-21T16:41:15Z</time></trkpt><trkpt lat="42.83671184839449" lon="10.436421303831327"><ele>55.0</ele><time>2026-04-21T16:41:16Z</time></trkpt><trkpt lat="42.83670924109125" lon="10.436323501718931"><ele>54.49999999999999</ele><time>2026-04-21T16:41:17Z</time></trkpt><trkpt lat="42.83670675540831" lon="10.43622181439551"><ele>54.0</ele><time>2026-04-21T16:41:18Z</time></trkpt><trkpt lat="42.83670851173694" lon="10.436109975388348"><ele>53.5</ele><time>2026-04-21T16:41:19Z</time></trkpt><trkpt lat="42.836722002210976" lon="10.435989829171326"><ele>53.0</ele><time>2026-04-21T16:41:20Z</time></trkpt><trkpt lat="42.83673948335201" lon="10.435866565862245"><ele>52.49999999999999</ele><time>2026-04-21T16:41:21Z</time></trkpt><trkpt lat="42.83677027487915" lon="10.435747198218888"><ele>52.0</ele><time>2026-04-21T16:41:22Z</time></trkpt><trkpt lat="42.8368170001082" lon="10.435630671213039"><ele>51.99999999999999</ele><time>2026-04-21T16:41:23Z</time></trkpt><trkpt lat="42.83687285883816" lon="10.435520162978701"><ele>52.0</ele><time>2026-04-21T16:41:24Z</time></trkpt><trkpt lat="42.836929227553256" lon="10.435418416038344"><ele>52.0</ele><time>2026-04-21T16:41:25Z</time></trkpt><trkpt lat="42.83698422180401" lon="10.435329552880235"><ele>52.0</ele><time>2026-04-21T16:41:26Z</time></trkpt><trkpt lat="42.83703400577492" lon="10.435247631172214"><ele>51.99999999999999</ele><time>2026-04-21T16:41:27Z</time></trkpt><trkpt lat="42.83707938201117" lon="10.435169589433498"><ele>52.0</ele><time>2026-04-21T16:41:28Z</time></trkpt><trkpt lat="42.83712131966833" lon="10.435089172160591"><ele>49.666666666666664</ele><time>2026-04-21T16:41:29Z</time></trkpt><trkpt lat="42.83716060721211" lon="10.435008839898043"><ele>47.33333333333333</ele><time>2026-04-21T16:41:30Z</time></trkpt><trkpt lat="42.837199094315125" lon="10.434930282662538"><ele>45.0</ele><time>2026-04-21T16:41:31Z</time></trkpt><trkpt lat="42.83723018899655" lon="10.434833081634068"><ele>42.666666666666664</ele><time>2026-04-21T16:41:32Z</time></trkpt><trkpt lat="42.837251965701874" lon="10.434721129410416"><ele>40.33333333333333</ele><time>2026-04-21T16:41:33Z</time></trkpt><trkpt lat="42.837264360455286" lon="10.434599815047779"><ele>38.0</ele><time>2026-04-21T16:41:34Z</time></trkpt><trkpt lat="42.83727322201683" lon="10.434468822034436"><ele>37.199999999999996</ele><time>2026-04-21T16:41:35Z</time></trkpt><trkpt lat="42.83728013267918" lon="10.434333321744512"><ele>36.4</ele><time>2026-04-21T16:41:36Z</time></trkpt><trkpt lat="42.8372821091364" lon="10.43419162079253"><ele>35.599999999999994</ele><time>2026-04-21T16:41:37Z</time></trkpt><trkpt lat="42.837283486173945" lon="10.434047183739033"><ele>34.8</ele><time>2026-04-21T16:41:38Z</time></trkpt><trkpt lat="42.83728463871396" lon="10.433906193087495"><ele>34.0</ele><time>2026-04-21T16:41:39Z</time></trkpt><trkpt lat="42.83728202146522" lon="10.43377224662057"><ele>34.0</ele><time>2026-04-21T16:41:40Z</time></trkpt><trkpt lat="42.837279168888664" lon="10.43364738501553"><ele>34.0</ele><time>2026-04-21T16:41:41Z</time></trkpt><trkpt lat="42.83727909107509" lon="10.433522577480083"><ele>34.0</ele><time>2026-04-21T16:41:42Z</time></trkpt><trkpt lat="42.8372791149986" lon="10.433391943903171"><ele>34.0</ele><time>2026-04-21T16:41:43Z</time></trkpt><trkpt lat="42.83727560318163" lon="10.433261473496525"><ele>34.0</ele><time>2026-04-21T16:41:44Z</time></trkpt><trkpt lat="42.83727381300637" lon="10.433129759087821"><ele>34.0</ele><time>2026-04-21T16:41:45Z</time></trkpt><trkpt lat="42.83727227594664" lon="10.432995023092175"><ele>34.0</ele><time>2026-04-21T16:41:46Z</time></trkpt><trkpt lat="42.8372697927502" lon="10.432870719346795"><ele>34.0</ele><time>2026-04-21T16:41:47Z</time></trkpt><trkpt lat="42.83726884291302" lon="10.432755487591898"><ele>34.0</ele><time>2026-04-21T16:41:48Z</time></trkpt><trkpt lat="42.837265788313324" lon="10.432648716121223"><ele>34.0</ele><time>2026-04-21T16:41:49Z</time></trkpt><trkpt lat="42.83725001577525" lon="10.432555237641226"><ele>34.0</ele><time>2026-04-21T16:41:50Z</time></trkpt><trkpt lat="42.83722193590372" lon="10.432476025244657"><ele>34.71428571428571</ele><time>2026-04-21T16:41:51Z</time></trkpt><trkpt lat="42.83717797448534" lon="10.432409056714414"><ele>35.42857142857143</ele><time>2026-04-21T16:41:52Z</time></trkpt><trkpt lat="42.837117591531985" lon="10.432360352006203"><ele>36.14285714285714</ele><time>2026-04-21T16:41:53Z</time></trkpt><trkpt lat="42.837047063996444" lon="10.432342054892318"><ele>36.857142857142854</ele><time>2026-04-21T16:41:54Z</time></trkpt><trkpt lat="42.83697834862624" lon="10.432359817520693"><ele>37.57142857142857</ele><time>2026-04-21T16:41:55Z</time></trkpt><trkpt lat="42.83692022444942" lon="10.43241626352457"><ele>38.285714285714285</ele><time>2026-04-21T16:41:56Z</time></trkpt><trkpt lat="42.83687385797966" lon="10.43249907824777"><ele>39.0</ele><time>2026-04-21T16:41:57Z</time></trkpt><trkpt lat="42.83684261900182" lon="10.432604377306058"><ele>39.0</ele><time>2026-04-21T16:41:58Z</time></trkpt><trkpt lat="42.83682688810523" lon="10.432718162749818"><ele>39.0</ele><time>2026-04-21T16:41:59Z</time></trkpt><trkpt lat="42.836790047167106" lon="10.432830563861398"><ele>39.0</ele><time>2026-04-21T16:42:00Z</time></trkpt><trkpt lat="42.836762082758916" lon="10.432953331397442"><ele>39.0</ele><time>2026-04-21T16:42:01Z</time></trkpt><trkpt lat="42.836729876241435" lon="10.433064406124036"><ele>39.0</ele><time>2026-04-21T16:42:02Z</time></trkpt><trkpt lat="42.83668013038769" lon="10.433172998716334"><ele>37.8</ele><time>2026-04-21T16:42:03Z</time></trkpt><trkpt lat="42.83662170318322" lon="10.433271993801005"><ele>36.599999999999994</ele><time>2026-04-21T16:42:04Z</time></trkpt><trkpt lat="42.83656077848948" lon="10.433366276877432"><ele>35.4</ele><time>2026-04-21T16:42:05Z</time></trkpt><trkpt lat="42.83649822638664" lon="10.433463078386616"><ele>34.199999999999996</ele><time>2026-04-21T16:42:06Z</time></trkpt><trkpt lat="42.83643650592723" lon="10.433558094909802"><ele>33.0</ele><time>2026-04-21T16:42:07Z</time></trkpt><trkpt lat="42.83637422054833" lon="10.433652050953778"><ele>33.0</ele><time>2026-04-21T16:42:08Z</time></trkpt><trkpt lat="42.83630706999101" lon="10.433729264671994"><ele>33.0</ele><time>2026-04-21T16:42:09Z</time></trkpt><trkpt lat="42.836230131816635" lon="10.433784395073344"><ele>33.0</ele><time>2026-04-21T16:42:10Z</time></trkpt><trkpt lat="42.83614635920817" lon="10.433822437793848"><ele>33.0</ele><time>2026-04-21T16:42:11Z</time></trkpt><trkpt lat="42.836057441530926" lon="10.433852604325525"><ele>33.0</ele><time>2026-04-21T16:42:12Z</time></trkpt><trkpt lat="42.83596664674672" lon="10.433876754346429"><ele>33.0</ele><time>2026-04-21T16:42:13Z</time></trkpt><trkpt lat="42.83587587362323" lon="10.433898901838537"><ele>33.0</ele><time>2026-04-21T16:42:14Z</time></trkpt><trkpt lat="42.83578438022247" lon="10.43391537948814"><ele>33.0</ele><time>2026-04-21T16:42:15Z</time></trkpt><trkpt lat="42.83569561605416" lon="10.433918963151823"><ele>33.0</ele><time>2026-04-21T16:42:16Z</time></trkpt><trkpt lat="42.835606958332804" lon="10.433913736594974"><ele>33.0</ele><time>2026-04-21T16:42:17Z</time></trkpt><trkpt lat="42.83552174014125" lon="10.433894585697512"><ele>33.0</ele><time>2026-04-21T16:42:18Z</time></trkpt><trkpt lat="42.83543624781899" lon="10.433868976148348"><ele>33.0</ele><time>2026-04-21T16:42:19Z</time></trkpt><trkpt lat="42.83535095461961" lon="10.433840077485138"><ele>33.0</ele><time>2026-04-21T16:42:20Z</time></trkpt><trkpt lat="42.83526750251665" lon="10.433810822900993"><ele>33.0</ele><time>2026-04-21T16:42:21Z</time></trkpt><trkpt lat="42.83518205479504" lon="10.43378257380425"><ele>33.0</ele><time>2026-04-21T16:42:22Z</time></trkpt><trkpt lat="42.835096695056244" lon="10.433757111840723"><ele>33.0</ele><time>2026-04-21T16:42:23Z</time></trkpt><trkpt lat="42.83500717668579" lon="10.433759869506012"><ele>33.0</ele><time>2026-04-21T16:42:24Z</time></trkpt><trkpt lat="42.83492074606768" lon="10.433747825709235"><ele>33.0</ele><time>2026-04-21T16:42:25Z</time></trkpt><trkpt lat="42.83483353719868" lon="10.433738397332233"><ele>36.0</ele><time>2026-04-21T16:42:26Z</time></trkpt><trkpt lat="42.834745261163334" lon="10.43372351453069"><ele>39.0</ele><time>2026-04-21T16:42:27Z</time></trkpt><trkpt lat="42.83465864205854" lon="10.433704130342083"><ele>42.0</ele><time>2026-04-21T16:42:28Z</time></trkpt><trkpt lat="42.834575855543555" lon="10.43365743676689"><ele>45.0</ele><time>2026-04-21T16:42:29Z</time></trkpt><trkpt lat="42.83449843436034" lon="10.433593489103822"><ele>48.0</ele><time>2026-04-21T16:42:30Z</time></trkpt><trkpt lat="42.83442276168169" lon="10.433521907866877"><ele>51.0</ele><time>2026-04-21T16:42:31Z</time></trkpt><trkpt lat="42.83434939700603" lon="10.433446177348205"><ele>51.0</ele><time>2026-04-21T16:42:32Z</time></trkpt><trkpt lat="42.83427853632713" lon="10.433374949576203"><ele>51.0</ele><time>2026-04-21T16:42:33Z</time></trkpt><trkpt lat="42.83420867008503" lon="10.433308735471662"><ele>51.0</ele><time>2026-04-21T16:42:34Z</time></trkpt><trkpt lat="42.83413771039802" lon="10.433242333159122"><ele>51.0</ele><time>2026-04-21T16:42:35Z</time></trkpt><trkpt lat="42.83406921261007" lon="10.433173226144579"><ele>51.0</ele><time>2026-04-21T16:42:36Z</time></trkpt><trkpt lat="42.83400207953457" lon="10.43310255239243"><ele>51.0</ele><time>2026-04-21T16:42:37Z</time></trkpt><trkpt lat="42.83393447983293" lon="10.43303214154705"><ele>53.333333333333336</ele><time>2026-04-21T16:42:38Z</time></trkpt><trkpt lat="42.83386797810347" lon="10.432961112391036"><ele>55.66666666666667</ele><time>2026-04-21T16:42:39Z</time></trkpt><trkpt lat="42.83379809791217" lon="10.432891649536476"><ele>58.0</ele><time>2026-04-21T16:42:40Z</time></trkpt><trkpt lat="42.833727067868836" lon="10.43281787472802"><ele>60.333333333333336</ele><time>2026-04-21T16:42:41Z</time></trkpt><trkpt lat="42.83365540916033" lon="10.432741074624298"><ele>62.66666666666667</ele><time>2026-04-21T16:42:42Z</time></trkpt><trkpt lat="42.833587524996126" lon="10.432662512906907"><ele>65.0</ele><time>2026-04-21T16:42:43Z</time></trkpt><trkpt lat="42.83352061761372" lon="10.432584888076514"><ele>64.5</ele><time>2026-04-21T16:42:44Z</time></trkpt><trkpt lat="42.83345210627592" lon="10.4325133701332"><ele>64.0</ele><time>2026-04-21T16:42:45Z</time></trkpt><trkpt lat="42.83338193415618" lon="10.432447447255997"><ele>63.5</ele><time>2026-04-21T16:42:46Z</time></trkpt><trkpt lat="42.833311366986734" lon="10.432384556626303"><ele>63.0</ele><time>2026-04-21T16:42:47Z</time></trkpt><trkpt lat="42.833221809393855" lon="10.432359646635044"><ele>62.50000000000001</ele><time>2026-04-21T16:42:48Z</time></trkpt><trkpt lat="42.83312942781566" lon="10.43234961361158"><ele>62.0</ele><time>2026-04-21T16:42:49Z</time></trkpt><trkpt lat="42.83303340518436" lon="10.432352923128407"><ele>62.0</ele><time>2026-04-21T16:42:50Z</time></trkpt><trkpt lat="42.83293961742195" lon="10.432331731480614"><ele>62.0</ele><time>2026-04-21T16:42:51Z</time></trkpt><trkpt lat="42.83284588969864" lon="10.43233218852052"><ele>62.0</ele><time>2026-04-21T16:42:52Z</time></trkpt><trkpt lat="42.83275542240865" lon="10.432334620556707"><ele>62.0</ele><time>2026-04-21T16:42:53Z</time></trkpt><trkpt lat="42.83266774183146" lon="10.432351357045295"><ele>62.0</ele><time>2026-04-21T16:42:54Z</time></trkpt><trkpt lat="42.8325903950582" lon="10.432399960026382"><ele>62.400000000000006</ele><time>2026-04-21T16:42:55Z</time></trkpt><trkpt lat="42.83252396917192" lon="10.432480968704951"><ele>62.800000000000004</ele><time>2026-04-21T16:42:56Z</time></trkpt><trkpt lat="42.8325066229413" lon="10.432619218555521"><ele>63.2</ele><time>2026-04-21T16:42:57Z</time></trkpt><trkpt lat="42.83249287028692" lon="10.432740772061594"><ele>63.6</ele><time>2026-04-21T16:42:58Z</time></trkpt><trkpt lat="42.8325083655085" lon="10.432860063125768"><ele>64.0</ele><time>2026-04-21T16:42:59Z</time></trkpt><trkpt lat="42.83253736024212" lon="10.432992106560738"><ele>64.0</ele><time>2026-04-21T16:43:00Z</time></trkpt><trkpt lat="42.83254660605232" lon="10.433128537396161"><ele>64.0</ele><time>2026-04-21T16:43:01Z</time></trkpt><trkpt lat="42.832560121183285" lon="10.43326021046415"><ele>64.0</ele><time>2026-04-21T16:43:02Z</time></trkpt><trkpt lat="42.83257843773881" lon="10.433391116992142"><ele>64.0</ele><time>2026-04-21T16:43:03Z</time></trkpt><trkpt lat="42.83254055235123" lon="10.433509946263065"><ele>64.0</ele><time>2026-04-21T16:43:04Z</time></trkpt><trkpt lat="42.83249496932404" lon="10.433611731492384"><ele>64.0</ele><time>2026-04-21T16:43:05Z</time></trkpt><trkpt lat="42.832434583490844" lon="10.433700914252656"><ele>64.0</ele><time>2026-04-21T16:43:06Z</time></trkpt><trkpt lat="42.832356555503885" lon="10.433753714099778"><ele>64.0</ele><time>2026-04-21T16:43:07Z</time></trkpt><trkpt lat="42.83226955065268" lon="10.433792410390527"><ele>64.0</ele><time>2026-04-21T16:43:08Z</time></trkpt><trkpt lat="42.832174930345516" lon="10.433827243928445"><ele>64.0</ele><time>2026-04-21T16:43:09Z</time></trkpt><trkpt lat="42.83207832885203" lon="10.433850007170077"><ele>62.0</ele><time>2026-04-21T16:43:10Z</time></trkpt><trkpt lat="42.83198278780163" lon="10.433858570386308"><ele>60.00000000000001</ele><time>2026-04-21T16:43:11Z</time></trkpt><trkpt lat="42.83188514136017" lon="10.433859078669938"><ele>58.00000000000001</ele><time>2026-04-21T16:43:12Z</time></trkpt><trkpt lat="42.83178687880057" lon="10.43385707629659"><ele>56.0</ele><time>2026-04-21T16:43:13Z</time></trkpt><trkpt lat="42.83169071368781" lon="10.43385455393435"><ele>54.0</ele><time>2026-04-21T16:43:14Z</time></trkpt><trkpt lat="42.83159687382063" lon="10.433833551297083"><ele>53.6</ele><time>2026-04-21T16:43:15Z</time></trkpt><trkpt lat="42.83149814673132" lon="10.433805547384303"><ele>53.2</ele><time>2026-04-21T16:43:16Z</time></trkpt><trkpt lat="42.831411355673964" lon="10.433730232902576"><ele>52.800000000000004</ele><time>2026-04-21T16:43:17Z</time></trkpt><trkpt lat="42.83132359240609" lon="10.433662040195486"><ele>52.400000000000006</ele><time>2026-04-21T16:43:18Z</time></trkpt><trkpt lat="42.831228121194954" lon="10.433614775460134"><ele>52.0</ele><time>2026-04-21T16:43:19Z</time></trkpt><trkpt lat="42.83113545439415" lon="10.433556420073506"><ele>57.8</ele><time>2026-04-21T16:43:20Z</time></trkpt><trkpt lat="42.83103189417917" lon="10.433532579647151"><ele>63.6</ele><time>2026-04-21T16:43:21Z</time></trkpt><trkpt lat="42.83093524893074" lon="10.433524789539849"><ele>69.39999999999999</ele><time>2026-04-21T16:43:22Z</time></trkpt><trkpt lat="42.8308457626929" lon="10.433519937148029"><ele>75.2</ele><time>2026-04-21T16:43:23Z</time></trkpt><trkpt lat="42.83075988754555" lon="10.433515010235148"><ele>81.0</ele><time>2026-04-21T16:43:24Z</time></trkpt><trkpt lat="42.830670245420656" lon="10.43353115206659"><ele>82.19999999999999</ele><time>2026-04-21T16:43:25Z</time></trkpt><trkpt lat="42.830577478188175" lon="10.433505683965558"><ele>83.39999999999999</ele><time>2026-04-21T16:43:26Z</time></trkpt><trkpt lat="42.8304848366996" lon="10.433464162039739"><ele>84.6</ele><time>2026-04-21T16:43:27Z</time></trkpt><trkpt lat="42.83039680442942" lon="10.433403337574664"><ele>85.8</ele><time>2026-04-21T16:43:28Z</time></trkpt><trkpt lat="42.8303085719006" lon="10.433353694826463"><ele>87.0</ele><time>2026-04-21T16:43:29Z</time></trkpt><trkpt lat="42.830215530061324" lon="10.433315806458257"><ele>84.19999999999999</ele><time>2026-04-21T16:43:30Z</time></trkpt><trkpt lat="42.830125256797004" lon="10.433264033053643"><ele>81.39999999999999</ele><time>2026-04-21T16:43:31Z</time></trkpt><trkpt lat="42.830024682110526" lon="10.433261261827122"><ele>78.6</ele><time>2026-04-21T16:43:32Z</time></trkpt><trkpt lat="42.82992442787331" lon="10.433240565362995"><ele>75.8</ele><time>2026-04-21T16:43:33Z</time></trkpt><trkpt lat="42.82982830757933" lon="10.43321087020049"><ele>73.0</ele><time>2026-04-21T16:43:34Z</time></trkpt><trkpt lat="42.829740973583334" lon="10.433154247068135"><ele>73.0</ele><time>2026-04-21T16:43:35Z</time></trkpt><trkpt lat="42.82966551011559" lon="10.433073641678845"><ele>73.0</ele><time>2026-04-21T16:43:36Z</time></trkpt><trkpt lat="42.829599831906506" lon="10.43298460023469"><ele>73.0</ele><time>2026-04-21T16:43:37Z</time></trkpt><trkpt lat="42.82954173820254" lon="10.432890984769326"><ele>73.0</ele><time>2026-04-21T16:43:38Z</time></trkpt><trkpt lat="42.82948508504724" lon="10.432795277113144"><ele>73.0</ele><time>2026-04-21T16:43:39Z</time></trkpt><trkpt lat="42.82942769093205" lon="10.432699666501861"><ele>76.2</ele><time>2026-04-21T16:43:40Z</time></trkpt><trkpt lat="42.82934256012908" lon="10.432650665740981"><ele>79.4</ele><time>2026-04-21T16:43:41Z</time></trkpt><trkpt lat="42.82926449405975" lon="10.432579600132573"><ele>82.60000000000001</ele><time>2026-04-21T16:43:42Z</time></trkpt><trkpt lat="42.829175685746286" lon="10.432553839240343"><ele>85.8</ele><time>2026-04-21T16:43:43Z</time></trkpt><trkpt lat="42.82908133302233" lon="10.43254573777945"><ele>89.0</ele><time>2026-04-21T16:43:44Z</time></trkpt><trkpt lat="42.82899415422878" lon="10.432531724685305"><ele>89.0</ele><time>2026-04-21T16:43:45Z</time></trkpt><trkpt lat="42.828899986242625" lon="10.432507048804075"><ele>89.0</ele><time>2026-04-21T16:43:46Z</time></trkpt><trkpt lat="42.82881156760172" lon="10.432443507837108"><ele>89.0</ele><time>2026-04-21T16:43:47Z</time></trkpt><trkpt lat="42.82872489324594" lon="10.432373796740677"><ele>89.0</ele><time>2026-04-21T16:43:48Z</time></trkpt><trkpt lat="42.828637406385376" lon="10.432308003781325"><ele>89.0</ele><time>2026-04-21T16:43:49Z</time></trkpt><trkpt lat="42.82856293006679" lon="10.432233790705455"><ele>89.0</ele><time>2026-04-21T16:43:50Z</time></trkpt><trkpt lat="42.82848481007675" lon="10.432172680381445"><ele>89.0</ele><time>2026-04-21T16:43:51Z</time></trkpt><trkpt lat="42.82841630816822" lon="10.432100608993842"><ele>89.0</ele><time>2026-04-21T16:43:52Z</time></trkpt><trkpt lat="42.82836572039576" lon="10.432013549415522"><ele>89.0</ele><time>2026-04-21T16:43:53Z</time></trkpt><trkpt lat="42.82832853304329" lon="10.43190866564504"><ele>89.0</ele><time>2026-04-21T16:43:54Z</time></trkpt><trkpt lat="42.828293919777984" lon="10.431795078958807"><ele>89.0</ele><time>2026-04-21T16:43:55Z</time></trkpt><trkpt lat="42.828271395996794" lon="10.431672475805355"><ele>88.0</ele><time>2026-04-21T16:43:56Z</time></trkpt><trkpt lat="42.82823824757556" lon="10.431548052055776"><ele>87.0</ele><time>2026-04-21T16:43:57Z</time></trkpt><trkpt lat="42.82818858463132" lon="10.431421343901977"><ele>86.0</ele><time>2026-04-21T16:43:58Z</time></trkpt><trkpt lat="42.828125506595505" lon="10.43129622494507"><ele>85.0</ele><time>2026-04-21T16:43:59Z</time></trkpt><trkpt lat="42.828065662057256" lon="10.43117959114915"><ele>84.0</ele><time>2026-04-21T16:44:00Z</time></trkpt><trkpt lat="42.828001537817066" lon="10.43106346637373"><ele>87.0</ele><time>2026-04-21T16:44:01Z</time></trkpt><trkpt lat="42.82794068106454" lon="10.430953881689573"><ele>90.0</ele><time>2026-04-21T16:44:02Z</time></trkpt><trkpt lat="42.827882198011636" lon="10.43084845618121"><ele>93.0</ele><time>2026-04-21T16:44:03Z</time></trkpt><trkpt lat="42.82782379934918" lon="10.430755480179732"><ele>96.0</ele><time>2026-04-21T16:44:04Z</time></trkpt><trkpt lat="42.82775954549299" lon="10.430680497442989"><ele>99.0</ele><time>2026-04-21T16:44:05Z</time></trkpt><trkpt lat="42.82768517619778" lon="10.43062071707185"><ele>94.83333333333333</ele><time>2026-04-21T16:44:06Z</time></trkpt><trkpt lat="42.82760588547606" lon="10.430590797769641"><ele>90.66666666666667</ele><time>2026-04-21T16:44:07Z</time></trkpt><trkpt lat="42.827526479558166" lon="10.43059005932059"><ele>86.5</ele><time>2026-04-21T16:44:08Z</time></trkpt><trkpt lat="42.827441772313286" lon="10.43061567573965"><ele>82.33333333333334</ele><time>2026-04-21T16:44:09Z</time></trkpt><trkpt lat="42.82735462606148" lon="10.43066942121196"><ele>78.16666666666667</ele><time>2026-04-21T16:44:10Z</time></trkpt><trkpt lat="42.82726585128062" lon="10.4307010106912"><ele>74.0</ele><time>2026-04-21T16:44:11Z</time></trkpt><trkpt lat="42.827193073761634" lon="10.430734038446532"><ele>74.0</ele><time>2026-04-21T16:44:12Z</time></trkpt><trkpt lat="42.82712090599402" lon="10.430745692339128"><ele>74.0</ele><time>2026-04-21T16:44:13Z</time></trkpt><trkpt lat="42.827037679727674" lon="10.430748334977844"><ele>74.0</ele><time>2026-04-21T16:44:14Z</time></trkpt><trkpt lat="42.82695239710067" lon="10.430701007971356"><ele>74.0</ele><time>2026-04-21T16:44:15Z</time></trkpt><trkpt lat="42.82686448127063" lon="10.430652648122145"><ele>74.0</ele><time>2026-04-21T16:44:16Z</time></trkpt><trkpt lat="42.826772978556804" lon="10.430602415337127"><ele>74.0</ele><time>2026-04-21T16:44:17Z</time></trkpt><trkpt lat="42.82668501212861" lon="10.430553679844206"><ele>74.0</ele><time>2026-04-21T16:44:18Z</time></trkpt><trkpt lat="42.82660413464126" lon="10.43050418109112"><ele>74.0</ele><time>2026-04-21T16:44:19Z</time></trkpt><trkpt lat="42.82653345070595" lon="10.430447122947541"><ele>74.0</ele><time>2026-04-21T16:44:20Z</time></trkpt><trkpt lat="42.82647279068365" lon="10.430364111973189"><ele>74.0</ele><time>2026-04-21T16:44:21Z</time></trkpt><trkpt lat="42.82641886477158" lon="10.430268713503075"><ele>74.0</ele><time>2026-04-21T16:44:22Z</time></trkpt><trkpt lat="42.82637273076023" lon="10.430160925158916"><ele>74.0</ele><time>2026-04-21T16:44:23Z</time></trkpt><trkpt lat="42.82634123766305" lon="10.43004143744307"><ele>74.0</ele><time>2026-04-21T16:44:24Z</time></trkpt><trkpt lat="42.82630606688793" lon="10.429920098068846"><ele>74.0</ele><time>2026-04-21T16:44:25Z</time></trkpt><trkpt lat="42.82627075645597" lon="10.429800106175154"><ele>74.0</ele><time>2026-04-21T16:44:26Z</time></trkpt><trkpt lat="42.82623168341748" lon="10.429696150742211"><ele>74.0</ele><time>2026-04-21T16:44:27Z</time></trkpt><trkpt lat="42.826179017738234" lon="10.42960985270353"><ele>74.0</ele><time>2026-04-21T16:44:28Z</time></trkpt><trkpt lat="42.82611611474964" lon="10.429539766265098"><ele>74.0</ele><time>2026-04-21T16:44:29Z</time></trkpt><trkpt lat="42.82603681378882" lon="10.429483710664764"><ele>72.0</ele><time>2026-04-21T16:44:30Z</time></trkpt><trkpt lat="42.825946948612916" lon="10.429455934794087"><ele>70.0</ele><time>2026-04-21T16:44:31Z</time></trkpt><trkpt lat="42.82585519330823" lon="10.429441028697422"><ele>68.0</ele><time>2026-04-21T16:44:32Z</time></trkpt><trkpt lat="42.82575694689618" lon="10.42943343002046"><ele>66.0</ele><time>2026-04-21T16:44:33Z</time></trkpt><trkpt lat="42.825659129183755" lon="10.429424016857917"><ele>64.0</ele><time>2026-04-21T16:44:34Z</time></trkpt><trkpt lat="42.825563209327825" lon="10.429378810922875"><ele>64.0</ele><time>2026-04-21T16:44:35Z</time></trkpt><trkpt lat="42.82547553013712" lon="10.429324495595427"><ele>64.0</ele><time>2026-04-21T16:44:36Z</time></trkpt><trkpt lat="42.82539465484128" lon="10.429243549988206"><ele>64.0</ele><time>2026-04-21T16:44:37Z</time></trkpt><trkpt lat="42.82531872806829" lon="10.429160276532816"><ele>64.0</ele><time>2026-04-21T16:44:38Z</time></trkpt><trkpt lat="42.82524956362979" lon="10.429070960017166"><ele>64.0</ele><time>2026-04-21T16:44:39Z</time></trkpt><trkpt lat="42.82518450039037" lon="10.428977320822506"><ele>60.800000000000004</ele><time>2026-04-21T16:44:40Z</time></trkpt><trkpt lat="42.825132093126165" lon="10.428867437721422"><ele>57.60000000000001</ele><time>2026-04-21T16:44:41Z</time></trkpt><trkpt lat="42.825084344121834" lon="10.42875201436127"><ele>54.4</ele><time>2026-04-21T16:44:42Z</time></trkpt><trkpt lat="42.82504587585603" lon="10.42862142684068"><ele>51.2</ele><time>2026-04-21T16:44:43Z</time></trkpt><trkpt lat="42.82500894365017" lon="10.4284882386417"><ele>48.0</ele><time>2026-04-21T16:44:44Z</time></trkpt><trkpt lat="42.82497441466238" lon="10.428357790112946"><ele>48.0</ele><time>2026-04-21T16:44:45Z</time></trkpt><trkpt lat="42.8249424036939" lon="10.428229470546068"><ele>48.0</ele><time>2026-04-21T16:44:46Z</time></trkpt><trkpt lat="42.824908166868326" lon="10.428103788951752"><ele>48.0</ele><time>2026-04-21T16:44:47Z</time></trkpt><trkpt lat="42.82487080891832" lon="10.427980142395796"><ele>48.0</ele><time>2026-04-21T16:44:48Z</time></trkpt><trkpt lat="42.82484425669918" lon="10.427851133844486"><ele>48.0</ele><time>2026-04-21T16:44:49Z</time></trkpt><trkpt lat="42.82482008296365" lon="10.427725603034265"><ele>48.5</ele><time>2026-04-21T16:44:50Z</time></trkpt><trkpt lat="42.82479636246155" lon="10.427606830282166"><ele>49.0</ele><time>2026-04-21T16:44:51Z</time></trkpt><trkpt lat="42.824769823601315" lon="10.427511292816334"><ele>49.5</ele><time>2026-04-21T16:44:52Z</time></trkpt><trkpt lat="42.82472977867374" lon="10.427417865676924"><ele>50.0</ele><time>2026-04-21T16:44:53Z</time></trkpt><trkpt lat="42.82467379584206" lon="10.427353197455165"><ele>50.5</ele><time>2026-04-21T16:44:54Z</time></trkpt><trkpt lat="42.824606987653226" lon="10.427308662582373"><ele>51.0</ele><time>2026-04-21T16:44:55Z</time></trkpt><trkpt lat="42.82453500839208" lon="10.427293001246534"><ele>51.0</ele><time>2026-04-21T16:44:56Z</time></trkpt><trkpt lat="42.82445906734845" lon="10.427306899871382"><ele>51.0</ele><time>2026-04-21T16:44:57Z</time></trkpt><trkpt lat="42.82438508859654" lon="10.427359039349493"><ele>51.0</ele><time>2026-04-21T16:44:58Z</time></trkpt><trkpt lat="42.824320812496545" lon="10.427435399743405"><ele>51.0</ele><time>2026-04-21T16:44:59Z</time></trkpt><trkpt lat="42.824265769747335" lon="10.42752883814101"><ele>51.0</ele><time>2026-04-21T16:45:00Z</time></trkpt><trkpt lat="42.82421883731813" lon="10.427632128762113"><ele>51.0</ele><time>2026-04-21T16:45:01Z</time></trkpt><trkpt lat="42.824151305982994" lon="10.427713866175704"><ele>50.333333333333336</ele><time>2026-04-21T16:45:02Z</time></trkpt><trkpt lat="42.824095451136294" lon="10.427811533358934"><ele>49.666666666666664</ele><time>2026-04-21T16:45:03Z</time></trkpt><trkpt lat="42.82404226744339" lon="10.42790457105031"><ele>49.0</ele><time>2026-04-21T16:45:04Z</time></trkpt><trkpt lat="42.82398583233269" lon="10.428003296833458"><ele>48.33333333333333</ele><time>2026-04-21T16:45:05Z</time></trkpt><trkpt lat="42.823936450029656" lon="10.428065401995815"><ele>47.666666666666664</ele><time>2026-04-21T16:45:06Z</time></trkpt><trkpt lat="42.82387584821505" lon="10.42809341119565"><ele>47.0</ele><time>2026-04-21T16:45:07Z</time></trkpt><trkpt lat="42.82380760361784" lon="10.42811114339253"><ele>45.4</ele><time>2026-04-21T16:45:08Z</time></trkpt><trkpt lat="42.82372872422068" lon="10.428114756883847"><ele>43.800000000000004</ele><time>2026-04-21T16:45:09Z</time></trkpt><trkpt lat="42.8236438923319" lon="10.428098084391097"><ele>42.2</ele><time>2026-04-21T16:45:10Z</time></trkpt><trkpt lat="42.82355447261757" lon="10.428070886787493"><ele>40.6</ele><time>2026-04-21T16:45:11Z</time></trkpt><trkpt lat="42.823460176035745" lon="10.42803632548452"><ele>39.0</ele><time>2026-04-21T16:45:12Z</time></trkpt><trkpt lat="42.82336273157995" lon="10.427994108985587"><ele>39.0</ele><time>2026-04-21T16:45:13Z</time></trkpt><trkpt lat="42.823266661170344" lon="10.427952125180374"><ele>39.0</ele><time>2026-04-21T16:45:14Z</time></trkpt><trkpt lat="42.823176802305646" lon="10.427914737335495"><ele>39.0</ele><time>2026-04-21T16:45:15Z</time></trkpt><trkpt lat="42.82309722327055" lon="10.427887549468673"><ele>39.0</ele><time>2026-04-21T16:45:16Z</time></trkpt><trkpt lat="42.823010588278024" lon="10.427887521868728"><ele>39.0</ele><time>2026-04-21T16:45:17Z</time></trkpt><trkpt lat="42.8229315884571" lon="10.427920728045443"><ele>39.0</ele><time>2026-04-21T16:45:18Z</time></trkpt><trkpt lat="42.82285942501027" lon="10.427992508320017"><ele>39.0</ele><time>2026-04-21T16:45:19Z</time></trkpt><trkpt lat="42.82279101705336" lon="10.428081799903739"><ele>39.0</ele><time>2026-04-21T16:45:20Z</time></trkpt><trkpt lat="42.82274126495663" lon="10.428196720770877"><ele>39.0</ele><time>2026-04-21T16:45:21Z</time></trkpt><trkpt lat="42.82268823247291" lon="10.428293774373195"><ele>39.0</ele><time>2026-04-21T16:45:22Z</time></trkpt><trkpt lat="42.82263236660761" lon="10.428391118760727"><ele>39.0</ele><time>2026-04-21T16:45:23Z</time></trkpt><trkpt lat="42.822571946704805" lon="10.428452807897349"><ele>39.0</ele><time>2026-04-21T16:45:24Z</time></trkpt><trkpt lat="42.82250552192359" lon="10.428500655263315"><ele>38.333333333333336</ele><time>2026-04-21T16:45:25Z</time></trkpt><trkpt lat="42.822429321727725" lon="10.428528697330291"><ele>37.666666666666664</ele><time>2026-04-21T16:45:26Z</time></trkpt><trkpt lat="42.82235018766375" lon="10.428528820473577"><ele>37.0</ele><time>2026-04-21T16:45:27Z</time></trkpt><trkpt lat="42.82227457002466" lon="10.428495072928824"><ele>36.33333333333333</ele><time>2026-04-21T16:45:28Z</time></trkpt><trkpt lat="42.822199232622204" lon="10.42844535984135"><ele>35.666666666666664</ele><time>2026-04-21T16:45:29Z</time></trkpt><trkpt lat="42.822119971616175" lon="10.428397129999444"><ele>35.0</ele><time>2026-04-21T16:45:30Z</time></trkpt><trkpt lat="42.82203940598642" lon="10.428351753752477"><ele>35.0</ele><time>2026-04-21T16:45:31Z</time></trkpt><trkpt lat="42.82196166684158" lon="10.42831077353409"><ele>35.0</ele><time>2026-04-21T16:45:32Z</time></trkpt><trkpt lat="42.821884599664905" lon="10.428291133951042"><ele>35.0</ele><time>2026-04-21T16:45:33Z</time></trkpt><trkpt lat="42.82180079072047" lon="10.428279355015471"><ele>35.0</ele><time>2026-04-21T16:45:34Z</time></trkpt><trkpt lat="42.821721445350725" lon="10.428336319565444"><ele>35.0</ele><time>2026-04-21T16:45:35Z</time></trkpt><trkpt lat="42.82163545721746" lon="10.428396370649805"><ele>35.0</ele><time>2026-04-21T16:45:36Z</time></trkpt><trkpt lat="42.821546089244436" lon="10.428467774332661"><ele>33.6</ele><time>2026-04-21T16:45:37Z</time></trkpt><trkpt lat="42.8214569574145" lon="10.428518149507047"><ele>32.2</ele><time>2026-04-21T16:45:38Z</time></trkpt><trkpt lat="42.821370537157286" lon="10.428578059180353"><ele>30.799999999999997</ele><time>2026-04-21T16:45:39Z</time></trkpt><trkpt lat="42.82128647776061" lon="10.428638555272254"><ele>29.4</ele><time>2026-04-21T16:45:40Z</time></trkpt><trkpt lat="42.821202376802255" lon="10.428701630085444"><ele>28.0</ele><time>2026-04-21T16:45:41Z</time></trkpt><trkpt lat="42.82111632191046" lon="10.428769721708909"><ele>26.2</ele><time>2026-04-21T16:45:42Z</time></trkpt><trkpt lat="42.821032552850276" lon="10.428828097254508"><ele>24.4</ele><time>2026-04-21T16:45:43Z</time></trkpt><trkpt lat="42.82094720679303" lon="10.42889141204809"><ele>22.599999999999998</ele><time>2026-04-21T16:45:44Z</time></trkpt><trkpt lat="42.820863904495475" lon="10.42895821449423"><ele>20.799999999999997</ele><time>2026-04-21T16:45:45Z</time></trkpt><trkpt lat="42.82077801620729" lon="10.429023844173114"><ele>19.0</ele><time>2026-04-21T16:45:46Z</time></trkpt><trkpt lat="42.82069632654056" lon="10.429094308613337"><ele>19.0</ele><time>2026-04-21T16:45:47Z</time></trkpt><trkpt lat="42.820613169879984" lon="10.429160912113138"><ele>19.0</ele><time>2026-04-21T16:45:48Z</time></trkpt><trkpt lat="42.82053300706269" lon="10.429221499692696"><ele>19.0</ele><time>2026-04-21T16:45:49Z</time></trkpt><trkpt lat="42.820450718535156" lon="10.429292171617425"><ele>19.0</ele><time>2026-04-21T16:45:50Z</time></trkpt><trkpt lat="42.82037121544302" lon="10.429352174258655"><ele>19.0</ele><time>2026-04-21T16:45:51Z</time></trkpt><trkpt lat="42.82029269890576" lon="10.429409535071366"><ele>19.0</ele><time>2026-04-21T16:45:52Z</time></trkpt><trkpt lat="42.82021231163497" lon="10.42945441539332"><ele>19.0</ele><time>2026-04-21T16:45:53Z</time></trkpt><trkpt lat="42.82012694906898" lon="10.429478857955521"><ele>19.0</ele><time>2026-04-21T16:45:54Z</time></trkpt><trkpt lat="42.82003661593947" lon="10.429485963782653"><ele>19.0</ele><time>2026-04-21T16:45:55Z</time></trkpt><trkpt lat="42.81995081819636" lon="10.429480012833649"><ele>19.0</ele><time>2026-04-21T16:45:56Z</time></trkpt><trkpt lat="42.81986302082696" lon="10.429481359977437"><ele>19.0</ele><time>2026-04-21T16:45:57Z</time></trkpt><trkpt lat="42.819776932379845" lon="10.42947152077833"><ele>17.833333333333332</ele><time>2026-04-21T16:45:58Z</time></trkpt><trkpt lat="42.819692568185104" lon="10.429458572359296"><ele>16.666666666666664</ele><time>2026-04-21T16:45:59Z</time></trkpt><trkpt lat="42.81960799698107" lon="10.429445190616502"><ele>15.5</ele><time>2026-04-21T16:46:00Z</time></trkpt><trkpt lat="42.819526134008456" lon="10.42942978208467"><ele>14.333333333333332</ele><time>2026-04-21T16:46:01Z</time></trkpt><trkpt lat="42.819451164632206" lon="10.429418550530691"><ele>13.166666666666666</ele><time>2026-04-21T16:46:02Z</time></trkpt><trkpt lat="42.819380470673664" lon="10.42940983457775"><ele>12.0</ele><time>2026-04-21T16:46:03Z</time></trkpt><trkpt lat="42.81931049661453" lon="10.429400826893708"><ele>11.5</ele><time>2026-04-21T16:46:04Z</time></trkpt><trkpt lat="42.81924423722269" lon="10.429391055857524"><ele>11.0</ele><time>2026-04-21T16:46:05Z</time></trkpt><trkpt lat="42.81918088887451" lon="10.429383017744028"><ele>10.5</ele><time>2026-04-21T16:46:06Z</time></trkpt><trkpt lat="42.81906571754345" lon="10.429366232434981"><ele>10.0</ele><time>2026-04-21T16:46:08Z</time></trkpt><trkpt lat="42.818942894804465" lon="10.429360551520213"><ele>9.5</ele><time>2026-04-21T16:46:10Z</time></trkpt><trkpt lat="42.81887803340124" lon="10.429363711132595"><ele>9.0</ele><time>2026-04-21T16:46:11Z</time></trkpt><trkpt lat="42.81881359327166" lon="10.429368274610809"><ele>9.0</ele><time>2026-04-21T16:46:12Z</time></trkpt><trkpt lat="42.81869030192728" lon="10.429375118591976"><ele>9.0</ele><time>2026-04-21T16:46:14Z</time></trkpt><trkpt lat="42.81862777186651" lon="10.429360159651548"><ele>9.0</ele><time>2026-04-21T16:46:15Z</time></trkpt><trkpt lat="42.818568540342575" lon="10.429330939827441"><ele>9.0</ele><time>2026-04-21T16:46:16Z</time></trkpt><trkpt lat="42.818462728467615" lon="10.429263944737055"><ele>9.0</ele><time>2026-04-21T16:46:18Z</time></trkpt><trkpt lat="42.81837156293286" lon="10.429210617820656"><ele>8.4</ele><time>2026-04-21T16:46:20Z</time></trkpt><trkpt lat="42.81829749073418" lon="10.429176010358251"><ele>7.800000000000001</ele><time>2026-04-21T16:46:22Z</time></trkpt><trkpt lat="42.8182162258108" lon="10.429134771864517"><ele>7.199999999999999</ele><time>2026-04-21T16:46:25Z</time></trkpt><trkpt lat="42.8181133223674" lon="10.429094139031184"><ele>6.6</ele><time>2026-04-21T16:46:28Z</time></trkpt><trkpt lat="42.81800643555058" lon="10.429055567891394"><ele>6.0</ele><time>2026-04-21T16:46:30Z</time></trkpt><trkpt lat="42.817943529525664" lon="10.429013885417667"><ele>5.999999999999999</ele><time>2026-04-21T16:46:31Z</time></trkpt><trkpt lat="42.81787621965176" lon="10.428961980855028"><ele>6.0</ele><time>2026-04-21T16:46:32Z</time></trkpt><trkpt lat="42.81780938445929" lon="10.428923232926858"><ele>6.0</ele><time>2026-04-21T16:46:33Z</time></trkpt><trkpt lat="42.817745272464016" lon="10.428892220793813"><ele>6.0</ele><time>2026-04-21T16:46:34Z</time></trkpt><trkpt lat="42.81767982610673" lon="10.42885954663198"><ele>6.0</ele><time>2026-04-21T16:46:35Z</time></trkpt><trkpt lat="42.81761290460849" lon="10.428827709637691"><ele>5.999999999999999</ele><time>2026-04-21T16:46:36Z</time></trkpt><trkpt lat="42.8175441843752" lon="10.428798097487045"><ele>6.0</ele><time>2026-04-21T16:46:37Z</time></trkpt><trkpt lat="42.81747207539932" lon="10.428772376406073"><ele>7.166666666666666</ele><time>2026-04-21T16:46:38Z</time></trkpt><trkpt lat="42.81739777931459" lon="10.428752187174343"><ele>8.333333333333332</ele><time>2026-04-21T16:46:39Z</time></trkpt><trkpt lat="42.81732028038952" lon="10.42874654084701"><ele>9.5</ele><time>2026-04-21T16:46:40Z</time></trkpt><trkpt lat="42.8172389899826" lon="10.428749228096045"><ele>10.666666666666666</ele><time>2026-04-21T16:46:41Z</time></trkpt><trkpt lat="42.81715713556738" lon="10.428754479658773"><ele>11.833333333333332</ele><time>2026-04-21T16:46:42Z</time></trkpt><trkpt lat="42.81708246100872" lon="10.42875843737976"><ele>13.0</ele><time>2026-04-21T16:46:43Z</time></trkpt><trkpt lat="42.817010547906456" lon="10.428767503921236"><ele>13.0</ele><time>2026-04-21T16:46:44Z</time></trkpt><trkpt lat="42.81694217698313" lon="10.428776721323809"><ele>13.0</ele><time>2026-04-21T16:46:45Z</time></trkpt><trkpt lat="42.816875140951744" lon="10.428775527058177"><ele>13.0</ele><time>2026-04-21T16:46:46Z</time></trkpt><trkpt lat="42.81680600933103" lon="10.428750519416681"><ele>13.0</ele><time>2026-04-21T16:46:47Z</time></trkpt><trkpt lat="42.816734845467934" lon="10.428717810926555"><ele>13.0</ele><time>2026-04-21T16:46:48Z</time></trkpt><trkpt lat="42.8166617809276" lon="10.428671746765998"><ele>13.0</ele><time>2026-04-21T16:46:49Z</time></trkpt><trkpt lat="42.81658676457765" lon="10.428625887557086"><ele>13.0</ele><time>2026-04-21T16:46:50Z</time></trkpt><trkpt lat="42.816511290591926" lon="10.428571370682636"><ele>11.833333333333332</ele><time>2026-04-21T16:46:51Z</time></trkpt><trkpt lat="42.816437060429784" lon="10.428513431817446"><ele>10.666666666666666</ele><time>2026-04-21T16:46:52Z</time></trkpt><trkpt lat="42.81636667947037" lon="10.428450550587227"><ele>9.5</ele><time>2026-04-21T16:46:53Z</time></trkpt><trkpt lat="42.816302669856654" lon="10.42839017515978"><ele>8.333333333333332</ele><time>2026-04-21T16:46:54Z</time></trkpt><trkpt lat="42.81624131128939" lon="10.428340848295166"><ele>7.166666666666666</ele><time>2026-04-21T16:46:55Z</time></trkpt><trkpt lat="42.816184353115936" lon="10.428296688794891"><ele>6.0</ele><time>2026-04-21T16:46:56Z</time></trkpt><trkpt lat="42.81609236564523" lon="10.4282281435907"><ele>6.0</ele><time>2026-04-21T16:46:58Z</time></trkpt><trkpt lat="42.81602857428328" lon="10.428170741604667"><ele>6.0</ele><time>2026-04-21T16:47:00Z</time></trkpt><trkpt lat="42.81596946819654" lon="10.42811920976908"><ele>6.0</ele><time>2026-04-21T16:47:03Z</time></trkpt><trkpt lat="42.8159163634465" lon="10.428239045008276"><ele>6.0</ele><time>2026-04-21T16:47:04Z</time></trkpt><trkpt lat="42.815832557374115" lon="10.428241836291265"><ele>6.0</ele><time>2026-04-21T16:47:06Z</time></trkpt><trkpt lat="42.81573975843367" lon="10.428241798771657"><ele>6.0</ele><time>2026-04-21T16:47:08Z</time></trkpt><trkpt lat="42.81563637075937" lon="10.428243637004716"><ele>5.833333333333333</ele><time>2026-04-21T16:47:10Z</time></trkpt><trkpt lat="42.81552649004124" lon="10.428232610682102"><ele>5.666666666666667</ele><time>2026-04-21T16:47:12Z</time></trkpt><trkpt lat="42.8154246173992" lon="10.428259091849197"><ele>5.5</ele><time>2026-04-21T16:47:14Z</time></trkpt><trkpt lat="42.81534188445278" lon="10.428254265249551"><ele>5.333333333333334</ele><time>2026-04-21T16:47:17Z</time></trkpt><trkpt lat="42.81526772111533" lon="10.428279178355165"><ele>5.166666666666667</ele><time>2026-04-21T16:47:20Z</time></trkpt><trkpt lat="42.815211903812894" lon="10.428322883207962"><ele>5.0</ele><time>2026-04-21T16:47:28Z</time></trkpt><trkpt lat="42.81529626599341" lon="10.428284310130218"><ele>5.0</ele><time>2026-04-21T16:47:41Z</time></trkpt><trkpt lat="42.81538080093833" lon="10.428286485300564"><ele>5.0</ele><time>2026-04-21T16:47:44Z</time></trkpt><trkpt lat="42.815452894552045" lon="10.42826890076865"><ele>5.0</ele><time>2026-04-21T16:47:47Z</time></trkpt><trkpt lat="42.8155283305186" lon="10.428254193764879"><ele>5.0</ele><time>2026-04-21T16:47:49Z</time></trkpt><trkpt lat="42.815619875201556" lon="10.428263382645826"><ele>5.0</ele><time>2026-04-21T16:47:52Z</time></trkpt><trkpt lat="42.81570196738847" lon="10.428270151385211"><ele>5.0</ele><time>2026-04-21T16:47:54Z</time></trkpt><trkpt lat="42.81579714299282" lon="10.428281986197664"><ele>5.0</ele><time>2026-04-21T16:47:56Z</time></trkpt><trkpt lat="42.8158999569064" lon="10.428262663312804"><ele>5.0</ele><time>2026-04-21T16:47:58Z</time></trkpt><trkpt lat="42.8159589306461" lon="10.428209552894412"><ele>5.0</ele><time>2026-04-21T16:48:01Z</time></trkpt><trkpt lat="42.81595160930318" lon="10.428027507664563"><ele>5.0</ele><time>2026-04-21T16:48:11Z</time></trkpt><trkpt lat="42.81589780415598" lon="10.427910437020312"><ele>5.0</ele><time>2026-04-21T16:48:13Z</time></trkpt><trkpt lat="42.81584768027943" lon="10.42785563055071"><ele>7.0</ele><time>2026-04-21T16:48:14Z</time></trkpt><trkpt lat="42.81574036158183" lon="10.427806353818973"><ele>9.0</ele><time>2026-04-21T16:48:16Z</time></trkpt><trkpt lat="42.815633691467745" lon="10.427731049952873"><ele>11.0</ele><time>2026-04-21T16:48:18Z</time></trkpt><trkpt lat="42.81558194268595" lon="10.427575961858153"><ele>13.0</ele><time>2026-04-21T16:48:20Z</time></trkpt><trkpt lat="42.815561539254055" lon="10.427494584946537"><ele>15.0</ele><time>2026-04-21T16:48:21Z</time></trkpt><trkpt lat="42.815539519845196" lon="10.427412717944348"><ele>15.0</ele><time>2026-04-21T16:48:22Z</time></trkpt><trkpt lat="42.81549534963506" lon="10.427257960244207"><ele>15.0</ele><time>2026-04-21T16:48:24Z</time></trkpt><trkpt lat="42.81545701022705" lon="10.427127643318308"><ele>15.0</ele><time>2026-04-21T16:48:26Z</time></trkpt><trkpt lat="42.815407831727576" lon="10.426998386773077"><ele>15.0</ele><time>2026-04-21T16:48:28Z</time></trkpt><trkpt lat="42.815352921513124" lon="10.426866587125186"><ele>15.0</ele><time>2026-04-21T16:48:30Z</time></trkpt><trkpt lat="42.81532084541004" lon="10.426791360546893"><ele>15.166666666666666</ele><time>2026-04-21T16:48:31Z</time></trkpt><trkpt lat="42.81526760200767" lon="10.426647336673367"><ele>15.333333333333332</ele><time>2026-04-21T16:48:33Z</time></trkpt><trkpt lat="42.81521984914714" lon="10.42654442128167"><ele>15.5</ele><time>2026-04-21T16:48:35Z</time></trkpt><trkpt lat="42.815183521427166" lon="10.42645850350344"><ele>15.666666666666666</ele><time>2026-04-21T16:48:37Z</time></trkpt><trkpt lat="42.81514598898503" lon="10.426369662976548"><ele>15.833333333333332</ele><time>2026-04-21T16:48:39Z</time></trkpt><trkpt lat="42.81509819688533" lon="10.426265779771859"><ele>16.0</ele><time>2026-04-21T16:48:41Z</time></trkpt><trkpt lat="42.81506015579874" lon="10.426142745698142"><ele>16.0</ele><time>2026-04-21T16:48:43Z</time></trkpt><trkpt lat="42.81501169790536" lon="10.426009209357487"><ele>16.0</ele><time>2026-04-21T16:48:45Z</time></trkpt><trkpt lat="42.814953345432784" lon="10.425862741157529"><ele>16.0</ele><time>2026-04-21T16:48:47Z</time></trkpt><trkpt lat="42.81490016297643" lon="10.4257476750538"><ele>16.0</ele><time>2026-04-21T16:48:49Z</time></trkpt><trkpt lat="42.81487609140957" lon="10.425610522467965"><ele>16.0</ele><time>2026-04-21T16:48:51Z</time></trkpt><trkpt lat="42.814830522069656" lon="10.425459946704844"><ele>16.714285714285715</ele><time>2026-04-21T16:48:53Z</time></trkpt><trkpt lat="42.81480600107878" lon="10.425379105710425"><ele>17.428571428571427</ele><time>2026-04-21T16:48:54Z</time></trkpt><trkpt lat="42.814777328146064" lon="10.425288470902606"><ele>18.142857142857142</ele><time>2026-04-21T16:48:55Z</time></trkpt><trkpt lat="42.81475566559919" lon="10.42519628018378"><ele>18.857142857142858</ele><time>2026-04-21T16:48:56Z</time></trkpt><trkpt lat="42.814733171722565" lon="10.425096604218306"><ele>19.57142857142857</ele><time>2026-04-21T16:48:57Z</time></trkpt><trkpt lat="42.814715236293516" lon="10.4250050451758"><ele>20.285714285714285</ele><time>2026-04-21T16:48:58Z</time></trkpt><trkpt lat="42.81469721382167" lon="10.424922225851287"><ele>21.0</ele><time>2026-04-21T16:48:59Z</time></trkpt><trkpt lat="42.81467602367777" lon="10.424784327257631"><ele>21.0</ele><time>2026-04-21T16:49:01Z</time></trkpt><trkpt lat="42.81464497913337" lon="10.424669830263065"><ele>21.0</ele><time>2026-04-21T16:49:03Z</time></trkpt><trkpt lat="42.814611264130924" lon="10.424547425429095"><ele>21.0</ele><time>2026-04-21T16:49:05Z</time></trkpt><trkpt lat="42.8145988784038" lon="10.424384579632392"><ele>21.0</ele><time>2026-04-21T16:49:07Z</time></trkpt><trkpt lat="42.81456982438609" lon="10.424300502440271"><ele>21.0</ele><time>2026-04-21T16:49:08Z</time></trkpt><trkpt lat="42.81456631438263" lon="10.424214316452595"><ele>21.0</ele><time>2026-04-21T16:49:09Z</time></trkpt><trkpt lat="42.81455183601724" lon="10.424128347235131"><ele>22.200000000000003</ele><time>2026-04-21T16:49:10Z</time></trkpt><trkpt lat="42.81452317028614" lon="10.423966556655522"><ele>23.400000000000002</ele><time>2026-04-21T16:49:12Z</time></trkpt><trkpt lat="42.814501088839044" lon="10.423829749398813"><ele>24.6</ele><time>2026-04-21T16:49:14Z</time></trkpt><trkpt lat="42.814479610193665" lon="10.423673438097646"><ele>25.8</ele><time>2026-04-21T16:49:16Z</time></trkpt><trkpt lat="42.81446658957491" lon="10.423588836505422"><ele>27.0</ele><time>2026-04-21T16:49:17Z</time></trkpt><trkpt lat="42.81444160963061" lon="10.423416101929128"><ele>27.5</ele><time>2026-04-21T16:49:19Z</time></trkpt><trkpt lat="42.81443026591868" lon="10.423327244781914"><ele>28.0</ele><time>2026-04-21T16:49:20Z</time></trkpt><trkpt lat="42.814414878198924" lon="10.423235468310798"><ele>28.5</ele><time>2026-04-21T16:49:21Z</time></trkpt><trkpt lat="42.814398532672136" lon="10.423149257962866"><ele>29.0</ele><time>2026-04-21T16:49:22Z</time></trkpt><trkpt lat="42.81438148127367" lon="10.423061190282185"><ele>29.5</ele><time>2026-04-21T16:49:23Z</time></trkpt><trkpt lat="42.81436713202017" lon="10.422974837157039"><ele>30.0</ele><time>2026-04-21T16:49:24Z</time></trkpt><trkpt lat="42.81436002398141" lon="10.4228012012395"><ele>29.28571428571429</ele><time>2026-04-21T16:49:26Z</time></trkpt><trkpt lat="42.814350291192" lon="10.422711196546695"><ele>28.57142857142857</ele><time>2026-04-21T16:49:27Z</time></trkpt><trkpt lat="42.81433723156946" lon="10.42261155309645"><ele>27.857142857142858</ele><time>2026-04-21T16:49:28Z</time></trkpt><trkpt lat="42.814325456010714" lon="10.422515488590648"><ele>27.142857142857146</ele><time>2026-04-21T16:49:29Z</time></trkpt><trkpt lat="42.81432057295163" lon="10.422419587690996"><ele>26.42857142857143</ele><time>2026-04-21T16:49:30Z</time></trkpt><trkpt lat="42.81431680208888" lon="10.422319128799721"><ele>25.714285714285715</ele><time>2026-04-21T16:49:31Z</time></trkpt><trkpt lat="42.814312590307466" lon="10.422214868590803"><ele>25.0</ele><time>2026-04-21T16:49:32Z</time></trkpt><trkpt lat="42.81430561153471" lon="10.422107938175843"><ele>25.0</ele><time>2026-04-21T16:49:33Z</time></trkpt><trkpt lat="42.81429717047634" lon="10.422000073133749"><ele>25.0</ele><time>2026-04-21T16:49:34Z</time></trkpt><trkpt lat="42.814290187221765" lon="10.421912952533589"><ele>25.0</ele><time>2026-04-21T16:49:35Z</time></trkpt><trkpt lat="42.81427372123087" lon="10.421790034351728"><ele>25.0</ele><time>2026-04-21T16:49:37Z</time></trkpt><trkpt lat="42.81426179669648" lon="10.421678391064814"><ele>25.0</ele><time>2026-04-21T16:49:41Z</time></trkpt><trkpt lat="42.81410694975195" lon="10.42171059714032"><ele>25.000000000000004</ele><time>2026-04-21T16:49:44Z</time></trkpt><trkpt lat="42.81400620547055" lon="10.421793946355294"><ele>25.0</ele><time>2026-04-21T16:49:46Z</time></trkpt><trkpt lat="42.81393507260753" lon="10.42179085280342"><ele>25.0</ele><time>2026-04-21T16:49:47Z</time></trkpt><trkpt lat="42.81386509415813" lon="10.421824679484423"><ele>25.0</ele><time>2026-04-21T16:49:48Z</time></trkpt><trkpt lat="42.81379146577063" lon="10.42184024619058"><ele>25.000000000000004</ele><time>2026-04-21T16:49:49Z</time></trkpt><trkpt lat="42.81372248122827" lon="10.42187718661557"><ele>25.0</ele><time>2026-04-21T16:49:50Z</time></trkpt><trkpt lat="42.81366655511552" lon="10.4219287429475"><ele>25.000000000000004</ele><time>2026-04-21T16:49:51Z</time></trkpt><trkpt lat="42.81360517171131" lon="10.42198327825475"><ele>25.0</ele><time>2026-04-21T16:49:52Z</time></trkpt><trkpt lat="42.81356773723911" lon="10.422067635342064"><ele>25.0</ele><time>2026-04-21T16:49:53Z</time></trkpt><trkpt lat="42.813565539107124" lon="10.422177199512245"><ele>25.0</ele><time>2026-04-21T16:49:54Z</time></trkpt><trkpt lat="42.813544132506195" lon="10.422270630330873"><ele>25.0</ele><time>2026-04-21T16:49:55Z</time></trkpt><trkpt lat="42.81353992858159" lon="10.4223627592076"><ele>25.000000000000004</ele><time>2026-04-21T16:49:56Z</time></trkpt><trkpt lat="42.813536075558034" lon="10.422461465778746"><ele>25.0</ele><time>2026-04-21T16:49:57Z</time></trkpt><trkpt lat="42.8135326861912" lon="10.422561713917295"><ele>24.28571428571429</ele><time>2026-04-21T16:49:58Z</time></trkpt><trkpt lat="42.81354621128009" lon="10.422656422736614"><ele>23.571428571428573</ele><time>2026-04-21T16:49:59Z</time></trkpt><trkpt lat="42.813531001190945" lon="10.42275016452541"><ele>22.857142857142858</ele><time>2026-04-21T16:50:00Z</time></trkpt><trkpt lat="42.813528464390764" lon="10.422843270689297"><ele>22.142857142857146</ele><time>2026-04-21T16:50:01Z</time></trkpt><trkpt lat="42.81352683004903" lon="10.422930289972397"><ele>21.42857142857143</ele><time>2026-04-21T16:50:02Z</time></trkpt><trkpt lat="42.81352833882397" lon="10.423016545407654"><ele>20.714285714285715</ele><time>2026-04-21T16:50:03Z</time></trkpt><trkpt lat="42.813527826355575" lon="10.423104808687789"><ele>20.0</ele><time>2026-04-21T16:50:04Z</time></trkpt><trkpt lat="42.813525194089564" lon="10.423194431753405"><ele>19.666666666666668</ele><time>2026-04-21T16:50:05Z</time></trkpt><trkpt lat="42.813522099733206" lon="10.423283597155567"><ele>19.333333333333336</ele><time>2026-04-21T16:50:06Z</time></trkpt><trkpt lat="42.81349900891691" lon="10.423369173447034"><ele>19.0</ele><time>2026-04-21T16:50:07Z</time></trkpt><trkpt lat="42.81348400582624" lon="10.423456708853607"><ele>18.666666666666668</ele><time>2026-04-21T16:50:08Z</time></trkpt><trkpt lat="42.81348220911034" lon="10.42354769681569"><ele>18.333333333333332</ele><time>2026-04-21T16:50:09Z</time></trkpt><trkpt lat="42.81343844456593" lon="10.423619317566297"><ele>18.0</ele><time>2026-04-21T16:50:10Z</time></trkpt><trkpt lat="42.813362712409116" lon="10.42376512635625"><ele>20.166666666666668</ele><time>2026-04-21T16:50:12Z</time></trkpt><trkpt lat="42.8133028063673" lon="10.423888360540735"><ele>22.333333333333336</ele><time>2026-04-21T16:50:14Z</time></trkpt><trkpt lat="42.8132405193011" lon="10.424027472392966"><ele>24.5</ele><time>2026-04-21T16:50:16Z</time></trkpt><trkpt lat="42.81320580039732" lon="10.424106441431654"><ele>26.666666666666668</ele><time>2026-04-21T16:50:17Z</time></trkpt><trkpt lat="42.81318900505464" lon="10.42420624127523"><ele>28.833333333333336</ele><time>2026-04-21T16:50:18Z</time></trkpt><trkpt lat="42.813158840706684" lon="10.424297439710907"><ele>31.0</ele><time>2026-04-21T16:50:19Z</time></trkpt><trkpt lat="42.81313148173279" lon="10.424387103319116"><ele>31.0</ele><time>2026-04-21T16:50:20Z</time></trkpt><trkpt lat="42.813092053178174" lon="10.424456451073368"><ele>31.0</ele><time>2026-04-21T16:50:21Z</time></trkpt><trkpt lat="42.81306304954029" lon="10.424605567212152"><ele>31.0</ele><time>2026-04-21T16:50:23Z</time></trkpt><trkpt lat="42.813002381592725" lon="10.424744759825224"><ele>31.0</ele><time>2026-04-21T16:50:25Z</time></trkpt><trkpt lat="42.81297390215016" lon="10.424851800634158"><ele>31.0</ele><time>2026-04-21T16:50:27Z</time></trkpt><trkpt lat="42.812957349400776" lon="10.424999229559315"><ele>29.0</ele><time>2026-04-21T16:52:21Z</time></trkpt><trkpt lat="42.81288427924107" lon="10.425087316233824"><ele>27.0</ele><time>2026-04-21T16:52:23Z</time></trkpt><trkpt lat="42.81281734498448" lon="10.425170118097075"><ele>25.0</ele><time>2026-04-21T16:52:25Z</time></trkpt><trkpt lat="42.81273024097715" lon="10.425244128147789"><ele>23.0</ele><time>2026-04-21T16:52:27Z</time></trkpt><trkpt lat="42.8126320589733" lon="10.425305938652102"><ele>21.0</ele><time>2026-04-21T16:52:29Z</time></trkpt><trkpt lat="42.812570627277864" lon="10.425343976152417"><ele>23.666666666666668</ele><time>2026-04-21T16:52:31Z</time></trkpt><trkpt lat="42.81250163062912" lon="10.425409032938344"><ele>26.333333333333336</ele><time>2026-04-21T16:52:35Z</time></trkpt><trkpt lat="42.812428514844136" lon="10.425474821676197"><ele>29.0</ele><time>2026-04-21T16:52:37Z</time></trkpt><trkpt lat="42.81237654871485" lon="10.425563424485386"><ele>31.666666666666668</ele><time>2026-04-21T16:52:39Z</time></trkpt><trkpt lat="42.812362305428834" lon="10.425673280465288"><ele>34.333333333333336</ele><time>2026-04-21T16:52:42Z</time></trkpt><trkpt lat="42.8124458565995" lon="10.42565664200742"><ele>37.0</ele><time>2026-04-21T16:52:48Z</time></trkpt><trkpt lat="42.81242939737528" lon="10.425457742284838"><ele>38.66666666666667</ele><time>2026-04-21T16:53:56Z</time></trkpt><trkpt lat="42.81248012383657" lon="10.425350194394943"><ele>40.333333333333336</ele><time>2026-04-21T16:53:58Z</time></trkpt><trkpt lat="42.81252687346771" lon="10.425290452549929"><ele>42.0</ele><time>2026-04-21T16:54:00Z</time></trkpt><trkpt lat="42.812593266288566" lon="10.425223858676253"><ele>43.666666666666664</ele><time>2026-04-21T16:54:03Z</time></trkpt><trkpt lat="42.81262514138" lon="10.425110915206224"><ele>45.33333333333333</ele><time>2026-04-21T16:54:06Z</time></trkpt><trkpt lat="42.81255835748268" lon="10.425105886588897"><ele>47.0</ele><time>2026-04-21T16:54:10Z</time></trkpt><trkpt lat="42.81248954457477" lon="10.425168239513532"><ele>47.0</ele><time>2026-04-21T16:54:13Z</time></trkpt><trkpt lat="42.81244128673336" lon="10.425224248692173"><ele>47.0</ele><time>2026-04-21T16:54:15Z</time></trkpt><trkpt lat="42.81248139278053" lon="10.425146968966637"><ele>47.0</ele><time>2026-04-21T16:55:08Z</time></trkpt><trkpt lat="42.81247195049121" lon="10.425055449903086"><ele>47.0</ele><time>2026-04-21T16:55:18Z</time></trkpt><trkpt lat="42.81240576400838" lon="10.42504551583168"><ele>47.0</ele><time>2026-04-21T16:55:28Z</time></trkpt></trkseg></trk></gpx>